ECMWFNIL_con_mucape_000.txt.gz
CAPE
2499 2442 2424 2052 1464 1216 849 544 0 0 0 0 0 0 0 10 46 63 91 0 0 0 0 0 30 83 116 58 60 127 192 121 200 190 164 199 195 188 194 201 156 175
2501 2543 2433 1810 1056 740 516 194 0 0 0 0 0 0 0 8 34 57 20 0 34 12 0 0 1 20 17 42 58 90 115 197 296 358 166 98 217 182 212 200 180 170
2583 2556 2284 1683 962 621 428 0 0 0 0 0 0 0 0 16 18 21 0 0 0 5 0 0 0 0 3 2 0 7 87 49 29 32 145 189 196 171 194 152 151 134
2626 2593 2166 1588 880 533 157 0 0 0 0 0 0 0 0 28 4 3 0 237 0 0 0 0 1 0 0 0 0 0 0 2 20 28 64 158 236 257 230 204 293 296
2448 2459 2083 1524 788 478 115 0 0 0 0 0 0 0 19 34 5 0 0 20 6 0 0 0 0 0 0 0 0 3 3 24 17 5 33 55 52 48 131 204 248 267
2225 2196 1889 1454 763 559 331 0 0 0 0 0 0 0 4 1 8 6 7 6 12 4 0 0 0 0 2 3 0 0 0 2 33 27 34 49 107 91 133 144 170 174
2081 2134 1952 1548 831 622 358 0 0 3 0 0 0 0 1 0 4 11 13 11 10 16 1 0 0 0 0 0 0 0 2 9 43 30 14 29 49 80 164 187 192 192
1942 2007 1950 1522 946 808 476 0 0 9 0 0 0 0 0 0 1 3 14 11 10 9 8 0 0 0 0 0 1 7 33 24 40 38 30 57 70 96 176 222 304 390
1837 1988 1863 1313 679 634 210 0 0 41 25 0 0 0 0 0 0 0 8 9 10 15 3 0 0 0 0 0 0 3 8 0 4 22 49 103 148 218 274 302 429 458
1625 1744 1596 1316 787 735 256 0 0 19 104 147 0 0 0 6 0 0 8 4 8 20 2 0 0 0 0 0 0 0 0 0 0 0 8 58 130 226 295 328 420 404
1400 1506 1392 1238 914 857 371 74 0 0 4 2 0 4 4 5 51 13 12 1 6 7 0 0 0 0 0 0 0 0 0 0 0 2 14 54 110 166 218 346 368 344
1264 1265 1252 1062 876 958 356 0 21 20 162 71 10 6 1 1 36 29 29 3 1 3 0 0 2 3 0 0 0 0 0 0 0 4 19 43 66 103 180 237 262 318
908 932 1002 862 919 1038 870 0 0 0 68 201 382 386 435 366 10 19 101 57 19 8 7 12 13 10 2 0 0 0 0 0 0 11 36 94 134 160 234 273 308 355
914 731 933 1134 826 1274 609 0 9 234 220 262 508 566 568 451 299 38 20 86 65 44 36 34 27 151 2 0 0 0 0 4 13 52 86 112 148 163 214 247 282 290
1091 975 806 796 952 1022 830 2 118 185 273 484 620 695 630 434 315 293 65 37 61 82 65 36 258 229 4 0 0 2 5 15 36 64 108 161 172 153 145 142 151 176
1542 1526 1369 1160 810 1000 987 78 125 243 386 393 553 680 575 452 416 392 337 317 168 247 399 350 248 18 41 0 75 130 173 204 185 102 68 84 146 165 144 126 126 149
1587 1563 1432 1178 576 421 705 197 77 98 319 484 529 701 625 590 580 510 534 479 436 483 472 316 18 16 8 0 60 131 208 302 354 347 204 76 92 105 127 191 234 186
1942 1962 1866 1405 613 586 676 634 291 24 185 394 622 770 754 792 690 720 528 464 556 675 614 388 16 42 63 77 122 151 192 272 374 439 431 312 117 93 129 174 210 157
2036 2096 2008 1973 1615 1267 565 942 940 1 224 110 270 532 690 912 1119 828 476 434 668 749 657 548 324 192 153 142 184 228 261 292 374 461 498 483 339 133 99 85 80 80
2029 2137 2156 2150 1586 454 329 257 10 3 22 31 92 350 520 586 731 881 744 685 746 734 636 573 411 295 254 252 285 325 360 393 422 512 559 539 452 231 84 40 29 45
1961 1904 2038 1802 1224 896 0 4 41 0 27 27 24 114 144 152 185 287 546 731 772 711 586 512 464 443 408 350 340 380 444 478 542 589 576 492 312 157 88 20 8 6
1842 1880 1816 1552 1234 771 80 38 142 111 69 0 0 3 33 80 116 128 222 361 494 512 523 545 530 535 484 401 372 424 481 547 632 636 464 227 148 129 70 0 0 0
1692 1517 1278 889 938 528 378 182 116 66 41 8 0 0 3 42 83 92 152 224 332 442 519 581 574 586 551 460 398 444 594 656 612 390 235 189 174 103 0 0 0 0
1354 1104 737 400 25 0 0 50 0 72 14 0 0 0 4 32 50 66 101 166 305 456 561 582 517 289 268 218 290 237 226 248 250 287 275 234 151 0 28 0 0 23
836 629 309 0 0 0 0 0 0 0 0 0 0 7 22 54 78 111 157 225 230 226 294 228 221 207 27 27 10 30 86 116 227 294 208 90 0 45 34 16 16 0
579 480 179 0 0 0 0 0 0 0 0 2 14 20 35 74 103 172 228 206 249 360 242 229 302 97 7 6 20 20 39 58 164 124 9 0 0 2 44 7 0 0

ECMWFNIL_con_mucape_003.txt.gz
CAPE
3911 3764 3634 3283 3106 2801 2462 2225 1843 1756 1793 1596 1323 1142 1251 1116 1338 1492 1048 1064 1014 541 552 532 427 481 316 398 699 706 661 464 388 541 698 691 537 357 190 118 223 292
3901 3743 3443 3224 3031 2630 2392 2115 1798 1620 1642 1592 1322 1476 1399 1489 1398 1274 1229 1032 1218 634 620 466 704 680 644 259 887 776 835 828 725 764 1128 1150 971 759 428 477 431 482
3675 3478 3245 3014 2719 2332 1968 1944 1870 1611 1489 1328 1409 1484 1380 1274 1309 1453 1295 1047 1050 566 776 666 552 777 649 562 901 751 393 710 682 296 1105 1268 1154 1058 1044 269 437 579
3289 3113 2882 2692 2452 2196 1931 2027 1961 1557 1353 1410 1312 1178 1221 1082 1236 1262 1369 1317 1116 966 697 592 407 344 512 308 480 562 448 799 210 404 770 1084 1241 1114 878 740 582 642
2914 2561 2421 2382 2216 2075 2042 2165 1964 1314 1098 1200 1223 1236 1171 1179 1164 1184 1260 1237 1118 906 928 920 818 635 796 294 457 349 368 235 232 965 888 383 491 847 648 921 968 814
2649 2200 2010 2105 1985 2064 2278 2406 1878 1100 1011 1092 1242 1022 936 1153 1137 1160 1161 964 788 520 500 477 739 416 359 266 644 546 104 21 21 369 472 290 73 123 288 731 994 967
2290 1930 1903 1849 1901 2149 2419 2450 1851 1034 985 978 1146 946 898 1045 1166 1124 1164 1055 766 675 521 542 597 258 479 650 895 803 908 638 197 288 278 58 105 94 204 866 1068 1153
2181 1781 1817 1836 1961 2146 2392 2316 1267 1260 1009 1005 840 884 806 658 864 859 946 947 828 916 895 743 660 682 452 626 618 659 558 594 219 142 166 178 402 410 155 291 870 1175
1668 1594 1633 1654 1824 2027 2208 2013 1176 1290 888 663 538 386 559 644 765 682 871 941 821 938 1064 958 1019 856 773 818 757 638 287 150 170 268 293 225 158 131 142 396 884 1058
1441 1476 1474 1493 1587 1766 1913 1968 1445 782 740 138 139 193 184 296 366 539 668 833 868 1038 1088 1032 1006 922 921 906 845 748 654 499 520 758 640 588 382 266 198 602 729 868
1262 1260 1195 1269 1372 1562 1831 1878 1734 1054 682 311 8 8 24 42 286 310 468 641 704 912 1002 1004 990 1094 1116 940 880 959 1014 731 756 892 810 823 798 810 1054 982 1114 1050
1353 1300 788 710 1375 1457 1750 1810 1713 1522 654 12 4 16 11 14 113 322 409 589 743 954 1082 1192 1242 1272 1086 915 751 919 984 932 797 852 800 995 1047 1128 1222 1322 1313 1288
1571 1376 790 428 377 924 1453 1608 1599 1215 612 14 3 1 14 40 103 178 357 522 702 904 1062 1344 1342 1167 1164 1155 1180 1174 1083 988 835 929 1000 1072 1129 1065 930 1154 1368 1446
1702 1312 758 746 432 442 1292 1584 1448 1262 1015 25 27 40 38 47 85 106 302 496 592 786 972 1017 1144 1097 1132 1220 1272 1238 1174 1178 1098 974 972 1093 1245 1209 1108 1013 1245 1311
1990 1718 1116 769 454 546 501 1368 1623 1457 598 47 24 36 50 98 141 185 437 531 596 642 768 874 948 1015 1092 1154 1181 1263 1292 1209 1215 1186 1168 1220 1273 1130 1243 1343 1321 1332
2143 1914 1508 1097 883 580 619 649 450 509 24 1 47 80 156 217 209 261 382 500 606 643 683 902 937 950 816 370 495 1131 1362 1231 1193 1264 1319 1271 1289 1302 1216 1259 1307 1177
2222 2026 1774 1544 1316 1136 942 746 588 448 278 43 60 114 261 348 442 488 460 470 524 666 678 714 728 768 397 284 248 176 588 1152 1280 1392 1414 1430 1324 1313 1274 1267 1413 1464
2316 2158 2041 1860 1700 1398 770 337 274 238 315 594 484 130 172 322 447 468 582 646 632 579 605 662 696 480 347 327 244 160 100 471 970 1104 1192 1224 1278 1286 1316 1311 1302 1335
2265 2157 2035 1956 1804 1344 1152 890 741 704 725 828 458 92 106 156 334 416 509 516 484 478 422 404 398 340 421 448 310 190 133 112 396 988 1104 1118 1186 1308 1368 1363 1409 1167
2204 2160 2130 1838 1296 988 1011 912 830 796 800 773 700 402 289 281 229 396 512 525 448 522 494 342 357 336 419 520 490 329 203 116 208 492 630 730 918 1080 1244 1244 1230 1156
2263 2165 2137 2017 2052 1620 1280 1482 1232 884 764 677 592 576 526 396 384 455 617 658 748 688 504 385 468 660 691 630 478 347 292 281 278 282 451 622 686 740 816 672 469 496
2266 2142 1982 1924 1867 1676 1359 982 717 484 524 584 562 600 543 456 525 453 430 344 725 663 473 472 432 288 314 372 408 406 422 401 252 392 491 524 518 539 534 342 152 170
2106 2026 1974 1901 1846 1834 1362 470 155 217 259 328 352 407 438 293 356 251 124 139 372 516 509 470 440 306 293 365 385 300 259 308 362 342 364 386 342 330 220 94 76 100
2108 2040 1920 1850 1758 1566 653 63 61 67 96 178 79 111 44 82 103 208 100 281 372 506 589 746 691 553 301 306 304 248 138 406 449 367 301 193 219 202 85 76 39 44
1904 1842 1798 1724 1494 691 126 6 11 17 21 4 0 0 12 18 47 50 306 461 387 597 414 544 740 429 200 238 272 187 50 830 538 117 50 79 204 299 74 50 198 27
1647 1628 1501 1252 737 397 237 132 2 0 0 0 0 0 0 0 0 71 570 601 485 692 312 276 462 526 249 34 35 12 0 165 150 108 84 149 234 133 130 154 99 62

ECMWFNIL_con_mucape_006.txt.gz
CAPE
3964 3906 3648 3359 3097 3028 3028 2964 2755 2765 2907 2443 2369 2104 1693 1674 1394 1128 948 799 687 428 450 380 130 74 30 32 54 56 78 124 189 143 254 223 228 156 126 86 117 145
4210 4060 3900 3583 3309 3256 3322 3213 3173 2898 2930 2811 2485 2077 1714 1618 1326 1129 1100 681 536 383 521 292 220 96 46 14 35 20 104 234 232 215 267 356 335 267 202 141 122 131
4102 4236 4223 3915 3406 3532 3233 3239 3106 2900 2763 2742 2493 2104 1852 1730 1547 1287 955 636 444 318 434 366 272 155 79 27 64 86 86 248 227 66 223 336 262 152 206 96 111 55
4509 4483 4388 4000 3469 3557 3383 3106 3196 3061 2826 2770 2514 2142 1944 1737 1419 1146 876 591 471 432 357 369 240 164 95 51 86 126 86 144 138 162 217 259 218 142 104 75 50 45
4707 4495 4438 4025 3553 3562 3425 3129 2914 3104 2818 2724 2670 2374 2125 1719 1286 1128 776 704 608 588 541 458 283 128 172 121 67 73 38 103 104 113 154 173 222 182 108 104 93 47
4535 4506 4490 4284 4119 3974 3763 3468 3612 3494 3287 2843 2877 2450 2154 1934 1443 858 672 690 704 542 544 496 317 192 186 233 208 199 73 19 27 107 162 178 121 82 54 90 93 107
4594 4630 4370 4668 4481 4397 4293 4026 3774 3449 3255 3007 2966 2421 2145 1902 1341 832 786 802 628 605 485 434 431 281 191 188 213 172 159 126 110 122 173 235 198 130 64 54 81 78
4439 4126 4337 4516 4277 4364 4150 3906 3558 3358 3240 3044 2892 2506 2000 1626 1480 1152 1152 938 605 608 574 440 401 396 123 90 82 57 138 174 198 210 184 232 195 101 118 82 85 91
4561 4484 4300 4070 3934 4029 3772 3552 3494 3354 3170 3065 2644 2179 2215 1724 1749 1446 1426 1314 988 907 1007 738 508 358 188 51 30 112 240 246 187 209 244 222 181 174 168 90 82 86
4272 3999 3772 3649 3525 3630 3391 3194 3068 3087 2974 2802 2283 1942 1670 1332 1166 1478 1569 1536 1352 1266 1247 1058 614 316 214 58 58 243 346 356 242 250 248 218 213 202 176 147 126 129
3968 3682 3522 3422 3106 3003 2905 2657 2418 2468 2590 2330 1550 1340 1639 1636 1418 1332 1497 1292 985 881 963 987 578 333 275 131 159 284 358 324 291 309 251 252 274 241 216 228 194 154
3724 3370 3131 3189 3044 2944 2540 2063 1994 2080 1925 1556 1262 1221 1140 919 987 1028 630 547 476 525 733 723 484 340 312 350 248 298 385 344 296 328 261 260 292 317 299 277 229 175
3573 3367 3201 2914 2947 2538 2184 1618 1211 1104 1333 1394 1207 1094 717 700 1096 749 552 576 601 588 515 420 384 407 440 584 640 467 348 435 461 383 344 332 300 277 246 152 96 94
3538 3500 3334 2822 2098 1613 1354 1187 1278 1300 1475 1691 1571 1260 657 685 665 540 599 613 686 598 530 418 430 516 625 832 830 676 511 520 546 502 380 390 385 350 337 196 145 86
3586 3198 2700 1796 1368 1030 782 877 901 1139 1683 1956 1440 1226 1179 1053 299 112 292 409 440 493 518 530 540 582 714 1014 1149 962 926 760 592 466 516 457 416 410 450 511 538 623
3469 3056 2174 1962 1720 1647 1320 792 896 1070 784 429 347 385 646 808 718 539 314 415 456 488 646 802 822 814 724 570 735 946 1197 1156 785 695 572 396 268 426 483 679 823 782
3110 2712 2228 2161 2089 2176 2245 2104 1468 772 304 174 194 219 226 486 462 460 348 294 314 587 768 792 814 802 480 412 520 644 1110 1130 969 1052 974 717 301 324 727 832 511 504
3074 2544 2400 2406 2387 2431 2429 2412 2446 1992 979 618 486 367 360 316 195 345 404 366 379 558 682 861 894 704 418 373 388 367 292 778 1012 1102 888 780 794 519 390 300 407 1018
2977 2494 2458 2482 2430 2406 2424 2392 2331 1943 1372 972 673 561 660 587 482 565 594 665 593 680 580 512 766 619 305 262 250 220 212 189 404 742 1013 1242 1085 1111 1332 1154 1200 1584
2924 2574 2633 2538 2439 2359 2258 2212 2060 1826 1489 1180 986 915 764 568 441 630 698 788 708 745 551 646 1053 797 384 284 210 227 220 332 356 350 482 695 855 829 870 1144 1418 1563
2648 2658 2599 2478 2297 2180 2124 2044 1962 1734 1426 1223 1131 1052 955 745 541 692 600 702 910 1044 1160 1277 1078 654 400 258 170 201 192 240 401 490 447 615 926 1126 1350 1404 1356 1318
2532 2557 2392 2248 2165 2042 1961 1919 1762 1586 1380 1161 1074 994 859 728 618 464 436 589 356 806 735 976 779 472 419 288 158 226 312 452 518 600 849 1008 1179 1365 1445 1502 1354 1066
2356 2358 2230 2126 2004 1864 1802 1683 1603 1492 1212 1109 1040 913 851 783 686 613 532 462 468 453 385 530 485 476 358 258 252 235 242 500 810 1002 1132 1216 1289 1409 1406 1325 1223 1069
2342 2214 2200 1933 1652 1803 1630 1598 1579 1366 1334 1378 1317 1002 737 665 715 650 614 570 626 608 430 494 537 551 248 153 148 187 367 1031 1208 1313 1383 1281 1339 1476 1310 1203 848 505
2165 2241 2249 1788 1867 1728 1688 1498 1571 1495 1378 1272 1096 864 773 733 644 608 604 620 559 552 334 475 533 410 181 118 120 114 238 1217 1368 1214 1049 1156 964 1368 1254 910 669 293
2001 2065 1774 1765 1891 1892 1719 1618 1403 1332 1173 987 897 851 867 838 831 758 448 383 375 328 492 403 514 1009 606 108 60 61 52 1058 1277 1426 1386 1112 1228 800 853 688 653 450

ECMWFNIL_con_mucape_009.txt.gz
CAPE
3645 3503 3783 3701 3378 3102 2962 2976 2659 2545 2368 1950 1895 1927 1789 1776 1396 874 650 626 512 362 489 543 377 317 73 39 52 38 62 146 48 9 27 115 106 59 77 60 78 122
3841 3611 3703 3629 3593 3363 3272 2892 2792 2572 2559 2391 2072 1871 1850 1427 1399 1009 806 389 462 472 556 498 551 274 112 28 75 84 69 74 55 14 30 117 233 238 168 206 142 127
3934 3587 3728 3624 3266 3282 3003 2936 2889 2736 2456 2651 2239 1910 1791 1677 1470 1103 942 676 606 573 535 568 523 326 120 61 140 74 32 112 114 16 69 176 239 253 317 51 68 79
4038 3841 3690 3574 3068 3026 3050 2915 2894 2878 2493 2219 2014 1836 1720 1839 1556 1188 1079 856 782 650 544 438 368 301 192 78 142 142 98 156 116 62 41 128 220 272 236 211 150 80
4370 4207 3707 3491 3210 2993 3100 2922 2637 2829 2352 1990 1915 1845 2012 1931 1634 1402 1141 1116 926 634 597 524 387 417 351 238 304 262 128 128 93 109 120 89 130 195 204 209 180 149
4740 4493 4246 3810 3496 3310 3013 2967 2793 2384 2215 1654 1970 1812 2060 2218 1864 1438 1410 1236 790 615 484 523 475 266 315 355 529 407 259 51 40 87 81 65 68 59 25 20 37 130
4559 4530 4283 4120 3626 3513 3388 3089 2611 2536 2235 1748 1954 2065 2153 2118 2027 1498 1385 1190 867 622 586 676 829 475 277 359 670 623 550 274 103 70 88 116 152 135 76 73 106 128
4783 4874 4825 4510 4035 3711 3362 3157 3252 3011 2580 2293 1938 2302 2210 2155 2124 1496 1312 1103 871 872 682 661 714 621 228 341 562 611 541 298 235 116 63 66 168 194 190 212 200 226
5114 5182 5036 4639 4286 3755 3146 2981 3080 3127 2991 2676 2184 2183 2310 2326 2126 1544 1413 1236 961 844 930 763 749 606 591 512 475 529 425 192 189 267 329 320 301 295 226 230 235 249
5206 5116 4843 4546 4134 3810 2891 2148 2686 3294 3238 3001 2450 1835 2564 2408 2245 1801 1544 1560 1176 794 821 820 744 708 492 367 274 221 294 424 261 265 302 315 297 290 293 245 221 244
4926 4704 4715 4000 3616 3102 2794 2269 2478 2929 3141 2954 2488 1801 2619 2255 2144 1901 1848 1766 1308 896 1015 1053 947 952 787 242 47 50 112 126 333 384 340 286 296 369 382 381 222 179
4924 4755 4229 3864 3478 2346 2628 2336 2531 2934 2729 2346 2322 2266 2634 2093 2055 1809 1841 1978 1702 1283 1400 1760 1595 1133 526 166 75 63 119 238 342 410 393 350 369 401 464 376 276 282
4989 4745 4384 3958 3251 3190 3074 1780 1617 2506 1810 1301 1986 2547 2423 2148 2069 1940 2231 2346 2144 2070 2086 1752 1277 642 295 157 170 163 287 458 444 408 383 416 431 343 314 403 373 416
5138 4608 4254 3673 3409 3336 3351 2475 2879 2635 2418 2050 2327 2676 2494 2633 2458 2565 2555 2441 2123 1919 1612 1286 882 467 144 152 292 397 460 610 655 606 494 522 559 587 488 313 335 201
4885 4628 4114 3904 3482 3660 3458 3340 3233 2857 2247 2757 2926 2726 2502 2214 2315 2088 2003 1683 1430 902 805 593 378 153 99 126 304 582 760 735 721 682 626 564 768 687 694 711 554 535
4978 4399 4226 4154 3645 3702 3429 3449 3315 3220 3097 3072 2720 2524 2282 1827 1697 1734 1335 976 721 689 426 258 184 184 137 19 255 816 1054 988 747 696 708 679 776 960 708 560 290 253
4954 4649 4213 4400 4265 4065 3769 3430 3316 3317 3142 2993 2782 2656 2216 1718 1734 1404 766 509 336 195 197 376 286 154 13 0 15 615 1090 1049 876 925 903 851 713 1060 912 442 404 614
4141 3984 3951 4118 3916 3556 3370 3356 3136 2918 2852 2900 2848 2776 2518 2121 1662 1293 827 433 360 405 477 555 387 122 0 0 0 585 886 1214 1095 928 759 768 1002 857 901 556 564 621
3695 3397 3521 3476 3446 3386 3159 2982 2760 2519 2405 2138 2192 2400 1828 1960 1478 1138 578 416 394 469 392 221 240 44 0 28 0 537 642 627 939 965 761 995 920 902 685 830 916 1078
3589 3377 3150 3160 3164 3123 3041 2905 2824 2506 2469 2415 2334 2196 2224 2186 1760 963 564 446 389 548 404 256 433 44 413 520 72 377 381 449 842 840 1091 985 1036 968 990 1132 1276 1460
3707 3490 3134 2982 3125 3104 3026 2980 2928 2542 2474 2464 2447 2439 2388 2184 1753 1318 906 699 528 646 566 446 448 48 0 419 0 0 0 85 737 1011 1082 970 1172 1318 1405 1351 1157 1090
3647 3414 3163 2911 2846 2597 2667 2872 2783 2729 2416 2312 2276 2209 2117 1900 1697 1407 1197 972 723 710 746 640 465 142 0 0 0 0 31 160 548 804 870 932 1174 1288 1092 1172 1198 1088
3490 3323 3071 2600 2543 2551 2442 2420 2613 2693 2595 2233 2022 1866 1693 1546 1401 1260 1102 928 907 940 833 638 524 574 481 399 0 410 342 281 422 708 955 1103 1290 1432 1467 1369 1450 1789
3506 2960 2653 2303 2482 2601 2573 2548 2400 2039 1973 1876 1887 1622 1404 1205 1045 973 892 804 718 624 804 665 743 1069 460 442 290 352 263 445 692 948 865 1070 1300 1373 1784 1965 1850 1635
3654 3230 2831 2433 2594 2358 2210 2150 2073 2032 1880 1765 1507 1665 1333 1342 898 897 1038 883 640 564 508 742 895 874 665 528 450 314 385 804 1064 660 667 1254 743 618 1126 1192 1364 1306
3585 3541 3290 2876 2609 2507 2246 2297 2254 2156 1926 1878 1755 1714 1545 1532 1178 1184 1097 923 874 956 1133 787 780 700 570 425 61 0 426 576 962 1105 736 580 435 333 556 1191 1228 1294

ECMWFNIL_con_mucape_012.txt.gz
CAPE
4351 4418 4268 3923 3789 3378 3257 3591 3431 3406 3388 3085 3110 2811 2647 2973 2323 2295 2034 1555 1149 1215 1114 1206 847 1013 852 726 484 423 915 452 438 360 187 472 399 291 254 273 86 335
4327 4359 4163 4042 3995 3778 3911 3588 3555 3526 3444 3386 2950 3240 3033 2511 2392 2166 1838 1206 1315 978 1164 1052 1094 1046 792 505 604 493 598 635 450 301 551 475 974 442 148 289 286 390
4248 4183 4267 4040 3877 3833 2994 3420 3778 3637 3290 2967 3062 3044 2660 2297 2155 1963 1728 1472 1081 753 1198 1007 1016 945 725 699 496 548 469 498 349 104 425 342 603 375 654 202 519 436
4333 4178 3870 3692 3636 3658 3416 3470 3681 3470 3099 3016 2812 2519 2253 1856 2082 1652 1743 1452 1312 1180 990 910 843 663 696 631 824 488 492 487 385 417 597 708 662 627 486 612 300 293
4403 4124 3694 3690 3720 3797 3647 3498 2845 3178 2666 2804 2674 2474 2459 2191 2140 1662 1557 1329 1350 1248 1180 969 1111 812 715 551 896 646 604 593 598 625 752 605 809 818 677 660 655 647
4444 4251 4036 3924 3834 3869 3591 3436 3182 3040 2704 2824 2634 2441 2444 2288 2160 1652 1471 1301 1232 1003 903 866 861 708 658 520 596 838 496 491 379 622 684 663 649 484 340 766 735 559
4485 4455 4096 4062 3870 3640 3535 3385 3338 3164 2824 2418 2518 2259 2178 2246 2207 1891 1558 1406 1052 1067 862 781 695 634 680 524 533 642 700 631 548 710 581 666 552 546 268 407 818 635
4236 4338 4070 3906 3695 3497 3452 3513 3272 3258 3066 2550 2401 2356 2285 2202 2241 2038 1833 1630 1422 1308 1000 971 980 773 734 692 591 657 436 454 497 906 904 652 746 685 694 506 470 491
4476 4323 4191 3880 3481 3236 2828 3000 3173 3106 3048 2427 2302 2259 2366 2368 2385 2102 2041 1859 1645 1442 1146 1069 1145 909 656 713 706 634 424 259 209 420 579 491 510 690 719 683 662 716
4570 4541 3941 3588 3036 2899 2478 2543 2519 2767 2774 2468 2125 2047 2254 2445 2584 2369 2153 2020 1791 1588 1187 1131 1165 992 785 630 778 748 596 470 468 503 474 411 365 435 498 643 717 788
4123 4255 4361 3645 3238 2810 2626 2522 2538 2466 2486 2366 2083 2004 2220 2425 2524 2547 2341 2140 1827 1647 1290 1164 1150 1022 913 655 756 855 842 798 742 765 761 711 665 744 911 814 735 665
4222 3801 3680 3806 3484 3167 2899 2655 2355 2607 2667 2405 2102 2032 2298 2463 2534 2595 2399 2146 1873 1640 1517 1206 1174 1090 1013 833 693 675 709 631 577 576 629 760 795 831 822 778 792 884
4190 4066 4023 3808 3917 3542 3276 2901 2634 2497 2549 2409 2211 2009 2198 2362 2555 2657 2456 2232 1936 1615 1497 1384 1260 1175 1110 947 705 542 422 362 316 466 578 731 688 673 576 725 863 944
4960 4787 4696 4506 4238 3872 3517 3145 2679 2442 2585 2818 2658 2506 2253 2042 2604 2753 2571 2226 1920 1580 1308 1301 1268 1201 1258 1040 582 287 225 232 336 484 649 777 778 695 615 579 855 758
5129 5124 4840 4701 4317 3946 3724 3481 2851 2487 2759 3157 3056 2792 2331 1906 2575 2998 2560 2254 1974 1584 1211 1087 1171 1275 1288 937 522 348 351 389 490 674 815 840 823 732 782 809 892 557
5315 5208 4900 4813 4290 3949 3747 3482 3008 2676 2738 3130 3194 2988 2580 2352 2834 2915 2448 2221 2078 1754 1301 1264 1611 1716 1178 632 339 328 365 457 650 808 908 913 964 846 772 1046 844 522
5433 5363 5168 4837 4440 4094 3727 3366 3143 2820 2776 3107 3116 2716 2477 3093 3184 2762 2455 2307 2351 1822 1704 2021 1905 1493 800 530 50 160 419 684 881 1081 1126 1234 1108 1025 905 897 651 464
5513 5537 5331 4981 4534 4218 3896 3582 3367 3090 2927 3049 3129 3083 3225 3221 3054 2928 2721 2651 2500 2191 1958 1470 1256 928 605 357 84 61 411 850 1070 1257 1133 1086 1057 1005 1179 956 611 448
5666 5626 5396 5190 4726 4252 4062 3904 3673 3616 3739 3596 3739 3745 3332 2896 2843 2838 2610 2414 2067 1679 1241 974 734 507 302 252 196 80 208 696 1367 1334 1121 1030 1067 1168 1184 926 670 687
5851 5552 5332 5138 4740 4574 4797 4658 4376 4326 4154 3878 3487 3500 3314 2775 2529 2510 2188 1861 1276 1196 804 704 576 554 562 636 521 206 34 380 1200 1404 1244 1109 1128 1333 1129 915 845 851
5744 5386 5211 5072 4807 4923 4657 4552 4342 4242 3858 3373 3082 3100 3041 2808 2423 2258 1966 1534 1428 1281 1090 988 925 822 961 1046 882 410 108 13 812 1193 1101 1338 1462 1346 1294 1028 962 1190
5548 5436 5154 5018 4805 4563 4400 4302 4123 3914 3570 3236 2805 2745 2700 2488 2324 1944 1963 1955 1752 1601 1488 1287 1200 1244 1389 1270 984 384 0 78 710 1091 982 1425 1429 1208 1183 1315 1452 1344
4980 4794 4528 4368 4226 4201 4121 3913 3775 3749 3634 3360 2824 2521 2119 2026 1969 2037 2032 1884 1750 1659 1470 1472 1440 1548 1493 1084 701 523 472 496 665 986 1282 1421 1104 1001 1053 1167 1295 1391
4538 4456 4368 4227 3997 3893 3788 3703 3568 3531 3466 3357 3057 2532 2249 2077 2037 2008 2045 2036 1959 1841 1842 1676 1650 1429 1232 980 919 832 712 528 837 1060 1146 1020 921 1086 1579 1775 1193 1283
4518 4446 4355 4112 3755 3659 3510 3478 3330 3401 3328 3260 2994 2740 2547 2221 2217 2071 1798 1556 1324 1101 916 825 796 1350 894 887 768 477 403 774 790 757 909 960 1116 1608 1371 1396 1215 1014
4430 4196 3972 3762 3478 3250 3208 3217 3221 3133 3051 2653 2581 2499 2441 2244 2069 1816 1512 1230 1031 969 1687 770 708 1566 949 595 579 541 481 797 864 953 996 1062 1181 1230 1473 870 893 869

ECMWFNIL_con_mucape_015.txt.gz
CAPE
3155 3048 3036 2764 2599 2200 2170 1958 2128 2120 2133 2050 2313 2013 2163 1782 1749 1762 1506 1447 1451 1162 524 296 101 40 193 8 203 274 77 2 128 0 36 19 6 15 20 8 18 37
3204 3100 3005 2813 2689 2206 2388 2072 2066 2289 2246 2103 2193 2141 2176 1818 1846 1774 1617 1472 1274 484 43 124 214 220 52 0 6 163 141 20 154 24 0 130 1 0 3 9 84 446
3267 3175 3043 2907 2743 2438 2501 2336 2161 2372 2305 2312 2158 2206 2094 1953 1838 1730 1596 1318 999 491 257 57 220 214 34 1 0 29 98 15 45 11 0 7 22 16 38 97 18 8
3326 3293 3180 3010 2810 2524 2501 2603 2345 2451 2310 2375 2191 2200 1786 2022 1654 1686 1528 1287 764 397 247 96 165 194 55 16 2 0 10 50 15 13 98 32 196 14 34 59 270 225
3366 3337 3261 3109 2892 2576 2504 2641 2466 2547 2386 2357 2293 2157 1969 1675 1569 1476 1382 1098 728 520 390 211 125 167 86 51 1 13 18 14 56 30 139 106 66 153 66 155 138 56
3359 3339 3289 3178 2947 2720 2544 2507 2512 2524 2439 2376 2315 2218 2012 1517 1388 1295 1355 1089 915 633 378 306 193 146 93 114 36 8 66 18 19 38 58 184 152 248 282 105 110 50
3332 3282 3280 3162 2990 2828 2553 2520 2550 2471 2415 2245 2251 2235 1991 1720 1363 1231 1200 1104 780 486 402 319 311 170 100 86 166 12 44 82 44 62 56 108 210 177 202 98 18 7
3346 3238 3209 3109 2960 2866 2638 2528 2524 2498 2405 2204 2019 2116 1940 1712 1468 1250 1050 798 584 460 365 316 418 229 121 41 166 94 51 132 58 53 78 101 62 50 41 34 168 100
3390 3269 3152 3022 2916 2900 2733 2600 2496 2451 2364 2230 2013 1900 1769 1596 1456 1275 1005 787 642 550 440 324 382 272 166 62 54 151 102 130 133 114 61 45 47 8 11 16 20 45
3391 3324 3164 2979 2874 2942 2840 2660 2568 2436 2322 2164 2139 1988 1811 1703 1492 1378 1229 1004 836 710 583 400 302 287 223 117 68 89 93 85 76 130 263 132 39 31 22 26 16 49
3372 3340 3205 2995 2862 2864 2884 2709 2558 2501 2409 2198 2133 2107 1982 1791 1664 1491 1352 1164 994 854 692 565 467 344 344 201 137 102 67 52 48 37 93 281 118 65 264 168 201 136
3362 3331 3254 3088 2918 2811 2798 2734 2525 2463 2489 2378 2130 2050 1989 1883 1716 1561 1462 1285 1096 957 784 624 549 440 306 290 219 172 103 58 40 30 34 65 73 44 122 200 223 277
3374 3336 3299 3158 2995 2853 2702 2601 2469 2366 2404 2458 2322 2094 1929 1840 1721 1700 1597 1476 1270 1073 893 718 604 498 346 258 272 234 185 110 76 69 94 148 178 110 106 188 218 208
3392 3328 3301 3225 3053 2880 2700 2521 2397 2302 2296 2333 2350 2201 1984 1815 1743 1784 1759 1624 1487 1274 1080 911 760 603 432 276 239 354 289 211 174 179 168 244 340 366 324 303 348 402
3328 3341 3330 3260 3135 2926 2703 2521 2338 2191 2204 2244 2242 2192 2024 1850 1744 1803 1876 1811 1676 1489 1298 1120 953 766 557 385 252 254 291 270 222 224 182 236 305 395 472 474 456 402
3204 3277 3350 3368 3240 3048 2826 2597 2379 2163 2079 2168 2150 2110 2013 1869 1720 1800 1896 1927 1848 1698 1499 1307 1133 938 706 475 374 290 210 214 356 353 348 321 224 287 354 364 295 279
3167 3181 3226 3339 3388 3258 3030 2793 2565 2324 2176 2200 2235 2130 2002 1849 1714 1867 1955 1981 1934 1841 1684 1502 1297 1077 845 616 484 240 153 64 64 175 320 110 214 330 402 420 366 401
3334 3288 3239 3220 3325 3384 3269 3019 2778 2589 2394 2291 2375 2388 2252 2034 1794 1959 2100 2082 2009 1912 1784 1619 1449 1260 1017 776 554 312 234 104 21 35 82 171 368 465 485 485 459 470
3670 3588 3524 3405 3351 3404 3419 3287 3067 2838 2638 2453 2420 2590 2486 2374 2166 2239 2297 2225 2110 2002 1860 1737 1589 1441 1257 1026 779 535 439 247 61 165 216 262 482 612 601 532 449 478
3992 3954 3924 3823 3691 3625 3566 3472 3304 3127 2927 2703 2444 2663 2702 2618 2463 2342 2342 2282 2196 2098 1987 1866 1738 1609 1448 1274 996 734 557 415 287 221 551 557 541 545 733 664 578 508
4088 4146 4197 4144 4010 3868 3735 3613 3498 3364 3181 2958 2729 2720 2639 2615 2579 2493 2436 2336 2246 2163 2076 1978 1878 1787 1632 1403 1117 835 800 577 430 371 742 814 635 763 776 749 714 608
4055 4197 4287 4293 4206 4051 3893 3740 3593 3472 3282 3071 2876 2836 2720 2554 2435 2508 2504 2424 2336 2234 2148 2050 1915 1780 1622 1406 1209 1193 1060 865 675 578 825 1015 960 924 838 770 787 733
3993 4228 4340 4353 4291 4196 4030 3855 3669 3482 3311 3102 2868 2881 2776 2636 2522 2409 2373 2323 2244 2146 2046 1956 1808 1615 1314 1255 1250 1232 1103 952 860 855 842 1034 1039 887 850 898 836 641
3988 4250 4362 4373 4320 4250 4119 3964 3781 3550 3367 3171 2994 2834 2798 2715 2624 2552 2448 2331 2212 2106 1958 1737 1585 1540 1426 1410 1446 1472 1446 1400 1299 1088 924 775 953 907 826 842 776 1284
4349 4386 4399 4394 4343 4282 4147 3999 3846 3704 3499 3256 3040 2845 2753 2648 2558 2500 2418 2296 2141 2122 2063 1908 1739 1800 1819 1816 1723 1584 1280 918 840 703 700 561 875 994 932 910 803 1193
4550 4496 4445 4410 4397 4344 4238 4128 3980 3839 3673 3498 3309 3066 2895 2760 2672 2552 2452 2404 2376 2264 2093 1986 1964 1778 1468 1143 735 614 537 512 412 312 396 633 806 893 928 958 817 864

ECMWFNIL_con_mucape_018.txt.gz
CAPE
1820 1956 2094 2069 2060 2055 2119 2201 2210 2267 2263 2195 2047 1898 1815 1941 2007 1909 1744 1617 1469 1292 1171 939 703 46 84 14 18 25 17 17 24 0 0 0 0 0 0 0 0 0
1984 2031 2132 2104 2043 2042 2057 2115 2130 2195 2241 2101 1824 1774 1872 1922 1934 1848 1608 1520 1419 1204 970 696 392 10 28 3 0 3 0 0 0 0 0 0 0 0 0 0 0 0
2182 2194 2196 2170 2103 2073 2050 2050 2027 2104 2140 1930 1738 1799 1850 1839 1842 1803 1623 1505 1448 1096 902 655 269 1 0 0 0 2 0 0 0 0 0 0 0 0 0 0 0 2
2240 2330 2323 2264 2142 2088 2050 2052 2099 2136 2053 1830 1733 1783 1750 1804 1766 1691 1587 1521 1497 1106 886 811 582 0 0 0 0 0 0 0 0 0 0 0 0 0 0 0 0 0
2224 2375 2406 2393 2274 2142 2057 2030 2045 2068 1956 1755 1693 1761 1744 1743 1720 1672 1584 1562 1478 1191 909 802 676 0 0 0 0 0 0 0 0 0 0 0 0 2 0 0 13 6
2300 2395 2451 2461 2422 2281 2118 2065 2036 2007 1914 1659 1687 1772 1726 1729 1681 1647 1605 1582 1431 1194 935 738 521 5 0 0 0 0 0 0 0 0 0 0 0 0 0 0 0 0
2447 2510 2541 2515 2490 2402 2266 2131 2066 2006 1892 1682 1712 1757 1744 1728 1685 1640 1612 1532 1398 1141 935 906 612 13 0 0 0 0 0 0 0 0 0 0 0 0 0 0 0 0
2558 2599 2646 2628 2574 2504 2414 2274 2162 2023 1906 1757 1807 1777 1779 1757 1726 1672 1646 1533 1375 1124 898 595 1 11 0 0 0 0 0 0 0 0 0 0 1 4 5 10 1 0
2674 2684 2704 2710 2651 2575 2488 2377 2263 2181 2046 1880 1838 1845 1830 1778 1775 1723 1675 1602 1489 1142 799 569 2 1 1 0 0 0 0 0 0 0 0 0 2 9 14 13 6 2
2776 2787 2767 2762 2738 2653 2548 2429 2291 2250 2166 1970 1898 1892 1864 1803 1725 1729 1742 1698 1549 1340 1084 835 593 34 343 23 2 0 0 0 0 0 0 0 0 2 4 5 8 6
2801 2838 2820 2816 2798 2749 2661 2538 2380 2275 2234 2111 1997 1954 1958 1903 1791 1655 1593 1573 1508 1367 1194 1060 806 620 545 232 8 2 0 0 0 0 0 0 0 0 30 0 0 2
2783 2817 2839 2852 2836 2808 2728 2626 2488 2330 2242 2179 2112 2030 2018 2003 1933 1796 1627 1456 1414 1346 1258 1109 897 748 623 414 1 3 0 0 0 0 0 0 0 0 3 0 0 0
2816 2821 2829 2821 2816 2803 2744 2655 2551 2405 2272 2212 2158 2074 2010 2024 2010 1936 1790 1654 1455 1318 1223 1084 925 804 646 486 379 192 6 0 0 0 0 0 3 0 0 2 4 4
2897 2894 2868 2828 2787 2757 2708 2629 2566 2456 2305 2224 2199 2129 2040 1981 2000 1984 1886 1756 1633 1501 1361 1217 1026 844 705 604 539 453 303 66 0 0 0 0 10 9 8 15 18 20
2990 2946 2920 2877 2817 2743 2667 2594 2531 2458 2332 2234 2190 2167 2124 2053 1950 1905 1872 1794 1682 1595 1464 1322 1155 1008 865 764 702 637 486 299 35 4 3 1 2 6 6 8 22 40
3045 3006 2960 2920 2873 2780 2682 2595 2510 2460 2367 2249 2211 2177 2140 2114 2042 1930 1819 1744 1673 1594 1509 1420 1299 1168 1046 939 856 773 640 438 272 5 4 3 58 80 94 82 50 52
3066 3053 3009 2969 2920 2842 2747 2626 2510 2428 2376 2291 2225 2203 2168 2110 2046 2016 1944 1859 1784 1696 1616 1556 1476 1355 1220 1115 1014 940 831 670 478 319 287 348 376 381 350 246 131 74
3084 3065 3046 3006 2960 2901 2813 2697 2548 2394 2320 2300 2248 2223 2224 2183 2108 2050 2013 1978 1937 1866 1777 1679 1598 1492 1408 1299 1189 1092 1005 877 720 577 467 444 460 478 488 403 222 104
3107 3076 3068 3038 3002 2952 2870 2751 2619 2447 2306 2239 2231 2225 2260 2262 2232 2143 2085 2025 1977 1934 1889 1817 1730 1628 1544 1466 1368 1288 1181 1071 958 845 748 649 636 584 498 373 242 190
3162 3110 3083 3068 3028 2972 2909 2819 2683 2551 2392 2257 2198 2202 2207 2246 2254 2244 2188 2121 2048 1994 1954 1901 1856 1794 1735 1644 1557 1452 1355 1265 1205 1110 1035 863 742 653 484 334 268 256
3189 3153 3120 3096 3044 2998 2944 2866 2772 2656 2513 2374 2256 2203 2191 2236 2279 2270 2236 2172 2099 2040 2002 1972 1954 1934 1890 1805 1710 1623 1540 1482 1422 1350 1166 989 701 641 473 433 352 360
3204 3176 3141 3093 3057 3008 2967 2918 2853 2751 2642 2507 2394 2307 2248 2217 2218 2248 2268 2233 2189 2140 2071 2004 1972 1969 1954 1860 1847 1797 1742 1684 1591 1541 1341 1016 898 762 647 584 477 424
3260 3187 3124 3076 3027 2987 2961 2954 2931 2889 2816 2703 2601 2497 2413 2344 2312 2345 2326 2321 2310 2295 2298 2326 2332 2267 2150 2058 2006 1894 1880 1818 1752 1623 1393 1153 1029 806 695 555 470 442
3360 3300 3220 3130 3056 2994 2936 2943 2993 3021 3032 2975 2876 2776 2693 2642 2591 2515 2495 2510 2517 2550 2541 2503 2458 2387 2314 2249 2130 2036 2006 1906 1758 1563 1282 1108 931 812 662 533 461 919
3375 3423 3371 3281 3201 3145 3034 3017 3051 3096 3132 3139 3128 3062 2995 2950 2908 2864 2805 2732 2673 2613 2596 2547 2562 2492 2376 2275 2216 2107 2024 1817 1664 1462 1247 1111 962 907 706 832 935 1290
3218 3481 3559 3522 3451 3374 3260 3228 3213 3192 3195 3199 3234 3239 3216 3170 3138 3129 3123 3070 2980 2855 2766 2603 2491 2415 2283 2244 2079 1967 1802 1703 1624 1435 1304 1177 1054 891 841 943 1083 1148

ECMWFNIL_con_mucape_021.txt.gz
CAPE
1234 1262 1348 1355 1350 1420 1558 1680 1743 1805 1908 2006 2065 2150 2262 2364 2438 2430 2476 2517 2542 2434 2339 2143 1555 706 500 482 445 62 19 12 4 0 0 0 0 0 0 0 0 0
1349 1346 1480 1518 1482 1492 1566 1681 1796 1846 1891 1968 2053 2099 2146 2176 2273 2325 2434 2536 2577 2423 2230 1789 1112 568 479 430 370 7 9 14 4 0 0 0 0 0 0 0 0 0
1452 1439 1488 1604 1613 1598 1615 1689 1811 1882 1910 1957 1992 2012 2040 2064 2186 2332 2406 2428 2346 2227 2029 1372 798 542 479 459 178 10 5 0 0 0 0 0 0 0 0 0 0 0
1538 1536 1531 1590 1654 1671 1681 1708 1784 1866 1928 1950 1960 1948 1965 2028 2101 2204 2266 2226 2090 2045 1857 1368 754 530 445 486 233 2 1 0 0 0 0 0 0 0 0 0 0 0
1627 1619 1605 1598 1638 1664 1706 1747 1790 1837 1886 1923 1965 1988 1994 2022 2026 2016 2008 1987 1986 1953 1741 1435 907 672 647 716 589 0 0 0 0 0 0 0 0 0 0 0 0 0
1680 1668 1641 1624 1635 1659 1689 1724 1771 1807 1849 1886 1942 1972 2008 2022 1942 1825 1826 1874 1932 1868 1666 1531 1131 918 909 954 803 254 0 0 0 0 0 0 0 0 0 0 0 0
1721 1719 1709 1678 1670 1709 1724 1735 1760 1774 1797 1826 1859 1915 1964 2011 1960 1731 1756 1844 1869 1788 1655 1568 1388 1114 1038 925 583 0 0 0 0 0 0 0 0 0 0 0 0 0
1709 1757 1799 1796 1801 1812 1809 1812 1803 1800 1808 1813 1814 1847 1906 1965 1968 1783 1725 1751 1761 1701 1642 1591 1487 1258 1031 819 681 338 0 0 0 0 0 0 0 0 0 0 0 0
1754 1764 1819 1896 1934 1941 1934 1912 1881 1870 1847 1839 1817 1829 1876 1959 1981 1808 1696 1669 1642 1621 1603 1564 1551 1400 1107 882 788 607 77 0 0 0 0 0 0 0 0 0 0 0
1921 1877 1854 1920 1985 2030 2056 2045 1992 1938 1904 1859 1840 1828 1914 1973 1998 1858 1695 1646 1609 1585 1565 1537 1536 1446 1178 848 809 759 558 20 0 0 0 0 0 0 0 0 0 0
2105 2030 1982 1954 2003 2058 2099 2122 2105 2041 1973 1925 1862 1839 1878 1939 1930 1885 1705 1654 1639 1611 1559 1501 1487 1396 1084 771 722 772 624 351 178 0 0 0 0 0 6 0 0 0
2197 2147 2090 2045 2056 2093 2117 2154 2180 2139 2073 2010 1930 1887 1912 1923 1937 1905 1808 1689 1658 1627 1573 1521 1453 1301 967 637 615 671 610 451 386 258 0 0 0 0 0 0 0 0
2240 2225 2178 2154 2173 2184 2198 2213 2230 2216 2165 2120 2044 1985 1959 1964 1970 1932 1874 1736 1700 1651 1631 1579 1476 1359 1080 789 661 687 645 478 416 371 0 208 160 0 0 0 0 0
2275 2277 2265 2268 2271 2298 2314 2336 2319 2292 2260 2217 2179 2128 2080 2034 2008 1963 1918 1830 1736 1708 1684 1646 1539 1427 1338 1171 941 742 596 482 464 496 255 265 288 83 0 0 0 0
2309 2336 2361 2370 2380 2400 2420 2436 2428 2409 2357 2292 2247 2243 2213 2208 2172 2077 1998 1904 1786 1770 1765 1731 1672 1542 1469 1385 1268 1066 885 744 632 642 549 357 343 234 0 0 0 0
2366 2411 2444 2455 2490 2505 2514 2520 2519 2509 2453 2373 2307 2265 2258 2251 2230 2192 2116 1994 1869 1820 1829 1834 1825 1742 1602 1525 1437 1300 1158 1045 902 800 731 515 452 355 203 0 0 0
2457 2493 2507 2546 2569 2588 2614 2612 2602 2575 2534 2478 2393 2329 2304 2301 2284 2258 2207 2143 2044 1949 1904 1907 1906 1858 1743 1626 1536 1450 1338 1250 1114 959 840 690 632 518 360 234 162 313
2581 2582 2588 2615 2625 2657 2662 2672 2655 2631 2595 2552 2494 2428 2389 2366 2341 2299 2286 2248 2181 2118 2060 2013 1964 1910 1845 1760 1655 1568 1498 1462 1381 1214 1051 937 876 783 618 454 397 325
2701 2705 2706 2699 2710 2706 2708 2692 2687 2662 2629 2586 2543 2483 2419 2416 2392 2331 2328 2306 2245 2179 2140 2122 2065 1988 1934 1855 1777 1725 1660 1624 1558 1429 1296 1209 1132 1037 882 700 553 339
2837 2848 2837 2821 2796 2778 2751 2741 2709 2668 2626 2580 2529 2475 2452 2428 2408 2369 2341 2305 2258 2196 2167 2132 2102 2085 2026 1949 1863 1787 1744 1695 1636 1569 1496 1436 1347 1264 1135 937 868 734
2970 2963 2954 2936 2906 2871 2844 2816 2770 2715 2641 2577 2503 2464 2453 2431 2374 2356 2336 2294 2251 2223 2180 2156 2111 2091 2058 2000 1931 1856 1800 1770 1756 1711 1680 1607 1526 1455 1342 1240 1006 859
3042 3039 3041 3024 2993 2963 2940 2908 2858 2790 2715 2617 2525 2463 2432 2386 2353 2320 2286 2233 2211 2210 2193 2172 2139 2115 2097 2054 1994 1970 1951 1932 1915 1887 1849 1679 1618 1534 1493 1433 1177 1064
3076 3092 3099 3078 3049 3024 3004 2980 2934 2872 2793 2684 2587 2497 2430 2397 2361 2324 2264 2229 2224 2205 2205 2191 2177 2175 2166 2142 2118 2092 2078 2049 1984 2034 1982 1882 1771 1759 1740 1488 1288 1252
3111 3119 3122 3088 3075 3062 3043 3024 2986 2936 2848 2760 2684 2562 2460 2394 2328 2286 2268 2249 2238 2237 2236 2251 2261 2273 2262 2250 2230 2218 2195 2168 2321 2325 2207 1998 1933 1721 1632 1707 1622 1402
3089 3129 3127 3121 3108 3098 3070 3040 3007 2968 2904 2838 2766 2646 2528 2425 2325 2256 2207 2189 2215 2249 2301 2323 2328 2342 2342 2360 2348 2316 2288 2476 2519 2252 2100 2066 2056 1895 1891 1900 1866 1546
3022 3106 3152 3163 3154 3131 3089 3046 3008 2963 2930 2888 2827 2746 2643 2530 2377 2280 2177 2136 2144 2205 2272 2344 2377 2411 2424 2427 2402 2599 2674 2682 2581 2370 2247 2144 1889 1826 1973 1942 1786 1633

ECMWFNIL_con_mucape_027.txt.gz
CAPE
2480 2385 2208 2120 2103 2038 2156 2274 2285 2380 2626 2567 2804 2910 3153 3579 3455 3263 3069 2881 2810 2746 2697 2661 2695 2853 2734 2906 2380 2458 2479 2433 2294 2059 1695 1249 1125 948 951 841 844 728
2404 2351 2203 2141 2092 2102 2228 2284 2322 2365 2662 2782 2760 2985 3410 3654 3535 3350 3242 3117 2944 2779 2860 2598 2786 2698 2768 2904 2376 2324 2196 2296 2333 1880 1659 1451 1319 1162 910 984 931 760
2330 2296 2210 2087 2022 1982 1715 1965 2214 2411 2491 2582 2670 2976 3222 3417 3521 3372 3270 3140 2992 2854 2788 2702 2640 2776 2583 2660 2650 2279 2399 2281 2220 1926 1634 1499 1277 1132 1063 652 870 948
2271 2272 2110 1961 1944 1942 1876 2005 2163 2236 2178 2408 2560 2635 2775 2919 3199 3313 3262 2970 3030 3020 2914 2773 2654 2591 2708 2427 2414 2421 2388 2357 2205 1958 1579 1465 1400 1170 1081 948 736 791
2232 2217 2115 2071 2031 2087 2114 2096 1962 2066 2087 2191 2406 2536 2774 2948 3130 3091 2922 2724 2572 2864 2927 2806 2466 2616 2664 2557 2445 2429 2272 2208 2068 1947 1591 1447 1444 1262 1106 1007 881 782
2187 2232 2226 2208 2181 2248 2128 2033 2000 1983 2102 2018 2337 2450 2579 2815 2912 2890 2836 2579 2474 2650 2798 2735 2629 2425 2544 2467 2397 2244 2284 2060 1994 1867 1389 1362 1248 1120 931 952 906 844
2137 2152 2154 2149 2154 2202 2141 2061 2093 2158 2136 2155 2444 2420 2458 2649 2790 2868 2860 2699 2673 2806 2895 2908 2753 2488 2406 2408 2275 2286 2308 2088 1965 1638 1416 1353 1347 1255 891 926 899 847
1944 1933 1996 1989 2017 2048 2139 2128 2137 2227 2278 2341 2418 2554 2552 2535 2748 2861 2898 2838 2814 2965 3062 3047 2868 2410 2272 2258 2186 2217 2234 2037 2042 1720 1416 1361 1347 1295 1146 867 872 865
1920 2007 2030 2038 1959 1952 1948 1956 2098 2186 2237 2390 2325 2288 2580 2497 2738 2744 3006 3132 2958 2954 3000 3078 2870 2430 2473 2088 2285 2254 2187 1934 1938 1728 1374 1338 1286 1228 1188 1055 880 830
2092 2051 1913 1865 1826 1850 1856 1841 1882 2053 2257 2325 2264 2177 2515 2547 2674 2779 3032 3188 3049 2920 2897 3022 2790 2229 2345 2121 2335 2246 2164 1969 1808 1650 1402 1319 1285 1218 1118 1161 974 918
1934 1958 1933 1878 1814 1781 1820 1805 1828 1925 2072 2123 2167 2208 2436 2630 2692 2788 2991 3120 3063 3167 3110 2830 2558 2438 2298 2229 2244 2160 2121 1996 1795 1620 1414 1356 1312 1286 1069 1230 1090 960
2032 1888 1856 1880 1826 1841 1838 1845 1862 1947 2089 2145 2145 2254 2464 2580 2724 2764 2810 3008 3014 3059 3048 2897 2684 2580 2440 2550 2211 2034 1939 1943 1800 1634 1423 1369 1307 1291 1242 1160 1115 1025
2018 2009 2031 1967 2041 2008 1998 2001 1967 1990 2085 2190 2172 2256 2405 2577 2685 2797 2775 2902 3010 2983 3047 3148 2838 2505 2632 2693 2367 2060 1944 1915 1791 1680 1458 1377 1298 1235 1165 1122 1032 1018
2134 2268 2293 2278 2248 2284 2274 2192 2172 2145 2227 2320 2383 2352 2408 2549 2647 2771 2860 2789 2908 2922 2980 3000 2838 2700 2800 2742 2462 2126 1941 1879 1773 1641 1528 1398 1269 1214 1092 992 943 866
2371 2449 2582 2556 2498 2534 2480 2419 2433 2442 2462 2510 2570 2505 2473 2567 2635 2712 2822 2776 2738 2858 2844 2699 2397 2668 2737 2630 2522 2281 2061 1853 1763 1606 1529 1362 1270 1130 1030 852 874 813
2740 2775 2858 2841 2696 2782 2827 2708 2653 2698 2644 2739 2842 2667 2648 2633 2637 2710 2687 2742 2700 2783 2792 2533 2192 2230 2270 1899 1903 2326 2162 1898 1684 1625 1510 1430 1246 1099 986 904 802 786
2709 2750 2708 2778 2850 2892 2827 2799 2844 2830 2818 2903 2844 2783 2675 2715 2712 2689 2593 2632 2674 2644 2506 2324 2071 2046 1960 1732 1651 1616 1967 1994 1797 1622 1517 1441 1309 1167 1057 946 865 790
2723 2854 2866 2834 2858 2855 2903 2876 2840 2830 2864 2890 2823 2824 2836 2756 2698 2698 2750 2578 2562 2602 2608 2378 2128 1966 1918 1706 1618 1605 1556 1867 1853 1687 1562 1448 1351 1253 1130 1037 905 858
3006 2994 2964 2973 2930 2854 2890 2908 2940 2937 2953 2943 2894 2897 2801 2818 2758 2601 2659 2571 2499 2555 2241 2190 2318 1963 1860 1678 1617 1596 1604 1619 1814 1759 1732 1491 1380 1320 1238 1120 1096 950
3075 2971 3005 3094 3067 2997 2974 2980 2939 2958 2922 2927 2913 2960 2918 2734 2533 2582 2624 2479 2450 2260 2245 2387 2460 2094 1896 1684 1634 1610 1630 1669 1687 1733 1788 1736 1537 1391 1314 1259 1196 1056
3266 3181 3207 3202 3254 3181 3096 3020 2978 2970 2985 2904 2828 2852 2848 2756 2570 2394 2391 2560 2401 2361 2444 2282 2364 2096 1958 1733 1668 1617 1619 1641 1682 1704 1757 1814 1759 1626 1474 1438 1418 1346
3220 3299 3342 3344 3255 3187 3140 3104 3107 3173 3133 3056 2844 2752 2748 2800 2501 2464 2557 2579 2486 2546 2303 2266 2470 2060 1897 1787 1710 1664 1609 1622 1676 1734 1787 1832 1826 1771 1661 1578 1556 1571
3196 3275 3344 3342 3323 3293 3204 3184 3221 3286 3288 3111 2900 2803 2705 2538 2623 2724 2717 2732 2714 2350 2303 2263 2458 2248 1935 1812 1748 1696 1663 1638 1656 1711 1795 1842 1836 1812 1760 1704 1672 1714
3346 3370 3357 3358 3365 3331 3308 3254 3240 3363 3297 3182 3083 2949 2616 2772 2605 2531 2754 2735 2448 2419 2352 2368 2571 2511 2065 1887 1788 1724 1685 1686 1697 1729 1772 1834 1836 1813 1818 1802 1774 1831
3512 3515 3500 3486 3524 3470 3378 3398 3360 3377 3322 3211 3125 3087 2974 3010 2699 2593 2715 2501 2542 2578 2408 2304 2684 2535 2246 1976 1872 1803 1740 1701 1716 1744 1826 1848 1866 1882 1875 1879 1875 1905
3197 3533 3615 3500 3568 3505 3478 3466 3425 3315 3405 3356 3238 3080 2994 2926 2640 2796 2772 2583 2543 2706 2496 2386 2391 2724 2349 2280 2037 1964 1897 1851 1834 1847 1883 1886 1884 1969 1955 1922 1946 1983

ECMWFNIL_con_mucape_030.txt.gz
CAPE
3418 3498 3546 3445 3403 2987 2900 3050 2975 3042 3110 2795 2974 3163 3066 3370 3362 3211 3550 3685 4100 3867 3653 3679 3755 3654 3441 3393 3288 3136 2912 2992 2793 2465 2440 1974 1811 1459 655 818 903 903
3504 3746 3652 3469 3448 3290 3072 3128 3243 3108 3315 3219 3006 3084 3447 3459 3776 3543 3740 3793 4047 3807 3576 3468 3502 3348 3392 3187 3385 3145 3039 2912 3010 2527 2204 2182 1961 1586 726 924 969 1020
3435 3388 3323 3176 3294 3504 3031 3101 3294 3280 3085 3321 3138 3170 3451 3599 3961 3938 4051 3905 3742 3534 3669 3723 3667 3574 3366 3577 3599 3313 3164 3210 3015 2274 2138 2150 2020 1770 907 770 883 1056
3300 3442 3279 3053 3494 3587 3253 3088 3313 3374 3102 3117 3218 3089 3100 3424 3828 4239 4167 3961 3781 3665 3516 3593 3330 3338 3350 3440 3675 3504 2986 3040 2946 2532 2228 2240 2314 1997 1171 711 820 1115
3627 3504 3385 3488 3726 3484 3522 3269 3086 3252 3218 3080 3159 3184 3290 3402 3955 4128 4080 4139 3859 3923 3752 3688 3532 3206 3409 3441 3464 3241 3031 2803 2932 3002 2870 2389 2319 2170 1402 836 758 927
3523 3288 3443 3476 3480 3528 3377 3390 3292 3196 3249 2915 3054 3100 3248 3522 3698 3813 3908 3879 3913 3644 3228 3485 3315 3046 3202 3356 3415 3195 2996 2679 2555 3200 3058 2556 2400 2185 1453 1070 1108 999
3569 3605 3428 3312 3664 3532 3499 3481 3337 3129 3106 3078 3106 3180 3230 3438 3734 3688 3641 3870 3604 3544 3351 3428 3392 3170 3228 3409 3395 3232 3103 3049 2872 2618 2687 2308 2572 2348 1530 1155 1438 1172
3449 3536 3538 3709 3595 3539 3398 3384 3322 3209 3262 3312 3132 3263 3388 3352 3728 3719 3542 3771 3468 3505 3557 3430 3565 3401 3226 3259 3410 3156 3030 3034 2972 2705 2716 2608 2609 2537 1995 1439 1584 1364
3388 3523 3563 3518 3358 3274 3131 3123 3238 3304 3220 3210 3081 3000 3404 3413 3580 3623 3618 3693 3746 3600 3638 3567 3734 3392 3296 3288 3352 3305 3232 3272 3150 2949 2722 2580 2534 2682 2360 1817 1622 1493
3357 3286 3197 3291 3186 3123 3010 3020 3046 3213 3262 3176 3067 2925 3198 3472 3401 3630 3756 3993 3993 3741 3788 3891 4012 3457 3234 3236 3389 3492 3520 3675 3500 3146 3059 2915 2938 2946 2412 2037 1756 1611
3085 3113 3026 3138 3047 2991 2945 2986 2969 2950 3104 3103 3084 2982 2924 3451 3452 3566 3764 4000 3997 3904 3918 4088 4038 3704 3238 3018 3230 3446 3740 3824 3838 3797 3636 3586 3376 3028 2366 2266 1965 1618
3010 2909 2787 3005 2859 2910 2757 2798 2730 2703 2852 3081 3101 3052 3056 3186 3614 3555 3655 4002 4103 4042 4007 4050 4122 3726 3245 3120 2959 3170 3698 3917 4105 4054 3760 3639 3396 3034 2617 2297 2101 1794
2862 2949 2920 2724 2898 2775 2726 2592 2575 2483 2550 2879 3044 3068 3072 3071 3430 3794 3664 3904 4228 4174 4142 4252 4140 3750 3494 3251 3211 3355 3710 4023 3892 4021 3658 3538 3390 3016 2682 2364 2110 1981
2813 3062 3120 3004 2910 3058 2913 2773 2795 2678 2753 2790 3032 3102 3042 3115 3251 3740 3820 3779 4057 4186 4192 4211 4161 3800 3541 3354 3177 3252 3503 3990 3978 3860 3651 3525 3330 3080 2736 2357 2136 1986
3094 3147 3110 3148 3024 3159 3157 3049 2954 2986 2979 2882 3073 3254 3154 3156 3181 3560 3892 3844 3871 4056 4124 4090 4042 3898 3517 3164 3070 3130 3276 3504 3917 3777 3656 3524 3359 3115 2905 2540 2252 2067
3274 3252 3418 3386 3281 3352 3411 3255 3174 3218 3055 3126 3164 3274 3397 3272 3316 3488 3680 3822 3786 3901 4006 4058 3968 4054 3287 2685 2578 3159 3396 3345 3650 3811 3689 3511 3474 3234 2994 2766 2472 2205
3511 3548 3700 3697 3588 3482 3599 3556 3339 3262 3332 3342 3253 3397 3546 3500 3410 3478 3542 3701 3752 3790 3830 3912 3914 3838 3202 2775 2532 2560 3125 3508 3542 3831 3794 3610 3468 3428 3175 2940 2753 2536
3834 3856 3897 3954 3853 3702 3751 3763 3582 3538 3484 3453 3484 3501 3726 3593 3484 3574 3688 3581 3666 3714 3678 3779 3928 3455 3112 2733 2445 2407 2636 3276 3379 3608 3630 3618 3515 3391 3306 3069 2894 2743
4196 4172 4250 4188 4129 4015 3948 3904 3853 3662 3692 3628 3479 3614 3679 3753 3789 3656 3696 3664 3567 3768 3631 3679 3780 3310 2888 2688 2555 2463 2488 2734 3602 3633 3450 3418 3390 3400 3350 3260 3077 2871
4419 4220 4276 4273 4337 4206 4128 4102 3966 3892 3796 3773 3700 3741 3680 3766 3600 3514 3558 3680 3565 3558 3754 3740 3760 3327 2948 2562 2320 2264 2402 2411 3015 3465 3444 3352 3370 3359 3355 3307 3276 3064
4377 4230 4296 4383 4403 4352 4227 4193 4076 4042 3933 3775 3667 3762 3724 3591 3513 3262 2962 3456 3278 3124 2931 3550 3608 3250 2968 2566 2305 2248 2254 2264 2602 3049 3391 3381 3388 3379 3356 3284 3311 3218
4320 4253 4160 4028 4088 4210 4196 4180 4138 4133 4060 3985 3704 3643 3658 3556 3567 3571 3275 2971 2860 2748 3060 3134 3028 3018 2792 2590 2468 2362 2264 2164 2300 2796 3112 3298 3393 3320 3274 3288 3290 3300
4301 4096 3958 3957 4126 4197 4088 3999 4062 4164 4126 3988 3816 3655 3630 3716 3722 3337 3119 2942 2902 3161 2963 3162 3194 3134 2637 2441 2491 2477 2374 2269 2212 2440 2807 3129 3201 3006 2911 2943 3049 3225
4168 4052 4079 4158 4242 4292 4228 4082 3971 4038 4034 4039 3961 3715 3531 3688 3632 3627 3383 3196 3076 3136 2744 3152 3238 3137 2815 2615 2530 2465 2408 2285 2235 2316 2554 2781 2982 2737 2681 2723 2711 2438
4107 4144 4257 4298 4258 4263 4188 4216 4039 4068 3948 3995 3917 3816 3631 3562 3437 3376 3348 3329 3149 2879 2775 2792 3237 3136 2862 2820 2599 2492 2413 2308 2386 2349 2531 2644 2856 2688 2617 2688 2749 2455
4060 4296 4376 4399 4413 4338 4387 4330 4131 3990 4080 4010 3971 3779 3762 3634 3300 3271 3418 3362 3142 2782 3066 2773 2830 3434 2827 2861 2814 2636 2430 2341 2558 2156 2559 2655 2753 2678 2787 2737 2608 2688

ECMWFNIL_con_mucape_033.txt.gz
CAPE
3586 3184 3188 2915 2752 2467 2487 2990 3497 3636 3562 2797 2711 2980 2938 2794 2849 2383 2556 2791 3243 3444 3338 3400 3676 3833 3784 3573 3587 3488 3160 3132 2808 2577 2630 2060 1673 1593 1415 855 1060 829
3676 3449 3310 2984 3064 2997 2817 2792 3378 3456 3613 3288 2547 2758 3097 3010 3064 2782 2710 2857 3213 3620 3624 3441 3584 3914 4040 3291 3695 3428 3375 3158 3173 2621 2378 2126 1953 1748 1588 1038 943 1076
3762 3753 3585 3259 2962 3094 2714 2822 3135 3414 3336 3464 2975 2628 2891 3206 3236 3374 3079 3182 3306 3604 3810 3532 3480 3858 3972 3421 3478 3611 3299 3388 3371 2632 2656 1785 1604 1706 1920 1030 805 1095
3887 3648 3642 3389 2956 3161 3170 3021 3140 3415 3302 3340 3301 2695 2467 2875 3322 3534 3608 3602 3621 3698 3701 3631 3312 3382 3704 3582 3525 3433 3240 3494 3358 3160 2502 2249 1989 1868 1902 1302 778 1092
3991 3999 3594 3736 3519 3427 3710 3333 2992 3196 3344 3250 3256 3228 2849 2930 3438 3743 3957 3824 3901 3859 3558 3482 3497 3364 3634 3790 3758 3686 3026 3235 3162 3154 2767 2453 2304 2058 2000 1516 1114 1082
4019 4154 4039 3948 3994 3809 3778 3543 3283 3208 3494 3015 3105 3154 3166 3152 3241 3706 4073 4169 3972 3646 3292 3219 3686 3584 3468 3850 3826 3826 3158 3012 2794 3130 2900 2474 2398 2175 1933 1806 1314 1185
3903 4122 3998 3915 3940 4178 3606 3620 3848 3528 3424 3361 3018 3130 3120 3330 3532 3784 3875 4314 4251 4024 3312 3200 3704 3572 3621 3844 3908 3810 3648 3277 2846 3067 3094 2634 2459 2352 2082 2089 1579 1238
3755 4002 4107 3799 3963 3841 3844 4083 4067 3873 3558 3635 3190 3245 3495 3638 3741 3717 3869 4052 4252 4286 3782 3256 3728 3838 3452 3176 3548 3557 3672 3440 3255 3018 3376 3114 2509 2621 2548 2260 1860 1390
3812 4128 4016 3893 3935 3509 3725 3859 4068 3948 3887 3730 3300 3200 3605 3535 3732 3790 4018 4138 4286 4164 4144 3576 3835 3867 3568 3267 3444 3510 3519 3284 3277 3182 3204 2915 2284 2530 2612 2546 2040 1768
4101 3914 3840 3796 3443 3496 3286 3322 3144 3708 4062 3778 3622 3074 3372 3782 3670 3898 4272 4318 4222 4090 4212 4006 3853 4030 3909 3499 3459 3541 3604 3597 3409 3302 3120 2792 2664 2665 2728 2584 2260 2020
3840 3612 3746 3488 3284 3089 2815 2775 2790 3347 3850 3858 3702 3073 2706 3504 3869 3990 4398 4462 4288 4178 4059 4168 4120 4172 4176 3769 3458 3516 3614 3551 3499 3576 3496 3349 3147 3006 2845 2958 2610 2196
3951 3530 3394 3480 3101 2964 2594 2708 2770 3152 3430 3666 3441 3214 2710 2889 3846 4002 4272 4646 4528 4405 4284 4284 4334 4338 4300 4025 3401 3368 3578 3503 3447 3607 3664 3711 3562 3257 3140 3083 3056 2484
3802 3457 3473 3257 3424 2895 2772 2760 2894 2813 2654 2976 3487 3324 3190 2758 3253 4194 4126 4600 4834 4629 4362 4573 4593 4290 4455 4338 3712 3374 3385 3443 3380 3679 3700 3757 3798 3531 3249 3298 3280 2810
3750 4026 3895 3897 3724 4028 3535 2987 2888 2728 2730 2804 3521 3602 3388 3161 3046 4009 4250 4392 4834 4764 4626 4654 4673 4648 4622 4649 4036 3401 3371 3514 3564 3754 3772 3860 3776 3717 3503 3332 3221 2946
4416 4234 4249 4163 4064 4349 4010 3645 3722 3640 3560 3359 3912 3867 3682 3454 3248 3610 4392 4515 4531 4820 4854 4600 4692 4723 4780 4631 4336 3865 3353 3404 3626 3651 3703 3718 3796 3761 3740 3510 3319 3061
4868 4717 4657 4539 4253 4709 4830 4350 3842 3948 3695 4082 3930 3812 3965 3792 3794 3608 4092 4470 4461 4708 4932 4688 4602 4743 4449 4125 3982 4056 3675 3287 3508 3885 3844 3604 3712 3743 3684 3602 3262 3026
4792 4718 4828 4845 4744 4524 4794 4827 4567 4028 4176 4386 4190 3986 4226 4525 4074 3608 3736 4262 4406 4516 4786 4774 4642 4568 4280 4016 3749 3558 3784 3716 3560 3874 3922 3648 3443 3881 3964 3646 3447 3045
4786 4882 4975 5019 4976 4710 4712 4819 4559 4237 4267 4261 3821 3642 4382 4100 4020 3994 4133 4006 4336 4387 4405 4608 4684 4258 4028 3874 3666 3437 3345 3686 3570 3584 3624 3759 3666 3618 3924 3816 3515 3240
4996 4948 4980 5124 5197 5018 4834 4884 4730 4373 4216 4163 3984 4012 3898 4354 4461 4178 4116 4072 4141 4479 4332 4400 4543 4118 3972 3833 3572 3318 3086 3062 3480 3452 3388 3571 3698 3772 3986 3966 3656 3370
5129 5056 5131 5155 5244 5106 4873 4842 4750 4626 4311 4120 4050 4152 4057 4256 4292 4379 4311 4374 4258 4447 4582 4394 4520 4024 3987 3806 3571 3276 2980 2812 3238 3448 3601 3647 3783 3900 4019 4054 3890 3604
5249 5302 5217 5202 5344 5173 5043 4960 4940 4855 4461 4243 4032 4101 4150 4246 4332 4463 4372 4398 4283 4140 4328 4461 4324 3982 3887 3798 3602 3377 3046 2717 3138 3327 3638 3633 3524 3606 3824 3764 3966 3822
5284 5328 5222 5442 5531 5290 5091 4987 4992 4986 4752 4388 4140 4010 4042 4091 4338 4358 4404 4324 4290 4301 4238 4187 4042 3646 3738 3762 3626 3366 3116 2839 3043 3464 3493 3511 3734 3821 3875 4062 3990 4021
5142 5322 5454 5568 5574 5332 5095 4971 4918 5044 4910 4645 4254 3972 4056 4156 4276 4288 4477 4504 4560 4402 3894 3680 3968 3809 3507 3586 3618 3516 3198 2881 2965 3351 3443 3497 3760 3979 4036 3932 3889 3810
5202 5390 5507 5482 5561 5438 5164 5043 4958 5002 4981 4646 4452 4041 3840 4128 4221 4362 4403 4226 3946 3858 3721 3988 3997 3777 3389 3307 3426 3519 3409 3165 3027 3354 3510 3646 3749 3869 3853 3882 3859 3318
5124 5342 5431 5446 5528 5499 5240 5201 4976 5019 4981 4799 4512 4256 3970 4040 4106 4280 4340 4216 3858 3782 3650 3691 3756 3656 3441 3290 3173 3342 3391 3296 3211 3420 3530 3758 3572 3621 3706 3764 3856 3422
5069 5553 5520 5437 5484 5526 5379 5245 5045 4817 4872 4841 4697 4437 4264 3975 3784 3911 4153 4279 4260 4026 3881 3354 3596 3973 3324 3366 3264 3126 3174 3266 3507 3543 3427 3438 3489 3172 3052 3472 3551 3804

ECMWFNIL_con_mucape_036.txt.gz
CAPE
3543 3616 3436 3065 2775 2460 2423 3155 3576 3505 3571 3292 3380 3318 3135 3347 3198 2978 2871 3498 3825 3738 3739 4256 4379 4567 4343 4223 4234 4291 3894 3526 3084 3703 3521 2983 2449 1757 1281 982 865 771
3526 3697 3410 3120 2875 2681 2712 2783 3548 3798 3978 3950 3460 3561 3649 3678 3417 3316 3200 3314 3775 3698 3757 3996 4348 4424 4280 3952 4271 4065 4353 4047 3702 3155 3270 3204 2646 1783 1620 1292 1182 882
3498 3481 3475 3116 2761 2846 2240 2661 3151 3978 4228 4072 3805 3867 3901 3686 3524 3339 3576 3320 3543 3367 3928 3762 4082 4403 4397 4188 4343 4135 4132 4120 3616 2528 3120 3104 2491 2136 1901 1253 1074 1311
3509 3444 3179 2887 2661 2603 2339 2383 2686 3450 3654 4033 3629 3267 3314 3040 3219 3463 3368 3637 3432 3509 3770 3874 3695 3949 4391 4377 4355 4183 4015 4132 3700 3462 3271 3259 2721 2227 2086 2148 1162 1082
3576 3482 3090 2906 2737 2663 2451 2271 2143 2764 3126 3288 3725 3382 3030 3408 3616 3529 3492 3567 3712 3781 4056 4002 3974 3895 4365 4427 4252 4185 3888 4044 3849 3983 3622 3324 2941 2506 2350 2191 1957 1183
3539 3391 3386 3035 2869 3035 2846 2550 2419 2343 2678 2592 3507 3564 3257 3245 3920 3459 3670 3508 3535 3522 3463 3939 3998 3699 4219 4397 4250 4075 3727 3534 3665 4076 3825 3500 2832 2317 2064 2327 2286 1683
3740 3681 3429 3301 3223 2946 2983 2907 2750 2586 2872 2909 3256 3419 3379 3049 3213 3513 3757 3813 3296 3198 3378 3682 3936 3662 3729 4106 4195 4084 3951 3631 3483 4060 3828 3600 3144 2438 2017 2356 2371 1954
3458 3596 3524 3178 3091 2827 2915 2965 3112 2994 3098 3395 3287 3413 3501 3202 3032 3083 3812 4183 3920 3708 3768 4052 4194 3981 3854 4042 4129 4168 4078 3704 3494 3931 3753 3601 3335 2949 2404 2272 2551 2052
3655 3604 3342 3006 2672 2442 2261 2258 3034 3318 3206 3421 3208 3069 3433 3312 3307 2937 3303 4220 4278 4294 4179 4009 4112 4008 3721 3781 4068 4101 3998 3564 3174 3558 3622 3513 3343 3049 2827 2521 2609 2308
3737 3814 3167 2594 2583 3036 2599 2112 2571 2923 3219 3173 3203 2944 3212 3274 3443 3359 3645 4060 4483 4661 4653 4164 4070 4023 3814 3740 4150 4140 4039 3860 3436 3346 3460 3385 3276 3084 2787 2632 2514 2573
3249 3424 3497 3170 3061 2579 2877 2453 2613 2950 3000 2792 2706 2850 3032 3319 3436 3791 4086 4316 4279 4562 4864 4605 4117 4081 3866 3708 3962 4042 3987 3784 3619 3564 3464 3461 3404 3294 2839 2680 2662 2606
3538 3012 3012 3391 2889 2634 2620 2468 2860 2447 2835 3472 3333 3091 3010 3134 3664 3909 4154 4367 4255 4318 4655 4767 4371 4137 4093 3895 3610 3591 3755 3666 3600 3633 3562 3536 3514 3436 3174 2833 2788 2758
3363 3012 2935 3071 3236 2960 2598 2873 2812 2391 2591 3227 3106 3078 3120 2896 3662 3899 4004 4450 4482 4379 4429 4636 4577 4185 4180 4188 3870 3471 3653 3684 3514 3564 3521 3568 3534 3390 3239 3028 2885 2896
3465 3373 3102 3266 3263 3092 3077 2952 2569 2616 2902 3238 3751 3654 3380 3156 3347 3992 3984 4174 4584 4494 4456 4464 4563 4397 4281 4391 4194 3854 3778 3774 3611 3541 3447 3500 3486 3471 3240 2997 2968 2917
3640 3757 3402 3383 3529 3433 3292 3079 2956 3061 2913 3035 3856 3921 3670 3531 3111 3670 4160 4112 4345 4605 4491 4402 4380 4339 4213 4324 4348 4145 3877 3773 3766 3635 3546 3452 3493 3519 3583 3443 3246 3004
4088 4046 3792 3557 3631 3666 3500 3419 3234 3133 2942 3123 3738 4176 3995 3740 3304 2901 3709 4204 4231 4636 4741 4526 4289 4222 3958 3964 3994 4076 3790 3507 3627 3656 3523 3454 3593 3602 3636 3706 3534 3084
4520 4443 4275 3993 3818 3840 3818 3604 3434 3338 3282 3400 3595 3958 4120 4059 3911 3527 2973 3616 4137 4274 4638 4581 4370 4213 3965 3856 3850 3756 3728 3479 3438 3648 3499 3472 3624 3730 3702 3751 3746 3482
4783 4730 4666 4435 4172 4076 4161 3957 3616 3583 3642 3620 3585 3643 4096 4221 4118 4038 3639 3362 4141 4279 4404 4759 4637 4160 4147 4129 3896 3772 3516 3408 3327 3484 3609 3592 3664 3710 3758 3714 3768 3774
5087 5009 4986 4881 4616 4320 4330 4418 4125 3793 3788 3808 3639 3686 3954 4340 4337 4187 4029 3701 3873 4528 4503 4665 4861 4402 4235 4276 4108 3945 3721 3380 3410 3242 3385 3537 3513 3496 3536 3632 3649 3718
5334 5170 5150 5208 5180 4871 4607 4690 4584 4200 3943 3892 3837 3909 4153 4324 4307 4273 4130 4043 3910 4350 4701 4601 4582 4492 4332 4202 4148 4001 3839 3440 3474 3394 3148 3248 3497 3537 3442 3445 3542 3534
5562 5366 5301 5374 5515 5369 4962 4826 4845 4641 4358 4172 3981 3994 4034 4306 4387 4364 4355 4203 4096 4092 4574 4850 4362 4423 4400 4251 4160 4103 3938 3644 3336 3526 3481 3428 3596 3808 3715 3374 3430 3663
5666 5540 5464 5472 5651 5567 5240 4931 4896 4948 4778 4526 4118 3872 3932 4104 4472 4305 4439 4446 4375 4225 4179 4429 4471 4136 4243 4310 4225 4050 4002 3798 3382 3519 3551 3641 3696 3718 3837 3726 3496 3566
5674 5636 5660 5716 5884 5781 5446 5027 4977 5229 5116 4784 4388 4208 4246 4076 3971 4017 4189 4427 4492 4427 4246 4082 4171 4043 3975 4070 4210 4223 4024 3843 3566 3348 3479 3540 3711 3786 3824 3840 3766 3692
5627 5730 5811 5785 5988 5994 5645 5314 5304 5277 5136 4870 4563 4189 3810 3737 3842 3923 3971 4100 4264 4420 4284 4236 4234 4165 3987 3999 4036 4182 4192 4075 3766 3488 3523 3460 3426 3694 3932 3929 3868 3582
5555 5851 5967 5836 5929 6043 5894 5674 5289 5341 5258 5206 4600 4286 3911 4079 4107 4063 4104 4178 4058 4228 4226 4174 4140 4054 3974 3983 4045 4075 4128 4134 4024 3763 3477 3586 3474 3502 3780 4033 4042 3725
5273 5806 6084 5993 5904 5982 6116 5817 5508 5271 5445 5193 4771 4280 4087 3858 4007 4216 4394 4300 4215 4296 4323 4087 4108 4308 3973 4006 4044 4043 4014 4001 4014 3938 3723 3604 3696 3656 3651 3765 3985 4176

ECMWFNIL_con_mucape_042.txt.gz
CAPE
1106 1116 1121 1008 1253 1193 1078 1092 1220 1070 921 1206 1546 1772 1925 1992 2016 2203 2294 2518 2681 2731 3003 3310 3303 3235 3076 2862 2835 2800 2653 2535 2408 2253 1973 1689 1581 1438 1048 217 120 0
1116 1084 1207 1110 1130 1286 1138 1040 1141 1316 1136 1170 1520 1728 1870 1978 2014 2142 2254 2384 2661 2692 2783 3092 3247 3242 3159 3014 2873 2883 2854 2742 2486 2208 2077 1806 1760 1558 1342 743 171 56
1161 1109 1176 1258 1154 1229 1356 1232 1094 1224 1456 1304 1492 1768 1893 1971 2007 2020 2162 2241 2528 2702 2729 2893 3125 3237 3224 3133 2933 2802 2823 2745 2575 2431 2334 1955 1944 1560 1481 1288 823 114
1189 1204 1208 1302 1293 1173 1282 1507 1356 1246 1350 1594 1516 1794 1896 2033 2019 1991 2037 2364 2308 2609 2707 2790 2935 3083 3202 3185 3065 2905 2778 2687 2657 2639 2586 2329 2103 1989 1603 1428 1288 737
1226 1269 1292 1343 1401 1330 1251 1463 1618 1498 1382 1545 1740 1838 1999 2106 2110 2053 2000 2076 2193 2371 2593 2718 2872 2953 3036 3116 3114 3045 2874 2750 2766 2769 2692 2471 2246 2090 2011 1597 1405 1133
1294 1316 1378 1404 1472 1499 1426 1418 1665 1735 1602 1473 1689 1993 2102 2177 2197 2153 2076 2034 2180 2282 2403 2538 2718 2921 3009 3092 3082 3017 2903 2825 2782 2700 2584 2449 2315 2173 2152 2006 1477 1353
1456 1450 1479 1507 1529 1559 1544 1487 1555 1842 1842 1680 1573 1893 2189 2303 2296 2232 2179 2084 2120 2296 2386 2450 2510 2687 2916 3037 3061 2988 2896 2876 2847 2758 2631 2482 2336 2260 2223 2226 1971 1532
1549 1599 1602 1609 1609 1600 1584 1521 1492 1668 1985 1935 1756 1724 2096 2297 2408 2363 2262 2176 2128 2207 2372 2454 2487 2526 2678 2898 2958 2966 2938 2908 2906 2835 2739 2636 2472 2331 2342 2324 2305 2089
1625 1667 1727 1742 1737 1708 1654 1553 1472 1444 1741 2127 2059 1906 2007 2207 2241 2357 2392 2331 2241 2195 2233 2379 2474 2508 2539 2744 2902 2939 2945 2905 2861 2821 2803 2712 2595 2473 2435 2416 2374 2252
1730 1702 1764 1832 1849 1835 1804 1728 1576 1428 1373 1750 2256 2249 2155 2223 2296 2217 2228 2305 2320 2253 2207 2280 2391 2474 2497 2549 2776 2904 2939 2928 2896 2828 2776 2722 2626 2529 2478 2427 2377 2275
1838 1784 1772 1821 1888 1915 1909 1852 1734 1572 1388 1330 1580 2201 2420 2339 2356 2415 2332 2273 2262 2280 2295 2299 2341 2424 2473 2476 2600 2775 2864 2886 2884 2855 2788 2724 2645 2543 2471 2396 2339 2261
1902 1878 1836 1820 1861 1915 1939 1900 1819 1698 1547 1384 1270 1421 2059 2476 2429 2401 2493 2477 2394 2331 2314 2348 2368 2422 2490 2505 2538 2682 2794 2831 2818 2808 2791 2754 2692 2599 2497 2408 2284 2171
1978 1947 1916 1877 1856 1867 1880 1899 1849 1758 1628 1482 1335 1256 1379 1961 2459 2437 2364 2526 2614 2558 2462 2388 2385 2443 2521 2561 2577 2626 2755 2828 2821 2790 2762 2723 2705 2668 2556 2460 2360 2179
2157 2088 2028 1983 1940 1902 1861 1836 1826 1781 1688 1546 1383 1286 1260 1395 1922 2412 2440 2321 2424 2586 2611 2512 2399 2382 2502 2620 2641 2640 2705 2816 2848 2822 2764 2708 2654 2643 2625 2540 2445 2325
2351 2296 2206 2141 2082 2019 1940 1858 1795 1766 1723 1616 1476 1337 1278 1309 1416 1888 2337 2391 2258 2227 2472 2564 2465 2374 2363 2542 2694 2706 2696 2752 2836 2848 2810 2743 2668 2596 2599 2618 2564 2466
2471 2446 2394 2322 2244 2172 2081 1986 1885 1786 1703 1646 1562 1442 1330 1312 1356 1508 1859 2194 2302 2236 2204 2430 2627 2558 2430 2394 2563 2728 2753 2738 2766 2831 2857 2817 2741 2628 2542 2544 2597 2583
2610 2548 2502 2464 2380 2291 2214 2110 1999 1865 1753 1651 1598 1546 1454 1364 1406 1496 1668 1860 2059 2204 2202 2156 2331 2676 2742 2618 2506 2599 2706 2746 2753 2787 2824 2846 2795 2706 2588 2492 2479 2522
2806 2698 2584 2537 2456 2375 2268 2178 2074 1952 1806 1674 1586 1537 1557 1519 1492 1531 1651 1821 1972 2090 2160 2166 2140 2224 2600 2876 2824 2698 2666 2688 2740 2764 2817 2842 2829 2774 2692 2577 2473 2432
3085 2992 2894 2780 2634 2438 2337 2213 2121 1995 1848 1696 1583 1490 1495 1609 1606 1595 1625 1761 1966 2109 2173 2246 2275 2247 2276 2568 2927 3000 2904 2796 2724 2768 2789 2840 2862 2846 2791 2692 2565 2450
3360 3281 3185 3091 2964 2767 2525 2312 2184 2060 1885 1714 1573 1477 1423 1518 1646 1678 1676 1697 1809 1987 2135 2226 2332 2412 2442 2437 2595 2925 3094 3086 2926 2801 2770 2784 2830 2862 2857 2804 2709 2596
3570 3478 3394 3304 3181 3038 2831 2545 2249 2127 1974 1813 1632 1542 1467 1492 1640 1721 1732 1722 1724 1798 1939 2090 2219 2345 2500 2578 2591 2664 2934 3140 3098 2961 2857 2813 2791 2816 2838 2827 2764 2695
3628 3572 3501 3419 3314 3186 3024 2835 2606 2271 2089 1916 1746 1649 1613 1587 1697 1838 1896 1884 1845 1811 1836 1926 2074 2218 2394 2567 2689 2745 2796 2977 3113 3091 3014 2964 2933 2901 2839 2807 2782 2752
3633 3597 3536 3463 3378 3278 3144 3029 2896 2699 2445 2134 1919 1773 1736 1727 1764 1926 2122 2206 2203 2132 2041 2031 2105 2250 2396 2505 2674 2827 2899 2940 2995 3054 3064 3061 3068 3040 2966 2902 2853 2839
3611 3599 3561 3506 3437 3362 3257 3136 3046 2906 2738 2520 2301 2020 1868 1821 1821 1884 2105 2368 2506 2531 2454 2358 2302 2343 2518 2685 2763 2846 2978 3027 3048 3022 3008 3008 3038 3055 3044 3010 2950 2918
3549 3592 3582 3547 3474 3420 3343 3254 3145 3043 2901 2731 2566 2421 2266 2078 1884 1912 1968 2154 2437 2655 2759 2734 2666 2614 2578 2633 2860 3004 3069 3102 3101 3085 3059 3055 3059 3066 3076 3083 3059 3009
3494 3542 3590 3578 3552 3479 3388 3315 3226 3139 3022 2897 2750 2622 2529 2404 2283 2152 1977 2043 2141 2364 2608 2788 2862 2879 2870 2838 2792 2890 3105 3227 3248 3256 3219 3208 3202 3219 3237 3257 3294 3340

ECMWFNIL_con_mucape_045.txt.gz
CAPE
1181 1129 1102 1074 1089 1080 1063 1072 1062 960 943 1202 1452 1616 1700 1734 1789 1915 1986 2016 2176 2414 2555 2629 2718 2818 2880 2874 2800 2710 2628 2528 2289 2247 2157 2048 1958 1784 1554 1327 407 0
1203 1151 1135 1096 1093 1114 1085 1041 994 898 817 941 1302 1472 1621 1670 1722 1850 1945 2011 2118 2326 2521 2703 2783 2841 2899 2931 2944 2918 2837 2640 2351 2247 2266 2240 2163 1962 1690 1487 1129 468
1252 1194 1158 1133 1096 1094 1118 1103 1050 963 816 759 1070 1366 1517 1628 1685 1748 1891 1969 2069 2244 2395 2615 2810 2885 2923 2949 2982 2996 2934 2712 2467 2327 2258 2264 2198 2026 1759 1603 1436 1005
1296 1227 1193 1165 1130 1089 1058 1090 1090 1059 937 758 793 1175 1412 1592 1677 1717 1809 2124 2007 2162 2304 2409 2616 2814 2900 2934 2919 2908 2901 2812 2644 2500 2425 2399 2359 2121 1801 1663 1668 1437
1307 1273 1246 1207 1168 1091 1025 1076 1112 1118 1086 960 768 949 1289 1511 1666 1721 1759 1868 1967 2066 2243 2346 2422 2604 2769 2840 2836 2817 2815 2816 2800 2693 2552 2521 2492 2327 2246 1976 1765 1678
1317 1285 1277 1251 1188 1108 1028 1053 1109 1109 1109 1088 1056 994 1258 1441 1607 1663 1717 1772 1905 1997 2137 2302 2378 2452 2590 2721 2771 2761 2739 2727 2765 2776 2706 2645 2579 2497 2483 2409 2215 2015
1296 1290 1293 1260 1196 1120 1070 1025 1112 1149 1097 1085 1153 1179 1272 1460 1596 1660 1692 1712 1794 1908 2000 2171 2322 2397 2459 2575 2682 2716 2727 2722 2740 2774 2781 2774 2714 2624 2605 2596 2485 2248
1266 1274 1280 1275 1240 1160 1104 1082 1070 1216 1267 1172 1124 1282 1391 1486 1590 1680 1723 1726 1732 1794 1870 1975 2142 2279 2393 2486 2561 2628 2678 2725 2750 2774 2827 2823 2798 2712 2674 2669 2589 2355
1248 1233 1237 1230 1200 1142 1139 1156 1125 1125 1293 1386 1293 1223 1469 1599 1626 1678 1731 1746 1731 1721 1790 1874 1972 2091 2225 2386 2498 2560 2612 2640 2673 2738 2782 2802 2820 2784 2727 2698 2621 2433
1215 1193 1176 1172 1167 1162 1186 1215 1209 1189 1220 1424 1489 1409 1365 1655 1782 1784 1782 1789 1770 1745 1750 1842 1933 2003 2072 2194 2364 2498 2564 2602 2646 2698 2735 2762 2729 2682 2686 2688 2640 2530
1221 1195 1181 1182 1194 1224 1249 1261 1287 1284 1273 1387 1531 1585 1518 1501 1761 1919 1951 1921 1887 1846 1818 1829 1919 2015 2076 2120 2212 2362 2491 2557 2611 2647 2662 2657 2640 2627 2633 2644 2616 2548
1297 1260 1245 1254 1262 1285 1302 1313 1328 1347 1345 1356 1485 1657 1726 1657 1637 1828 1977 2038 2031 1983 1916 1879 1888 1973 2076 2136 2175 2236 2357 2469 2525 2554 2576 2579 2577 2592 2616 2618 2570 2521
1439 1394 1353 1348 1385 1393 1381 1382 1388 1392 1380 1368 1372 1506 1723 1831 1798 1776 1879 1970 2046 2074 2047 1994 1946 1938 1997 2096 2162 2189 2249 2359 2464 2516 2531 2519 2515 2525 2547 2564 2555 2518
1546 1522 1481 1454 1458 1488 1485 1482 1471 1456 1445 1391 1340 1325 1420 1704 1930 1936 1921 1954 1984 1993 2036 2040 2020 1989 1980 2006 2067 2140 2180 2233 2326 2425 2467 2490 2499 2500 2521 2536 2537 2505
1596 1612 1609 1572 1548 1554 1573 1578 1570 1555 1532 1490 1413 1334 1265 1306 1579 1938 2057 2062 2055 2043 2007 1961 1931 1938 1971 2000 2029 2089 2140 2178 2233 2305 2365 2411 2449 2472 2494 2515 2520 2500
1659 1689 1703 1696 1670 1638 1623 1621 1628 1634 1619 1588 1534 1449 1352 1266 1238 1386 1772 2040 2121 2123 2114 2104 2056 1980 1961 2001 2052 2104 2159 2189 2211 2250 2314 2357 2390 2412 2441 2466 2483 2476
1859 1844 1824 1806 1779 1720 1686 1661 1666 1678 1683 1670 1633 1572 1494 1398 1300 1234 1246 1494 1840 2024 2074 2084 2136 2168 2140 2098 2122 2182 2202 2246 2256 2259 2284 2352 2397 2421 2430 2429 2439 2442
2063 2019 1980 1949 1891 1841 1786 1796 1714 1700 1699 1699 1686 1654 1595 1518 1438 1341 1262 1229 1327 1602 1843 1936 1967 2049 2202 2270 2262 2261 2292 2287 2280 2289 2300 2350 2413 2462 2476 2460 2439 2416
2204 2170 2141 2093 2049 2003 2049 2115 2045 1890 1739 1719 1706 1681 1652 1618 1546 1455 1380 1291 1222 1249 1438 1703 1863 1892 1968 2144 2307 2365 2376 2356 2305 2315 2346 2364 2408 2457 2500 2510 2501 2473
2395 2361 2329 2290 2250 2274 2361 2399 2363 2262 2094 1903 1753 1711 1689 1650 1602 1563 1495 1431 1353 1284 1279 1349 1537 1735 1882 1952 2065 2228 2336 2356 2318 2267 2303 2366 2404 2442 2478 2518 2531 2531
2609 2567 2536 2517 2518 2579 2614 2611 2559 2481 2385 2298 2165 1953 1782 1710 1667 1640 1596 1535 1459 1382 1319 1304 1350 1457 1660 1837 1950 2022 2149 2304 2369 2313 2255 2296 2379 2433 2469 2492 2522 2535
2819 2787 2759 2756 2784 2810 2814 2792 2740 2740 2734 2658 2569 2420 2217 2008 1806 1709 1647 1591 1547 1489 1436 1401 1382 1416 1545 1689 1821 1916 1975 2055 2209 2315 2334 2321 2353 2424 2475 2498 2536 2572
3044 3004 2982 2981 2995 2990 2983 2961 2954 2973 2978 2952 2928 2820 2616 2402 2159 1917 1743 1640 1585 1568 1548 1511 1443 1429 1525 1685 1811 1907 1993 2034 2057 2094 2163 2238 2310 2398 2462 2512 2554 2594
3289 3230 3197 3173 3151 3142 3126 3133 3143 3163 3168 3150 3128 3045 2930 2750 2513 2254 1983 1764 1642 1571 1544 1526 1500 1486 1513 1596 1738 1904 2030 2105 2151 2177 2176 2181 2234 2321 2420 2504 2570 2621
3516 3465 3416 3369 3326 3294 3282 3296 3301 3315 3299 3276 3256 3205 3143 3043 2901 2714 2460 2154 1851 1612 1505 1510 1510 1521 1553 1589 1618 1743 1908 2039 2108 2140 2156 2194 2235 2282 2344 2457 2560 2645
3674 3627 3579 3529 3494 3464 3442 3434 3423 3406 3402 3375 3335 3284 3241 3184 3089 2983 2817 2609 2408 2168 1967 1700 1580 1623 1666 1691 1712 1733 1818 1922 2025 2077 2110 2150 2223 2278 2348 2433 2523 2631

ECMWFNIL_con_mucape_048.txt.gz
CAPE
920 877 906 920 990 1034 1046 1051 1067 1084 1099 1162 1341 1462 1552 1658 1728 1807 1894 1928 2004 2128 2131 2168 2436 2567 2646 2548 2509 2528 2515 2490 2425 2318 2238 2054 1999 2008 1998 1833 1559 1432
1066 1017 1042 977 1002 1028 1036 1040 1066 1069 1088 1091 1218 1346 1446 1531 1630 1757 1804 1865 2008 2161 2206 2237 2359 2518 2642 2615 2563 2561 2542 2532 2522 2493 2524 2378 2033 1917 1889 1804 1655 1543
1158 1112 1020 1027 1032 1034 1052 1070 1072 1083 1077 1083 1066 1170 1321 1501 1554 1646 1729 1840 1872 2054 2196 2333 2410 2504 2570 2637 2572 2573 2571 2590 2624 2660 2688 2611 2277 2002 1945 1913 1876 1821
1195 1143 1094 1065 1068 1070 1068 1063 1060 1060 1057 1055 1053 1051 1238 1465 1495 1555 1658 2076 1825 1941 2107 2273 2465 2535 2552 2567 2565 2574 2616 2643 2712 2803 2849 2746 2495 2298 2174 2046 2045 2043
1234 1201 1169 1148 1148 1146 1117 1072 1065 1057 1039 1031 1007 968 1232 1399 1461 1478 1564 1773 1839 1881 1970 2170 2324 2508 2598 2503 2521 2566 2598 2654 2702 2842 2886 2855 2688 2482 2431 2392 2289 2182
1255 1235 1232 1241 1249 1228 1182 1120 1078 1063 1060 1020 980 935 972 1214 1405 1452 1512 1612 1764 1826 1892 2056 2194 2340 2503 2611 2498 2526 2542 2580 2625 2710 2754 2699 2722 2654 2576 2553 2508 2414
1258 1248 1270 1278 1285 1244 1190 1141 1104 1072 1056 1029 992 959 900 1059 1297 1412 1468 1546 1642 1768 1821 1931 2110 2228 2347 2531 2499 2507 2511 2518 2509 2519 2528 2545 2632 2648 2658 2654 2655 2634
1279 1280 1281 1286 1264 1230 1198 1174 1157 1113 1062 1026 1001 979 937 972 1160 1321 1425 1472 1546 1636 1747 1851 1968 2122 2219 2386 2550 2511 2547 2456 2464 2435 2417 2490 2490 2528 2559 2614 2680 2669
1306 1289 1284 1267 1244 1229 1215 1215 1201 1168 1116 1065 1030 982 954 926 1046 1181 1339 1412 1459 1537 1618 1710 1836 2006 2160 2302 2415 2507 2566 2517 2492 2473 2438 2410 2399 2417 2443 2471 2529 2584
1313 1305 1270 1257 1256 1252 1248 1247 1221 1203 1172 1141 1114 1022 966 1085 1082 1154 1282 1370 1412 1493 1503 1604 1704 1844 2008 2174 2331 2413 2476 2526 2561 2572 2546 2486 2454 2442 2360 2359 2388 2454
1311 1296 1284 1264 1268 1266 1278 1250 1229 1216 1182 1171 1142 1066 966 1119 1253 1258 1302 1374 1426 1482 1513 1529 1611 1704 1850 1988 2172 2308 2393 2441 2464 2522 2554 2565 2548 2512 2468 2385 2346 2370
1302 1303 1291 1282 1265 1272 1267 1253 1221 1185 1174 1169 1131 1108 1070 1039 1229 1361 1402 1414 1458 1505 1525 1535 1559 1625 1719 1840 1962 2109 2272 2374 2442 2479 2496 2531 2529 2542 2525 2495 2388 2389
1288 1296 1287 1252 1248 1245 1239 1231 1221 1204 1178 1154 1109 1219 1256 1205 1168 1336 1510 1533 1532 1535 1544 1567 1552 1560 1675 1771 1868 1985 2153 2281 2382 2448 2488 2506 2525 2518 2504 2509 2423 2422
1273 1273 1250 1236 1219 1215 1229 1222 1218 1195 1172 1136 1089 1186 1241 1297 1324 1286 1398 1562 1624 1626 1650 1656 1623 1606 1630 1734 1839 1968 2059 2124 2255 2359 2424 2470 2498 2514 2485 2491 2516 2471
1255 1247 1238 1222 1209 1214 1225 1213 1196 1167 1140 1128 1135 1205 1220 1282 1364 1387 1377 1440 1576 1667 1722 1743 1731 1703 1676 1696 1783 1966 2042 2104 2150 2235 2336 2407 2453 2461 2477 2492 2535 2518
1250 1247 1235 1232 1222 1231 1211 1186 1158 1141 1142 1142 1152 1146 1159 1270 1336 1463 1528 1514 1541 1628 1687 1727 1771 1812 1748 1676 1669 1863 1974 2035 2076 2136 2196 2288 2334 2393 2438 2471 2484 2498
1264 1274 1254 1249 1248 1210 1195 1176 1166 1161 1267 1262 1248 1194 1199 1196 1197 1246 1474 1632 1686 1710 1728 1736 1764 1765 1708 1736 1766 1764 1820 1978 2046 2113 2151 2241 2275 2287 2330 2396 2447 2480
1283 1354 1351 1297 1262 1258 1238 1227 1272 1333 1361 1362 1343 1290 1274 1250 1254 1232 1227 1354 1568 1739 1808 1832 1875 1721 1719 1728 1746 1789 1816 1905 2032 2051 2100 2149 2209 2296 2304 2356 2397 2394
1402 1451 1493 1497 1394 1366 1333 1321 1332 1340 1448 1404 1359 1416 1354 1350 1339 1298 1281 1245 1224 1373 1566 1770 1912 1796 1808 1836 1840 1831 1825 1828 1850 2032 2108 2125 2190 2209 2265 2322 2364 2367
1546 1542 1562 1590 1590 1493 1487 1476 1469 1477 1461 1458 1459 1506 1481 1468 1437 1414 1376 1352 1303 1243 1203 1319 1506 1606 1734 1834 1903 1934 1958 1952 1922 1910 2099 2146 2191 2251 2286 2332 2393 2413
1760 1719 1698 1691 1688 1644 1610 1612 1614 1599 1595 1608 1611 1609 1613 1599 1565 1530 1498 1464 1409 1346 1296 1252 1196 1166 1305 1524 1700 1819 1905 1958 2018 1992 1950 2138 2236 2281 2327 2358 2400 2458
1946 1922 1892 1878 1839 1814 1743 1738 1745 1750 1757 1745 1753 1810 1895 1929 1929 1821 1659 1541 1497 1460 1430 1381 1322 1264 1220 1196 1330 1521 1658 1764 1850 1917 1921 1963 2117 2203 2293 2377 2412 2458
2130 2104 2094 2068 2050 1947 1920 1925 1921 1947 2033 2098 2175 2214 2257 2256 2249 2196 2103 1995 1859 1687 1560 1482 1414 1376 1345 1304 1259 1212 1380 1539 1658 1741 1768 1813 1849 2042 2153 2238 2309 2396
2320 2298 2283 2271 2241 2120 2111 2101 2197 2256 2367 2429 2473 2507 2526 2518 2490 2461 2416 2344 2242 2138 1987 1806 1651 1489 1429 1408 1379 1341 1312 1323 1412 1480 1548 1583 1691 1878 2029 2148 2239 2062
2518 2488 2384 2241 2345 2429 2486 2552 2632 2638 2682 2704 2739 2743 2786 2801 2811 2807 2762 2704 2625 2512 2384 2260 2119 1961 1795 1606 1470 1434 1406 1382 1356 1377 1404 1428 1585 1761 1884 2020 2135 2084
2743 2534 2520 2585 2669 2722 2734 2806 2831 2862 2912 2938 2951 2964 2982 2997 3009 3027 3029 3020 2971 2890 2793 2654 2496 2337 2169 1998 1780 1573 1486 1469 1451 1446 1460 1436 1570 1722 1876 1938 2037 2181

ECMWFNIL_con_mucape_051.txt.gz
CAPE
1873 1859 1777 1830 1859 1735 1971 2098 2049 2239 2506 2338 2489 2585 2836 3146 3217 3191 3230 3309 3422 3437 3518 3619 3650 3665 3618 3536 3301 3177 3272 3426 3246 3148 3323 3230 3097 2955 2733 2769 2773 2652
1852 1892 1850 1854 2005 2110 2289 2118 2243 2260 2623 2702 2572 2753 2996 3175 3138 3131 3285 3354 3432 3326 3516 3496 3577 3643 3678 3474 3364 3080 3015 3037 3233 3144 3273 3436 3415 3260 3139 3082 2857 2803
1838 1830 1876 1841 1832 1911 1635 1914 2185 2260 2349 2430 2575 2854 2878 2886 2996 3148 3250 3332 3292 3150 3452 3516 3524 3641 3636 3698 3702 3215 2849 3042 2935 3015 3262 3292 3324 3237 3357 2745 2714 2970
1856 1854 1720 1627 1665 1778 1741 2003 2194 2179 2038 2344 2393 2439 2529 2544 2772 3069 3229 3262 3337 3380 3428 3482 3402 3469 3646 3719 3750 3264 3006 3005 2979 3222 3238 3256 3222 3252 3343 3209 2974 2939
1877 1883 1762 1737 1730 1896 1990 2058 1857 1966 1920 1993 2103 2325 2677 2760 2827 2739 2975 3207 3272 3374 3493 3550 3586 3547 3781 3798 3661 3135 2927 2822 2949 2919 2836 3040 3258 3280 3302 3374 3393 3344
1960 1984 1966 1941 1913 2092 2004 1931 1900 1920 1896 1810 2064 2140 2260 2611 2598 2594 2765 2799 2895 2942 2933 3131 3410 3460 3557 3705 3447 3010 2929 2883 2940 2894 2808 2958 3157 3125 3191 3424 3698 3667
1987 2032 1998 1922 1950 2016 1946 1920 1971 1987 1875 1850 2050 2016 2046 2244 2494 2581 2697 2747 2647 2806 2729 3008 3387 3408 3529 3701 3518 3106 2785 2830 2851 2876 2799 2904 3075 3196 3123 3428 3719 3878
1958 1930 1945 1912 1908 1890 1969 1944 1980 2006 2038 1996 2019 2020 2013 2025 2324 2429 2615 2676 2566 2750 2914 3016 3392 3613 3479 3578 3570 3299 2946 2667 2698 2868 2888 2855 3064 3163 3444 3480 3466 3834
1974 2021 2009 1977 1888 1884 1858 1803 1903 1984 1995 2022 1832 1791 1951 1910 2122 2156 2532 2720 2612 2673 3014 2994 3313 3362 3344 3431 3533 3553 3395 3129 3004 3034 2992 3041 3172 3354 3619 3794 3589 3707
2136 2074 1914 1911 1849 1833 1831 1768 1762 1867 1979 1924 1826 1752 1847 1923 1966 2110 2490 2868 2679 2756 2946 3003 3140 3154 3200 3319 3499 3590 3583 3535 3505 3545 3548 3486 3565 3697 3825 4005 3872 3857
2076 2010 1961 1926 1848 1820 1858 1805 1764 1774 1869 1802 1785 1749 1831 1931 2040 2141 2435 2699 2512 2626 2832 2884 2991 3073 3198 3126 3223 3356 3502 3430 3599 3736 3806 3744 3727 3887 3879 3936 3933 3764
2084 1978 1914 1914 1868 1855 1860 1862 1807 1784 1822 1818 1778 1797 1860 1890 2086 2108 2203 2494 2484 2525 2707 2880 2951 3064 3136 3092 2942 3050 3291 3373 3439 3741 3685 3752 3812 3838 3910 3859 3777 3786
2032 2010 2026 1925 1952 1898 1909 1925 1863 1804 1784 1829 1810 1841 1876 1910 1995 2251 2255 2332 2503 2537 2526 2737 2931 2912 3081 3129 3022 3046 3240 3407 3273 3473 3564 3613 3708 3652 3595 3671 3690 3679
2054 2140 2159 2104 2042 2104 2088 1988 1957 1887 1896 1872 1950 1927 1896 1949 1984 2181 2372 2290 2373 2475 2550 2628 2854 2869 2996 3103 3077 3022 3155 3244 3289 3263 3345 3460 3527 3598 3458 3383 3507 3610
2200 2200 2269 2282 2189 2269 2205 2124 2094 2079 2028 2021 2079 2044 1994 2027 2018 2037 2211 2252 2226 2360 2446 2505 2567 2650 2704 2886 2957 3065 3060 3021 3104 3205 3238 3291 3428 3425 3481 3574 3452 3405
2392 2390 2445 2472 2378 2476 2468 2296 2200 2225 2168 2194 2227 2154 2155 2130 2119 2121 2098 2170 2245 2376 2472 2476 2454 2478 2457 2162 2346 2820 3040 2869 2921 3105 3234 3204 3332 3443 3388 3403 3488 3436
2702 2610 2550 2489 2454 2470 2488 2455 2363 2310 2283 2325 2248 2242 2155 2286 2255 2188 2118 2096 2154 2256 2385 2392 2456 2430 2143 1907 1778 1814 2406 2946 3001 3158 3296 3307 3225 3394 3447 3311 3405 3452
2507 2496 2459 2492 2511 2475 2477 2432 2369 2319 2338 2366 2289 2247 2350 2235 2260 2197 2289 2132 2107 2175 2209 2309 2408 2146 1975 1813 1674 1596 1616 2367 2742 2940 2937 3100 3200 3125 3199 3288 3321 3252
2541 2598 2553 2524 2498 2496 2466 2458 2427 2387 2348 2300 2213 2242 2257 2362 2282 2198 2282 2251 2176 2318 2231 2213 2303 2029 1832 1694 1634 1576 1584 1668 2304 2654 2740 2884 2965 3131 3101 3191 3314 3275
2728 2598 2530 2541 2548 2500 2508 2468 2414 2412 2323 2235 2164 2238 2340 2367 2254 2282 2316 2424 2352 2366 2493 2372 2286 2126 1859 1669 1564 1544 1574 1595 2122 2368 2644 2820 2948 3019 3096 3124 3245 3302
2688 2614 2637 2639 2627 2554 2523 2497 2438 2444 2356 2236 2147 2209 2406 2445 2332 2296 2310 2378 2313 2254 2339 2361 2213 2027 1935 1735 1592 1537 1534 1572 1901 2309 2516 2784 2937 3061 3140 3092 3136 3274
2609 2707 2712 2730 2684 2609 2561 2528 2541 2572 2538 2409 2263 2212 2280 2304 2368 2270 2324 2399 2348 2293 2169 2178 2142 1690 1651 1644 1604 1563 1546 1576 1605 2268 2513 2634 2846 3038 3132 3234 3238 3253
2454 2581 2689 2728 2726 2688 2628 2569 2605 2680 2656 2568 2452 2310 2259 2331 2397 2371 2416 2424 2450 2396 2328 2306 2257 1932 1514 1367 1339 1390 1440 1498 1653 2113 2471 2674 2792 2938 3106 3153 3252 3331
2538 2617 2724 2717 2780 2798 2766 2697 2667 2679 2648 2621 2544 2384 2301 2408 2456 2523 2504 2508 2453 2488 2411 2451 2374 2238 1758 1512 1376 1306 1248 1448 1996 2229 2483 2613 2735 2901 3022 3143 3203 2785
2732 2756 2797 2828 2914 2870 2763 2757 2734 2762 2660 2632 2568 2498 2478 2569 2523 2554 2611 2631 2523 2468 2254 2203 2435 2298 2004 1951 1844 1723 1604 1627 1969 2135 2286 2485 2508 2678 2893 2990 3071 2826
2857 2938 2906 2863 3008 2944 2819 2855 2864 2733 2780 2790 2709 2615 2652 2663 2671 2652 2696 2728 2689 2574 2376 2343 2334 2451 2314 2269 2213 2141 2043 1940 1880 2122 2213 2320 2472 2396 2623 2842 2893 3021

ECMWFNIL_con_mucape_054.txt.gz
CAPE
2750 2778 2706 2673 2629 2290 2193 2298 2080 2004 2122 1789 1708 1943 2164 2599 2678 2436 2633 2848 3188 3040 3097 3290 3421 3452 3149 2896 3141 2902 2462 2400 2234 2259 2681 2743 2750 2655 2427 2380 2333 2141
2467 2702 2745 2680 2714 2584 2398 2462 2541 2292 2593 2435 1701 1837 2546 2690 3117 2975 2973 2822 3096 2975 3020 3287 3488 3502 3242 2635 2985 2899 2819 2792 2823 2281 2502 2933 2898 2624 2540 2540 2427 2432
2432 2483 2405 2681 2698 2749 2342 2542 2721 2691 2598 2646 2116 2050 2651 3230 3349 3456 3094 2915 2617 2388 2805 3048 3174 3480 3271 2914 2988 2938 2644 3016 2949 2330 2586 2938 2848 2590 2716 2503 2482 2380
2466 2517 2383 2530 2654 2704 2532 2520 2838 2936 2441 2524 2456 2147 2382 2456 3054 3192 3497 3376 3006 2888 2496 2751 2730 2721 3123 3091 3189 2873 2681 3066 2802 2912 2846 2904 2932 2770 2824 2840 2611 2434
2687 2580 2507 2582 2650 2646 2804 2637 2667 2790 2448 2135 2356 2442 2758 2783 3062 2990 3374 3676 3460 3108 2973 3028 3084 2765 2974 3212 3228 3025 2633 2718 2734 3028 3163 3206 3370 3336 3024 2823 2890 2659
2712 2688 2695 2786 2723 2646 2759 2789 2688 2634 2694 2166 2424 2462 2723 3089 3035 2764 2955 3184 3300 2814 2249 2525 2784 2682 2688 3025 3178 2996 2504 2293 2272 2807 2695 2830 3032 2800 2871 2974 3468 3403
2918 2894 3004 2829 2683 2672 2784 2818 2737 2701 2797 2528 2573 2734 2761 3082 3188 2872 2814 3079 2773 2642 2281 2304 2746 2642 2554 2848 3159 3213 2998 2926 2620 2816 2647 2670 3030 3227 2796 2969 3518 3686
2965 2904 2933 2836 2640 2625 2682 2785 2811 2881 2898 2814 2598 2926 2946 2993 3249 3098 2922 3092 2935 2821 2884 2792 3125 3587 2829 2727 2970 3173 3264 2841 2872 3103 3001 2861 2952 3222 3379 3182 3388 3898
2786 2917 2944 2822 2680 2492 2555 2643 2848 2948 2814 2837 2578 2745 3030 2938 2996 2996 3147 3316 3156 3011 3297 3314 3451 3596 3355 2885 2895 3311 3510 2898 2646 3130 3223 3159 3214 3420 3460 3508 3563 3806
2932 2800 2745 2732 2608 2541 2522 2615 2595 2686 2815 2833 2733 2532 2850 3006 2808 2880 3227 3513 3630 3397 3452 3660 3630 3629 3561 3409 3391 3340 3442 3532 3197 3236 3347 3424 3362 3444 3427 3405 3578 3926
2870 2754 2735 2787 2638 2407 2445 2480 2314 2372 2735 2781 2724 2528 2547 2883 2952 2954 3196 3538 3710 3696 3667 3781 3823 3827 3730 3417 3268 3428 3588 3330 3333 3436 3565 3590 3500 3526 3397 3448 3578 3707
3008 2756 2739 2830 2703 2435 2342 2341 2256 2202 2462 2795 2761 2608 2494 2577 3054 3083 3092 3487 3783 3808 3743 3846 3811 3808 3880 3726 3052 3077 3413 3369 3200 3427 3502 3774 3809 3582 3511 3694 3608 3767
2850 2720 2838 2684 2771 2512 2367 2376 2302 2156 2194 2553 2742 2652 2549 2454 2809 3231 3272 3358 3784 3813 3594 3796 3908 3770 3930 4008 3564 3015 3088 3499 3038 3028 3300 3493 3734 3534 3194 3247 3669 3814
2784 3042 2891 2870 2874 2934 2758 2558 2510 2315 2394 2573 2870 2788 2606 2558 2631 3090 3348 3322 3622 3699 3655 3558 3778 3892 4020 4136 3980 3326 3030 3311 3556 3146 2915 3230 3439 3519 3310 2830 3027 3376
3070 3092 3157 3052 3008 3197 3012 2831 2780 2750 2714 2765 2976 2933 2690 2578 2618 2770 3193 3342 3323 3562 3550 3358 3382 3644 3752 3915 3961 3738 3366 3116 3292 3614 3321 3008 3238 3318 3420 3386 2985 2578
3258 3257 3283 3387 3245 3339 3384 3170 3062 3097 3002 3035 3098 3072 3026 2852 2798 2756 2865 3236 3358 3446 3413 3343 3264 3290 3367 3021 3272 3716 3584 3063 3092 3350 3514 3232 3362 3463 3189 3136 3356 3226
3364 3363 3491 3507 3508 3545 3579 3500 3420 3309 3283 3345 3350 3340 3308 3289 3141 2899 2755 2960 3198 3298 3365 3215 3108 2990 2746 2740 2705 2858 3324 3654 3318 3432 3710 3896 3633 3644 3763 3296 3037 3181
3557 3649 3690 3750 3694 3719 3722 3674 3522 3542 3545 3582 3498 3492 3583 3422 3256 3215 3176 2877 2938 3121 3151 3100 3111 2760 2568 2508 2428 2400 2533 3194 3317 3465 3357 3556 3802 3714 3664 3476 3267 2893
3684 3724 3838 3889 3906 3900 3894 3781 3726 3740 3645 3640 3516 3572 3587 3602 3619 3457 3415 3213 2978 3094 2987 2984 3125 2651 2477 2365 2221 2111 2002 2135 2464 2911 3032 3154 3414 3671 3716 3834 3618 3503
3923 3918 3964 4038 4017 3984 3976 3900 3827 3846 3657 3538 3505 3585 3658 3666 3536 3498 3529 3571 3330 3179 3216 3136 3107 2574 2495 2322 2141 1982 1871 1800 2388 2408 2642 2826 3210 3476 3712 3908 4052 4135
4021 4081 4058 4098 4083 3962 3983 4002 3871 3872 3716 3535 3347 3417 3620 3636 3679 3624 3597 3623 3520 3314 3243 3094 3062 2499 2446 2341 2160 1986 1818 1685 2262 2330 2552 2831 3070 3442 3782 3953 3994 4237
3956 3974 4043 4075 4053 4028 4003 3968 3980 3896 3855 3560 3350 3267 3374 3500 3579 3477 3556 3618 3480 3413 3190 3199 2978 2388 2394 2316 2204 2047 1832 1678 2154 2501 2646 2773 3021 3262 3616 3935 4028 4141
3886 3874 3989 4043 4054 3983 3902 3856 3852 3925 3803 3641 3402 3197 3192 3275 3440 3392 3478 3460 3472 3582 3451 3266 3248 2788 2349 2233 2159 2067 1922 1878 2288 2506 2776 2902 3129 3212 3542 3758 3880 4184
3828 3804 3892 3883 3990 3945 3884 3826 3747 3785 3732 3674 3487 3283 2987 3050 3256 3392 3388 3386 3354 3469 3372 3492 3339 3069 2574 2285 2094 1977 1905 2258 2619 2704 2966 2988 3205 3436 3522 3616 3806 3721
3768 3833 3841 3838 3968 3908 3764 3751 3674 3763 3686 3578 3455 3319 3048 3070 3088 3204 3366 3318 3203 3237 3065 3184 3386 3116 2726 2510 2183 1982 1848 2457 2713 2900 3029 3142 3189 3461 3565 3713 3934 3778
3745 3856 3791 3857 3996 3890 3842 3798 3686 3618 3672 3613 3452 3284 3224 3033 3052 3115 3281 3347 3294 3248 3224 3084 3145 3648 2844 2617 2414 2191 1961 2284 2848 2949 3133 3241 3444 3427 3649 3803 3844 4035

ECMWFNIL_con_mucape_057.txt.gz
CAPE
3126 3037 2689 2448 2091 1626 1753 2224 2133 1898 1425 1111 1452 1795 1363 1919 1880 1659 1758 2144 2811 2965 2874 3064 3279 3172 2900 2766 3025 2883 2474 2379 2174 2435 2657 2963 3055 2825 2517 2195 2026 1775
3151 3180 3004 2685 2638 2440 2154 2188 2417 2072 1910 1604 1278 1535 1655 1780 2170 1814 2048 2172 2719 2933 3005 2966 3245 3343 3068 2607 2984 3034 3037 2698 2596 2018 2451 2859 2980 2808 2709 2519 2280 2173
3208 3086 3129 2868 2636 2680 2204 2216 2391 2270 1995 1756 1318 1383 1589 1673 2248 2358 2283 2419 2791 2572 2695 2928 3072 3297 3151 2802 2886 2959 2856 3064 2838 2098 2272 2694 2766 2658 2779 2495 2248 2293
3442 3244 3155 2826 2632 2747 2463 2185 2499 2570 2075 2148 1782 1184 1393 1466 1967 2612 2669 2763 2783 2541 2298 2683 2728 2767 3030 2868 3007 2862 2717 3152 2908 2576 2336 2578 2741 2773 2816 2667 2488 2213
3277 3268 3052 3086 2645 2768 2848 2433 2337 2576 2248 2063 2295 1755 1606 1714 2136 2484 2726 2777 2730 2609 2426 2644 2734 2541 2825 2871 3034 3018 2613 2885 2905 3028 2964 2911 3126 3068 2818 2679 2735 2552
3102 3047 3273 2838 2743 2951 2990 2833 2582 2515 2609 1882 2419 2119 1608 1856 2163 2128 2581 2652 2728 2472 1820 2356 2700 2536 2636 2908 3020 3040 2477 2230 2238 3033 3315 3409 3191 2768 2600 2543 2888 2935
2870 3225 2988 2804 2760 3026 3158 3045 2793 2561 2540 1981 2382 2128 1901 1988 2386 2452 2572 2654 2506 2262 1753 2024 2707 2677 2549 2626 2975 3164 3091 2633 2294 2824 3231 3224 3294 2946 2502 2440 2772 3079
2942 3051 3145 2926 2723 3121 3143 3206 2897 2596 2678 2617 1970 2181 2101 2300 2620 2531 2406 2469 2317 2025 1999 1798 2570 2626 2402 2390 2866 3172 3212 2872 2811 2658 3230 3362 3206 3257 3392 3013 2769 3249
2962 3182 3198 2833 2702 2850 2811 2980 3048 2873 2688 2735 2047 2032 2290 2333 2781 2493 2497 2642 2522 2364 2408 2012 2607 2575 2492 2485 2765 2996 3137 2680 2361 2657 3136 3221 3201 3192 3416 3611 3314 3183
3132 3148 2874 2618 2580 2576 2685 2576 2427 2718 2750 2786 2466 1799 2188 2506 2498 2833 2669 2929 2827 2639 2763 2546 2505 2848 2895 2594 2542 2812 3123 3186 2630 2577 2872 3131 3231 3167 3127 3235 3201 3268
3060 2901 2786 2601 2500 2504 2497 2404 2094 2171 2524 2719 2599 1842 1677 2440 2731 2942 3114 3258 3022 2874 2991 3139 2964 3280 3528 3000 2605 2666 3072 3248 3136 2897 2942 3204 3357 3307 3087 3203 3296 3248
2947 2681 2742 2786 2542 2364 2171 2252 1932 1683 1982 2635 2545 2102 1642 1848 2794 2902 2918 3579 3630 3280 3222 3560 3548 3604 3654 3320 2496 2504 2768 2943 3148 3210 2885 3232 3467 3328 3180 3179 3290 3388
2868 2634 2830 2685 2562 2333 2075 2050 1954 1720 1650 2198 2504 2294 1877 1647 2202 3084 2976 3597 3986 3831 3576 3701 3904 3856 3946 3728 3045 2573 2711 3017 2709 2872 3000 3092 3405 3272 2752 2795 2880 3114
2809 2692 2724 2792 2738 2758 2418 2069 2079 1668 1594 1837 2414 2383 2058 1714 1757 2794 3217 3381 3997 4060 3968 4010 4102 3932 4111 4149 3680 2861 2627 3040 3005 2670 2649 2971 3010 3108 2814 2071 2210 2552
3218 2897 2723 3035 2983 3152 2632 2326 2316 2118 2072 1977 2506 2551 2193 1885 1716 2145 3136 3387 3679 4048 4029 3811 3881 3887 3823 4030 3965 3580 2819 2694 3147 3091 2638 2458 2625 2582 2768 2554 1840 1659
3877 3490 3302 3260 3321 3629 3551 2906 2548 2525 2262 2368 2389 2617 2730 2412 2232 2019 2532 3274 3406 3763 3794 3650 3704 3748 3617 3447 3814 3853 3249 2434 2622 3124 3020 2536 2548 2690 2337 2325 2392 1967
3903 3779 3842 3946 4051 3854 3732 3486 3301 2672 2767 3138 3052 2928 3243 3335 2700 2040 1962 2661 3102 3255 3492 3416 3219 3090 3182 3386 3496 3568 3672 3233 2558 2838 3269 3175 2618 2828 2803 2278 2136 2261
3910 4134 4094 4076 4154 4081 3984 3887 3343 3166 3322 3154 2765 3058 3599 3149 2653 2480 2650 2346 2730 2982 3058 3211 3002 2476 2892 3187 3341 3465 3589 3725 2964 2528 2728 3156 3158 2576 2789 2864 2517 1876
4298 4182 4216 4204 4207 4239 4239 4010 3889 3686 3349 3094 3025 3399 3517 3683 3616 3072 2959 2716 2484 2920 2882 3002 2943 2248 2552 2950 3121 3210 3177 3282 2697 2576 2174 2362 2851 3101 2670 2880 2956 2536
4368 4346 4431 4510 4498 4508 4493 4227 3902 3886 3502 3412 3343 3652 3860 3783 3536 3431 3340 3482 2919 2878 3375 3030 2984 2340 2437 2756 2914 2914 2878 2981 2858 2171 2322 2079 2299 2693 3017 2948 2983 2891
4634 4660 4666 4740 4688 4739 4641 4389 4242 4183 3961 3754 3550 3672 4019 4127 3753 3587 3492 3514 3061 2828 3159 3124 2579 2697 2395 2509 2664 2696 2648 2479 2906 2419 2187 2298 2416 2669 3123 3159 3348 3495
4539 4620 4849 4966 4860 4771 4840 4783 4567 4538 4416 4043 3715 3445 3796 4089 4208 3548 3712 3755 3594 3224 2986 3050 2501 2586 2555 2563 2599 2553 2501 2344 2844 2819 2736 2653 2724 2858 3102 3596 3672 3760
4597 4676 4815 4956 4914 4965 5061 4827 4746 4860 4560 4290 3918 3300 3344 3800 4130 3848 3872 3988 3930 3822 3326 3133 3077 2549 2518 2665 2696 2646 2461 2453 2814 2853 2998 3103 2969 3111 3260 3460 3711 3986
4688 4717 4849 4949 5010 4995 4940 4848 4777 4686 4546 4389 4119 3495 2934 3303 3721 3805 3655 3836 3862 3970 3773 3472 3254 4368 2603 2544 2638 2618 2539 2805 3018 3041 3188 3362 3407 3389 3497 3679 3875 4185
4656 4674 4822 5020 5030 4924 4778 4801 4730 4803 4565 4374 3997 3736 3109 2891 3169 3298 3528 3550 3580 3822 3924 3538 3234 4410 2804 2656 2563 2519 2482 3111 3229 3202 3278 3436 3488 3638 3711 3666 3946 4149
4744 4854 4939 4970 5125 5000 4765 4874 4713 4527 4494 4464 4266 3734 3234 2882 2632 2871 3209 3274 3218 3485 3844 3671 3529 3194 3014 2720 2655 2521 2417 3044 3455 3416 3346 3418 3651 3568 3908 4081 4004 4260

ECMWFNIL_con_mucape_060.txt.gz
CAPE
1955 1731 1587 1293 1202 750 1350 2163 1803 1816 1795 1298 1861 1761 1966 2447 2602 2759 2636 3136 3660 3511 3732 4142 3923 3861 3425 3676 3390 3322 3497 2830 3138 3922 3744 3748 3712 2951 2428 2258 2084 2379
2199 2016 1835 1473 1438 1355 1596 2304 2400 2156 2348 2053 1629 2296 2098 2597 2362 3152 2652 3233 3530 3337 3766 3690 4051 3982 3928 3487 3773 3769 3667 3628 3321 2256 3483 3475 3751 3070 2510 2543 2356 2471
2422 2427 2168 1613 1457 1614 649 1719 2682 2724 2571 1981 1902 2687 2198 2266 2214 2810 2790 2837 2920 2938 3770 3764 3861 4084 3869 3931 4068 3832 3628 3902 3416 2655 3249 3528 3603 3311 3477 2146 2431 2393
2635 2385 2004 1491 1371 1498 1055 1414 2479 2783 2236 2169 1626 1746 2073 1420 2095 2564 2964 2985 3091 3330 3356 3358 3425 3471 3827 3784 3924 3786 3785 4042 3640 3823 3564 3744 3607 3347 3198 3241 2667 2623
2607 2716 2337 2034 1818 1858 1501 1490 1459 2365 2064 2051 1752 1511 2164 2442 2485 2499 2851 2800 3337 3367 3478 3507 3598 3464 3887 3800 3744 3840 3531 3688 3721 3959 3828 3703 3935 3574 3160 3339 3569 3251
2868 2694 2899 2502 2276 2522 2216 1718 1768 1992 2098 1848 2102 1651 1674 2841 2455 2465 2497 2710 2899 2807 2652 2746 3152 3004 3400 3671 3664 3622 3249 2850 3226 3777 3559 3777 3304 3296 2934 3402 3602 3559
2726 2942 2637 2641 2042 2480 2486 2155 2019 2113 2095 1952 2215 2006 1538 1793 2530 2490 2644 2729 2545 2852 2518 2486 3037 2998 3046 3420 3546 3823 3924 3532 3357 3664 3656 3776 4040 3889 2982 3146 3763 3661
2450 2563 2598 2546 1976 1916 2353 2680 2246 2262 2586 2453 2084 2484 2136 1490 2232 2411 2992 2903 2802 2821 2531 2715 3382 3336 2756 3232 3499 3703 3630 2949 3160 3970 3656 3728 3962 4000 3836 3326 3461 3914
3088 2680 2532 2491 1888 1861 1974 2036 2247 2208 2667 2669 1986 1882 2442 1811 1985 2019 2622 2956 2784 2809 2866 2717 3466 3322 2939 3067 3372 3591 3536 3033 2659 3155 3570 3550 3674 3833 3654 3572 3675 3748
3045 3125 2435 2243 2358 1772 1826 1995 2192 1929 2558 2605 2098 1782 2193 2171 2044 2104 2687 3070 2960 3200 2979 2601 3268 3034 2912 3016 3287 3428 3469 3535 3271 3061 3190 3447 3499 3509 3456 3632 3598 3663
2741 2635 2461 2188 1861 1594 1893 1966 2144 2167 2164 2087 1854 1658 2012 1987 2321 2464 2901 3352 3020 3169 2987 2688 3197 2932 2841 2589 2942 3143 3418 3366 3338 3339 3209 3352 3463 3576 3757 3548 3563 3542
2472 2100 2182 2172 1842 1792 1980 1994 1959 2214 2102 2247 2046 1947 1954 1928 2450 2613 2832 3322 3053 3006 3134 2747 2868 2997 2931 2724 2540 2756 3212 3184 3259 3272 3041 3268 3436 3545 3721 3661 3526 3583
2269 2375 2633 2486 2093 1826 1856 2227 1950 2023 2096 1974 2079 2010 1700 1848 2126 2707 2859 3226 3200 3099 3064 3068 2890 2881 3199 3161 2813 2677 2887 3073 2977 3179 2988 3083 3213 3275 3253 3411 3371 3381
2596 2458 2607 2578 2349 2251 2240 2291 2236 2248 2395 2325 2373 2344 1722 1680 2027 2471 3157 3154 3275 3156 3073 3260 3333 3141 3407 3576 3326 2904 2810 3075 3130 3168 3006 3026 2951 3200 3172 3044 3120 3056
2770 2799 2870 2985 2612 2490 2534 2484 2373 2234 2248 2508 2631 2411 2042 1643 1804 2183 2540 2768 3106 3127 3073 3076 3281 3249 3322 3713 3651 3286 2829 2758 2953 2969 3061 3019 2962 2801 3165 3240 2877 2625
3303 3048 3015 3055 2884 2816 2817 2652 2576 2529 2349 2492 2777 2618 2514 2166 1710 2264 2464 2640 2942 3554 3517 3191 3091 3072 3132 3207 3243 3189 2889 2356 2810 2973 2799 2788 3067 3010 2912 3097 2824 2420
3609 3307 3195 3254 3200 3099 2980 2867 2821 2692 2622 2645 2960 2745 2675 2792 2283 2191 2412 2583 2635 3097 3545 3198 2839 2914 3229 3111 3158 2890 2802 2699 2862 3270 3264 3062 3089 3220 2977 2709 2690 2650
3640 3474 3350 3429 3351 3329 3154 3061 3030 2937 2785 2794 2882 2801 2853 2884 2693 2303 2276 2703 2805 2960 3239 3388 3487 3001 3109 3198 3282 3118 2762 2869 2768 3140 3245 3304 3199 2824 2972 2779 2592 2356
3849 3715 3608 3564 3544 3499 3327 3160 3211 3122 2940 2739 2803 2914 3009 2891 2710 2526 2403 2531 2966 3216 3112 3572 3589 2908 2926 3006 3251 3258 2982 2746 2579 2370 2453 2943 3012 3025 2755 2771 2634 2478
4064 3938 3748 3681 3695 3746 3568 3297 3155 3264 2907 2702 2478 2820 3054 3013 2874 2702 2567 2611 2747 3330 3384 3303 3328 2875 2704 2971 3050 3123 3032 2920 3006 2572 2326 2364 2916 3220 3017 2866 3049 2949
4298 4136 3980 3877 3870 3933 3824 3493 3296 3300 3087 2657 2201 2493 3063 3277 3016 2717 2757 2772 2633 3051 3323 2951 2876 2876 2651 2692 2920 3026 3072 2942 3275 3024 2535 2371 2675 3064 3286 3028 3096 3262
4403 4287 4234 4165 4069 4047 3996 3738 3469 3463 3331 2775 2236 2070 2738 3328 3437 2882 2942 2930 2727 2606 2692 2894 2289 2679 2541 2439 2707 2893 2967 2873 3044 3220 2847 2780 2834 2907 3151 3469 3430 3444
4315 4316 4424 4368 4281 4176 4115 3874 3638 3602 3501 3153 2685 2350 2316 2844 3254 2860 3045 2869 2864 2870 2732 2938 2964 2528 2480 2363 2374 2710 2818 2754 3019 3051 2944 2777 2918 3402 3421 3491 3718 3716
4437 4472 4611 4573 4399 4281 4243 4025 3782 3620 3474 3386 3106 2609 2292 2688 3138 3462 3327 2962 2857 3013 2858 3102 3064 2773 2521 2370 2261 2469 2578 2658 2866 3019 2986 2877 2902 3212 3675 3952 3840 4037
4725 4656 4761 4879 4638 4483 4212 4144 3823 3771 3513 3638 3085 2849 2863 3369 3612 3563 3270 3232 2940 2904 2730 2922 2803 3973 2617 2430 2183 2258 2382 2551 2950 3129 3127 3002 3000 3100 3270 3502 3724 3852
4687 4842 4883 4888 5076 4848 4928 4838 4312 3707 3615 3448 3251 2894 2977 3056 3454 3321 3457 3156 2810 3176 3562 3095 2647 4217 2632 2495 2302 2191 2274 2630 3200 3213 3066 3177 3232 3367 3277 3181 3301 3627

ECMWFNIL_con_mucape_063.txt.gz
CAPE
385 577 179 265 404 438 72 104 240 726 551 1348 1632 1730 1815 1911 1937 2268 2692 2727 2597 2722 3242 2442 3214 2523 2595 2806 2585 3056 2761 2568 2836 3007 2944 3025 3074 2862 2726 2169 1984 1691
419 548 527 154 189 724 288 119 225 393 877 613 1076 1714 1861 1860 1860 1896 2458 2594 2679 2574 3035 2870 2987 2834 2919 2810 2706 2350 2760 3320 2840 2960 2726 3202 2853 2724 2703 2283 2024 1794
515 484 475 191 116 425 777 358 368 247 751 805 928 980 1634 1772 1933 1799 2125 2367 2528 2505 2717 3227 2779 3053 2962 2917 2832 2806 2507 2914 2323 2628 2434 2756 2846 2879 2877 2619 2280 2200
647 489 436 278 101 143 891 811 804 454 616 924 956 1172 1078 1644 1628 2147 1884 2940 2390 2408 2671 2965 2994 2961 3016 3053 2891 2847 2879 2860 2768 2490 2851 2691 2802 2540 2619 2462 2613 2061
782 553 418 336 142 172 188 1138 1169 927 882 936 1042 1320 1235 1126 1458 2095 1886 2575 2359 2377 2586 2886 2968 3003 2973 3075 3121 2755 3014 2832 2915 2831 3006 3039 2747 2696 2723 2942 2785 2534
900 700 527 365 210 236 125 445 1390 1384 1250 1228 1058 1300 1468 1050 1326 1549 1986 2280 2300 2365 2526 2807 2871 2952 3066 2962 3106 2812 2791 3106 2852 2923 2848 3012 3138 2695 2566 2447 2519 2802
929 823 694 466 314 294 245 137 720 1548 1546 1468 1272 974 1574 1224 1272 1288 1906 1971 2217 2362 2532 2679 2756 2901 3036 2978 2978 2879 2756 2908 2761 2880 2853 2690 3025 2858 2550 2482 2649 2796
982 963 907 672 455 399 436 238 308 999 1571 1498 1503 1096 1001 1558 1385 1376 1655 1755 2015 2238 2445 2578 2641 2711 2929 2950 2918 2801 2731 2882 2634 2719 2695 2518 2775 2813 3052 2739 2742 2679
1041 1032 1060 971 693 605 651 470 423 611 1244 1410 1458 1390 946 1047 1659 1537 1599 1752 1768 2043 2222 2416 2524 2543 2691 2798 2780 2758 2664 2826 2672 2949 2689 2536 2674 2811 2872 3001 2899 2959
1135 1086 1158 1145 966 869 931 830 652 690 1108 1356 1352 1486 1269 842 1551 1624 1674 1773 1730 1911 2105 2170 2250 2360 2396 2530 2646 2622 2617 2661 2599 2710 2816 2619 2750 2932 3014 3014 2877 2830
1403 1217 1184 1265 1197 1037 1111 1172 1025 952 1114 1397 1380 1457 1471 1124 1116 1611 1827 1802 1801 1889 2044 2123 2115 2216 2268 2314 2512 2561 2590 2620 2581 2381 2587 2608 2536 2693 3327 3038 2914 2710
1625 1494 1295 1284 1335 1170 1130 1278 1312 1229 1230 1490 1535 1436 1562 1384 982 1369 1877 1956 1912 1982 2039 2064 2138 2242 2240 2204 2292 2500 2531 2582 2597 2424 2282 2559 2539 2533 2822 2893 2873 2863
1842 1655 1469 1322 1308 1244 1092 1160 1297 1409 1357 1475 1685 1545 1458 1561 1274 1216 1650 2052 2022 2065 2121 2015 2053 2271 2237 2154 2150 2328 2494 2551 2578 2586 2562 2339 2484 2596 2679 2842 2852 2794
1902 1853 1633 1402 1272 1197 1051 1074 1200 1402 1452 1455 1658 1666 1452 1528 1519 1303 1424 1865 2033 2026 2152 2100 1966 2201 2216 2105 2021 2115 2325 2443 2474 2484 2539 2558 2415 2505 2641 2741 2813 2828
1962 1945 1840 1529 1319 1272 1146 1120 1199 1432 1555 1533 1604 1647 1536 1489 1561 1444 1434 1744 1992 1959 2032 2131 1942 2051 2153 2038 1945 1934 2054 2249 2332 2362 2379 2402 2407 2419 2500 2562 2660 2744
2188 2104 1986 1850 1490 1362 1255 1189 1294 1461 1691 1726 1655 1631 1564 1479 1522 1519 1546 1697 2030 2088 2025 2132 2021 1867 2144 2074 1915 1893 1916 2072 2251 2294 2330 2323 2279 2265 2365 2477 2509 2599
2492 2156 2065 1897 1741 1448 1242 1198 1375 1483 1669 1816 1771 1691 1634 1505 1482 1525 1660 1715 1892 2130 2097 2106 2194 1980 1880 2123 2051 1936 1945 1993 2113 2228 2262 2360 2362 2274 2256 2376 2491 2547
2702 2346 2146 1877 1712 1580 1317 1287 1478 1559 1654 1857 1845 1761 1713 1566 1440 1450 1693 1818 1880 2042 2084 2050 2118 2206 2018 2005 2112 2054 1990 2078 2049 2122 2198 2273 2401 2441 2360 2284 2342 2454
2908 2590 2178 1935 1838 1719 1475 1388 1550 1629 1654 1785 1884 1828 1730 1643 1429 1376 1646 1817 1932 2060 2128 2074 2014 2114 2266 2146 2116 2143 2139 2096 2050 2040 2127 2140 2175 2288 2376 2347 2236 2232
2999 2716 2277 2050 2004 1902 1692 1532 1580 1690 1686 1726 1869 1865 1785 1731 1566 1389 1630 1761 1878 2024 2230 2270 2198 2123 2235 2309 2258 2251 2263 2222 2059 1974 2022 2164 2138 2084 2145 2288 2279 2170
3012 2722 2337 2253 2184 2079 1885 1708 1669 1726 1702 1671 1775 1888 1838 1791 1740 1528 1560 1816 1913 1947 2156 2464 2542 2485 2343 2304 2302 2309 2374 2406 2171 1953 1806 1998 2284 2275 2200 2180 2302 2305
2916 2716 2451 2367 2335 2252 2093 1881 1768 1778 1800 1705 1664 1842 1867 1804 1783 1694 1540 1697 1998 2064 2092 2344 2676 2782 2697 2532 2425 2394 2407 2437 2337 2116 1796 1651 1787 2220 2384 2322 2226 2184
2893 2715 2512 2521 2454 2392 2273 2084 1894 1827 1874 1833 1683 1720 1896 1841 1808 1773 1672 1574 1786 2205 2246 2268 2539 2878 2927 2846 2780 2754 2724 2641 2548 2379 2050 1828 1747 1715 2008 2330 2352 2219
2907 2726 2720 2655 2568 2490 2418 2291 2066 1902 1916 1967 1809 1664 1803 1884 1843 1802 1745 1666 1587 1801 2356 2393 2430 2670 2990 3016 2924 2831 2808 2816 2740 2604 2366 2042 1993 2054 2078 2211 2400 3073
3048 2928 2834 2768 2672 2588 2526 2462 2292 2051 1949 2028 1947 1726 1632 1852 1918 1850 1792 1746 1667 1600 1770 2311 2461 2478 2647 2872 2910 2802 2674 2661 2663 2616 2471 2268 2052 1964 2026 2188 2551 3350
3167 3038 2926 2854 2774 2670 2614 2581 2492 2267 2047 2030 2011 1832 1611 1628 1966 1951 1889 1860 1834 1766 1691 1686 1940 2394 2446 2375 2558 2614 2608 2591 2582 2534 2438 2294 2163 1964 1789 1725 1761 1981

ECMWFNIL_con_mucape_066.txt.gz
CAPE
0 0 111 2 0 0 2 0 0 228 711 920 1199 1444 1488 2064 2248 2403 2554 2482 2402 2470 2442 2369 2376 2431 2313 2179 1978 2119 2722 2773 2710 2576 2638 2661 2583 2400 2329 2190 2001 1848
0 9 171 97 0 0 0 2 0 66 494 866 954 1130 1142 1530 2221 2314 2486 2532 2436 2400 2408 2374 2333 2405 2221 2138 2011 2063 2500 2655 2704 2778 2661 2661 2665 2561 2480 2400 2354 2078
0 10 16 93 0 0 0 0 0 19 321 811 922 1029 1007 1143 1830 2263 2361 2475 2467 2378 2462 2510 2376 2396 2139 2039 2162 2123 2337 2511 2486 2698 2664 2609 2636 2547 2497 2470 2447 2291
30 3 0 17 26 0 0 0 0 2 150 360 873 1032 1101 1278 1373 1866 2211 2680 2349 2340 2352 2619 2420 2419 2138 2111 2123 2148 2281 2342 2265 2509 2677 2612 2630 2580 2499 2451 2544 2565
153 8 0 0 5 50 8 0 0 0 52 219 759 941 1119 1322 1432 1505 1762 2122 2266 2292 2253 2395 2524 2370 2281 2261 2187 2038 2093 2182 2281 2387 2568 2524 2509 2557 2495 2472 2500 2480
266 85 27 1 0 2 90 8 0 0 0 83 227 830 1045 1256 1413 1505 1532 1687 2094 2190 2152 2086 2494 2425 2347 2283 2347 2168 2179 2119 2165 2282 2310 2242 2174 2312 2352 2306 2289 2411
348 216 68 31 1 0 23 106 10 2 0 0 141 302 583 1058 1335 1415 1524 1522 1811 1958 1980 1962 2233 2470 2374 2310 2429 2321 2226 2278 2192 2287 2254 2282 2451 2400 2333 2288 2295 2322
415 323 170 72 39 0 0 24 123 49 4 0 12 173 365 324 386 925 1322 1496 1661 1817 1834 1870 2086 2342 2460 2351 2379 2465 2362 2311 2363 2292 2247 2196 2321 2550 2479 2200 2099 2124
517 437 309 164 85 25 0 0 29 181 179 75 40 86 362 442 313 329 701 1287 1577 1746 1806 1816 1995 2223 2406 2448 2390 2444 2468 2395 2394 2403 2348 2214 2196 2329 2450 2342 2115 2077
697 504 432 307 180 82 13 0 0 29 380 339 237 194 260 562 535 401 427 847 1337 1623 1752 1812 1906 2111 2305 2458 2469 2429 2455 2449 2381 2392 2443 2367 2225 2227 2262 2404 2373 2226
801 647 564 427 312 182 71 9 0 0 98 518 526 494 400 428 745 736 635 721 1047 1364 1609 1749 1858 1993 2155 2353 2466 2469 2441 2416 2386 2364 2396 2415 2361 2290 2475 2147 2308 2457
878 685 612 517 411 296 153 49 13 0 0 199 642 682 683 519 536 872 911 847 942 1139 1388 1602 1766 1908 2023 2149 2335 2453 2469 2438 2367 2332 2341 2408 2391 2326 2287 2256 2130 2261
1017 934 783 579 509 424 263 127 49 13 0 6 335 667 793 815 635 694 1022 1053 1015 1056 1171 1388 1582 1748 1906 2004 2110 2271 2389 2418 2387 2315 2277 2286 2372 2398 2358 2356 2360 2293
1116 1072 1008 864 630 502 410 251 150 87 29 4 90 416 646 844 862 728 812 1115 1172 1138 1148 1235 1396 1542 1706 1879 1977 2062 2224 2326 2351 2315 2250 2210 2218 2323 2419 2432 2421 2485
1265 1205 1157 1085 1008 841 498 456 334 264 201 119 140 313 561 704 880 849 782 952 1206 1259 1250 1265 1338 1433 1552 1690 1820 1911 1992 2138 2231 2246 2222 2202 2158 2146 2222 2319 2320 2366
1770 1492 1376 1296 1240 1195 1030 698 533 469 470 420 341 378 523 686 825 925 864 855 1089 1296 1337 1346 1396 1436 1599 1660 1732 1778 1819 1912 2068 2152 2192 2187 2175 2156 2156 2221 2296 2313
2100 1982 1758 1641 1589 1530 1479 1221 769 640 637 663 637 590 669 781 880 966 991 914 962 1227 1391 1424 1480 1515 1544 1651 1781 1805 1767 1775 1868 2025 2110 2150 2142 2136 2136 2162 2227 2278
2314 2025 2195 2244 2070 2014 1903 1597 1206 828 716 745 808 808 824 911 970 990 1066 1045 994 1093 1329 1455 1521 1586 1605 1625 1742 1834 1816 1729 1730 1837 1975 2065 2100 2098 2059 2037 2103 2210
2485 2423 2084 2243 2471 2519 2324 1986 1552 1184 857 774 840 931 948 1000 1063 1068 1099 1145 1120 1088 1191 1399 1536 1612 1692 1700 1694 1759 1826 1766 1660 1683 1789 1914 1993 2020 2000 1942 1909 1966
2155 2199 2147 2212 2536 2665 2637 2406 2008 1488 1146 855 835 975 1065 1074 1108 1134 1138 1178 1214 1201 1185 1297 1460 1570 1698 1758 1753 1749 1778 1794 1701 1618 1631 1748 1865 1939 1973 1976 1930 1872
1937 1927 2064 2127 2326 2648 2774 2679 2472 1987 1428 1121 884 990 1134 1188 1176 1174 1180 1198 1254 1283 1282 1317 1440 1546 1635 1734 1772 1765 1759 1786 1719 1639 1586 1622 1753 1881 1970 2014 2034 2006
1800 1748 1809 2082 2355 2557 2772 2845 2765 2529 1916 1394 1065 1020 1180 1272 1290 1247 1227 1208 1243 1314 1358 1383 1466 1588 1679 1745 1800 1799 1765 1756 1721 1651 1595 1584 1651 1784 1912 2008 2049 2072
1642 1648 1750 2166 2439 2585 2687 2802 2902 2770 2526 1959 1370 1109 1228 1354 1407 1401 1350 1278 1260 1320 1413 1454 1496 1572 1706 1799 1877 1929 1900 1806 1720 1642 1589 1581 1618 1666 1811 1953 2031 2059
1507 1553 1892 2300 2464 2592 2713 2758 2842 2888 2720 2446 1824 1358 1185 1368 1472 1497 1485 1432 1371 1338 1422 1508 1545 1613 1704 1785 1859 1960 2002 1963 1860 1744 1621 1578 1643 1657 1684 1795 2039 2533
1547 1777 2138 2441 2551 2612 2723 2830 2878 2928 2831 2639 2202 1608 1288 1390 1522 1557 1566 1546 1499 1448 1403 1513 1559 1633 1764 1860 1891 1896 1957 1963 1916 1848 1769 1718 1728 1762 1776 1776 1783 2312
1554 2030 2358 2574 2657 2698 2781 2898 2968 2977 2934 2716 2366 1869 1429 1433 1523 1612 1615 1619 1595 1552 1490 1519 1566 1620 1739 1956 2038 2004 1957 1928 1890 1882 1864 1870 1896 1920 1946 1969 1967 1922

ECMWFNIL_con_mucape_069.txt.gz
CAPE
0 0 0 0 0 0 0 31 366 852 1014 1242 1410 1582 1802 1987 2188 2327 2346 2423 2431 2382 2339 2317 2374 2449 2492 2539 2566 2543 2401 2100 2380 2482 2448 2438 2478 2386 2100 2021 2020 1924
0 6 28 0 0 0 0 0 0 223 802 1044 1222 1359 1572 1746 1991 2296 2370 2394 2407 2407 2400 2377 2409 2500 2540 2555 2515 2424 2310 2186 2422 2580 2600 2499 2505 2486 2383 2205 2153 2137
0 1 3 0 0 0 0 0 0 5 246 794 981 1091 1280 1421 1627 2057 2333 2371 2399 2366 2350 2358 2391 2430 2410 2365 2370 2361 2276 2104 2261 2536 2663 2622 2563 2627 2594 2506 2396 2293
2 0 0 0 0 0 0 0 0 0 2 170 402 841 1004 1171 1342 1774 2160 2611 2406 2402 2372 2361 2376 2420 2376 2296 2270 2272 2193 1977 2128 2350 2554 2644 2615 2567 2580 2588 2495 2391
14 1 0 0 0 0 0 0 0 0 0 33 230 412 787 990 1117 1468 1979 2248 2360 2405 2392 2392 2402 2412 2386 2336 2240 2170 2065 1928 2048 2240 2408 2540 2533 2494 2550 2562 2522 2398
53 2 0 0 0 0 0 0 0 0 0 0 125 439 565 864 959 1128 1643 2054 2275 2363 2392 2410 2452 2419 2415 2424 2332 2173 2032 1967 2072 2208 2329 2394 2389 2446 2529 2562 2555 2463
194 29 0 0 0 0 0 0 0 0 0 0 72 269 489 811 916 974 1212 1693 2096 2284 2338 2372 2390 2392 2407 2429 2414 2279 2079 2006 2062 2201 2291 2283 2282 2390 2478 2511 2486 2447
210 145 10 0 0 0 0 0 0 0 0 0 16 110 330 708 873 970 1044 1224 1616 2007 2183 2218 2218 2246 2305 2349 2381 2322 2207 2124 2089 2128 2213 2222 2274 2360 2423 2362 2311 2319
120 144 99 5 0 0 0 0 0 0 0 0 0 8 164 356 725 897 1030 1138 1228 1494 1825 1991 2050 2093 2145 2228 2273 2310 2274 2227 2200 2171 2131 2147 2188 2270 2290 2277 2304 2288
115 96 94 69 8 0 0 0 0 0 0 0 0 0 0 170 220 688 896 1073 1190 1285 1474 1707 1863 1945 1997 2081 2177 2224 2254 2245 2239 2249 2278 2259 2177 2127 2125 2186 2291 2335
250 144 105 90 64 6 0 0 0 0 1 1 0 0 0 0 116 97 116 731 1035 1208 1330 1488 1640 1763 1853 1945 2068 2148 2178 2208 2241 2270 2304 2342 2355 2266 2264 2050 2112 2230
438 312 214 149 90 25 0 0 0 0 0 0 16 0 0 0 0 66 119 50 162 657 1014 1269 1464 1600 1719 1835 1960 2089 2167 2206 2237 2290 2320 2352 2370 2390 2343 2197 2074 2109
678 686 668 382 209 110 13 0 0 0 0 0 1 29 26 6 0 2 124 132 89 128 342 770 1176 1450 1618 1744 1862 1997 2135 2198 2236 2282 2324 2338 2342 2369 2396 2391 2358 2288
779 770 782 764 731 512 136 42 0 0 0 0 0 0 53 85 70 38 42 182 199 174 209 418 761 1148 1453 1646 1765 1888 2043 2172 2237 2273 2292 2301 2314 2319 2334 2368 2396 2421
946 861 890 907 906 892 880 790 238 17 0 0 0 0 1 70 143 143 122 144 263 324 329 411 591 868 1188 1462 1659 1784 1891 2041 2159 2229 2243 2260 2278 2282 2269 2279 2324 2370
942 968 1000 1023 1018 1018 1008 984 968 872 593 0 0 0 0 1 78 198 237 213 226 352 472 559 644 764 1079 1258 1488 1643 1766 1870 1988 2092 2163 2190 2202 2204 2219 2213 2211 2232
1014 1026 1053 1074 1089 1062 1064 1054 1041 1059 1024 901 666 0 0 1 20 97 253 326 296 311 466 664 775 820 928 1084 1294 1503 1626 1731 1812 1916 2021 2098 2122 2142 2142 2128 2131 2139
1152 1128 1151 1157 1168 1163 1153 1122 1125 1121 1111 1112 1063 967 814 256 0 34 115 261 359 373 405 584 765 882 970 1040 1140 1302 1480 1580 1663 1739 1835 1936 2018 2061 2066 2059 2054 2048
1374 1282 1219 1278 1284 1286 1234 1223 1240 1236 1229 1235 1244 1247 1237 1102 822 108 80 163 299 379 422 509 690 843 994 1085 1145 1202 1306 1438 1494 1585 1642 1724 1826 1896 1944 1965 1982 1984
1561 1444 1261 1274 1386 1359 1366 1366 1369 1351 1342 1365 1446 1544 1560 1469 1370 1118 724 300 295 367 450 494 611 773 954 1072 1155 1218 1266 1328 1390 1454 1498 1548 1626 1714 1784 1841 1885 1910
1774 1714 1602 1430 1489 1446 1473 1502 1513 1482 1452 1451 1500 1733 1959 1916 1726 1416 1032 634 411 469 502 582 641 755 894 1051 1149 1224 1277 1313 1354 1392 1433 1472 1506 1566 1647 1718 1770 1806
1896 1868 1797 1784 1724 1660 1656 1693 1669 1612 1551 1514 1628 1767 2040 2274 2248 1956 1453 1075 692 618 650 699 740 783 875 990 1123 1212 1282 1333 1356 1370 1394 1435 1476 1503 1532 1606 1678 1730
2074 2035 2005 1976 1978 1996 1954 1932 1902 1819 1780 1720 1745 1894 2037 2256 2398 2283 1937 1379 953 733 784 808 838 882 921 976 1056 1174 1248 1312 1355 1372 1373 1392 1432 1470 1489 1504 1560 1634
1791 2088 2186 2198 2263 2315 2262 2190 2122 2066 1948 1915 1912 1970 2096 2289 2419 2488 2402 1983 1314 925 900 910 924 946 992 1026 1065 1121 1180 1246 1302 1340 1364 1393 1424 1460 1478 1489 1554 2156
1212 1323 1492 1940 2195 2303 2260 2137 2047 1998 1983 2010 2030 2057 2100 2213 2354 2503 2622 2465 1904 1232 938 971 973 988 1028 1069 1111 1152 1183 1226 1246 1268 1290 1334 1370 1408 1440 1465 1501 1802
1731 1486 1453 1430 1478 1715 1800 1779 1876 2046 2104 2114 2136 2140 2146 2175 2261 2450 2682 2772 2520 1916 1192 1008 1024 1031 1054 1102 1152 1179 1218 1248 1275 1275 1296 1304 1304 1321 1333 1382 1439 1507

ECMWFNIL_con_mucape_072.txt.gz
CAPE
12 0 0 0 0 0 122 575 946 1223 1322 1402 1580 1707 1862 2034 2237 2383 2497 2557 2547 2444 2353 2294 2370 2456 2552 2488 2510 2515 2461 2415 2387 2206 2195 2199 2219 2138 2092 1978 1742 1718
31 12 23 0 0 1 6 268 519 854 1018 1130 1314 1471 1650 1812 1999 2189 2316 2384 2468 2492 2383 2352 2325 2327 2366 2352 2377 2456 2510 2514 2493 2479 2296 2254 2327 2275 2290 2253 2072 1932
61 26 8 0 0 0 0 20 244 465 748 888 1045 1224 1388 1591 1734 1938 2130 2250 2347 2401 2412 2410 2378 2313 2278 2337 2411 2472 2485 2462 2393 2411 2623 2390 2420 2455 2405 2378 2377 2249
98 48 25 7 0 0 0 0 3 89 304 551 806 986 1151 1368 1517 1745 1975 2688 2294 2356 2415 2418 2399 2362 2318 2356 2381 2386 2359 2296 2285 2232 2489 2572 2492 2546 2529 2498 2522 2514
115 69 40 27 3 0 0 0 0 0 18 275 467 706 1024 1158 1303 1498 1784 2143 2282 2316 2381 2416 2398 2380 2354 2325 2340 2365 2303 2196 2171 2143 2213 2379 2436 2473 2502 2456 2456 2488
123 102 85 37 18 1 0 0 0 0 0 2 150 549 682 894 1056 1224 1597 1824 2108 2211 2291 2349 2390 2385 2361 2338 2360 2372 2287 2158 2108 2058 2072 2227 2308 2318 2408 2428 2400 2423
147 78 55 40 19 6 0 0 0 0 0 0 11 209 479 629 840 987 1308 1649 1936 2189 2207 2224 2288 2332 2324 2334 2356 2384 2306 2197 2135 2044 2068 2138 2196 2247 2146 2328 2345 2310
201 81 48 27 14 9 26 0 0 0 0 0 0 18 286 522 671 775 1055 1400 1757 1987 2124 2173 2140 2178 2216 2284 2346 2370 2303 2250 2194 2102 1994 2051 2033 2184 2232 2132 2254 2254
264 154 41 6 3 2 10 10 0 0 0 0 0 1 161 359 513 675 826 1091 1451 1771 1947 2063 2064 2060 2119 2196 2276 2302 2258 2208 2169 2142 2054 2033 1961 2118 2135 2119 2126 2201
395 227 82 7 0 1 2 4 4 0 0 0 0 0 47 300 412 580 760 868 1075 1406 1678 1881 1950 1951 2003 2069 2143 2174 2169 2157 2138 2133 2101 2049 2076 2051 1999 2055 2161 2200
374 427 417 94 11 5 7 2 0 0 0 0 0 0 1 103 375 474 655 798 919 1039 1261 1526 1743 1802 1835 1890 2011 2088 2133 2132 2124 2118 2114 2130 2116 2062 2174 2030 2058 2139
355 434 458 461 372 28 9 3 0 0 0 0 0 0 0 0 112 286 479 634 820 936 1014 1190 1403 1579 1671 1780 1868 1961 2029 2080 2120 2131 2110 2145 2154 2117 2137 2162 2076 2089
433 436 454 477 458 432 340 82 0 0 0 0 7 0 0 0 0 53 309 350 507 750 942 1044 1171 1344 1476 1581 1715 1830 1946 2064 2060 2100 2150 2107 2121 2142 2100 2110 2130 2142
492 477 470 476 499 517 507 498 444 2 0 0 0 2 1 0 0 0 3 170 172 266 514 815 1040 1206 1326 1415 1545 1670 1827 1939 2032 2096 2118 2125 2136 2149 2124 2128 2130 2148
588 562 546 514 536 553 584 629 633 616 547 0 0 0 0 3 3 0 0 3 63 96 111 249 560 916 1162 1301 1411 1536 1669 1832 1963 2050 2111 2155 2149 2093 2070 2112 2124 2147
680 659 652 657 634 631 630 671 700 723 721 698 0 0 0 0 0 3 3 3 9 60 112 137 194 387 685 788 984 1322 1508 1643 1819 1946 2080 2120 2194 2157 2047 1958 2004 2032
715 697 716 743 754 736 721 733 744 776 783 774 790 792 734 581 0 0 10 31 35 44 94 171 233 255 99 1 589 847 1208 1479 1654 1785 1955 2086 2102 2123 2115 2070 1963 1947
741 733 715 764 791 805 838 862 874 852 883 895 887 874 864 869 845 766 632 198 57 82 100 152 245 181 0 0 0 317 791 1248 1515 1610 1765 1906 2017 2036 2058 2060 2023 1938
793 755 767 816 822 808 816 885 932 974 1030 1044 1049 1016 992 966 958 972 956 894 762 618 358 167 242 64 0 0 0 0 288 853 1356 1475 1596 1728 1836 1923 1965 1978 1994 1977
856 820 926 874 895 911 864 831 859 968 1063 1134 1142 1143 1102 1074 1053 1060 1097 1091 1050 969 846 716 455 107 0 0 0 0 0 619 1028 1376 1476 1548 1601 1752 1814 1889 1900 1923
856 905 905 924 956 992 990 927 916 924 932 989 1148 1197 1203 1174 1150 1146 1154 1194 1218 1206 1159 1066 954 845 646 0 0 0 0 542 655 1156 1283 1397 1456 1524 1628 1767 1742 1836
992 958 1150 1072 1090 1130 1130 1054 982 1009 962 910 1018 1124 1188 1216 1237 1218 1238 1231 1286 1427 1517 1458 1301 1104 920 519 0 0 0 0 582 816 1113 1312 1360 1391 1454 1560 1702 1713
1120 1089 1071 1189 1246 1270 1219 1164 1116 1119 1112 980 1023 1032 1213 1318 1364 1390 1364 1288 1217 1237 1615 1716 1615 1391 1075 817 0 0 0 0 345 638 877 1147 1246 1337 1387 1454 1555 1605
1220 1172 1177 1334 1358 1366 1323 1262 1235 1241 1292 1310 1196 1186 1320 1447 1504 1527 1514 1416 1271 1187 1208 1765 1930 1771 1438 1057 692 58 0 14 138 487 696 912 1151 1283 1354 1388 1432 1852
1190 1168 1097 1285 1438 1490 1439 1395 1375 1401 1443 1444 1447 1465 1535 1648 1680 1688 1646 1604 1540 1365 1267 1393 1871 2142 2033 1588 1105 735 231 50 212 371 570 786 1020 1154 1276 1348 1339 1596
1421 1332 1249 1236 1246 1427 1529 1589 1593 1579 1609 1668 1690 1685 1712 1782 1837 1818 1771 1719 1681 1589 1430 1384 1615 2145 2321 2162 1651 1134 762 435 294 469 600 754 879 1026 1191 1276 1320 1337

ECMWFNIL_con_mucape_075.txt.gz
CAPE
1503 1368 1262 1181 1205 1238 1603 2052 2079 2370 2936 2821 3029 3200 3375 3513 3563 3621 3574 3594 3504 3486 3577 3745 3870 3879 3771 3955 4173 3978 3827 3735 3468 3589 3692 3353 3174 2921 2486 2596 2725 2506
1484 1385 1359 1153 1359 1450 1620 1761 2202 2436 3035 3190 2958 3267 3484 3575 3589 3606 3651 3698 3756 3571 3961 3751 3807 3798 3835 3540 4091 3852 4007 3866 3856 3384 3700 3791 3423 3023 2722 2692 2561 2989
1445 1354 1182 1075 933 952 723 1139 1814 2236 2398 2470 2806 3160 3142 3145 3192 3441 3613 3645 3601 3353 3896 3834 3785 3946 3758 3719 3840 3672 3656 4091 3856 3417 3776 3806 3476 3192 3125 2467 2500 2913
1506 1333 1052 915 840 868 772 1084 1491 1831 1876 2281 2389 2410 2598 2486 2916 3250 3516 3548 3617 3654 3648 3601 3605 3539 3784 3793 3918 3538 3415 3950 3639 3846 3840 3856 3828 3489 3284 3240 2991 2969
1418 1356 1127 1055 950 964 966 872 775 1178 1354 1619 1891 2330 2644 2701 2870 2815 3179 3398 3624 3636 3742 3730 3814 3655 3900 3810 3926 3699 3508 3444 3539 3928 3790 3833 3967 3871 3524 3433 3517 3204
1423 1430 1358 1164 1142 1121 856 769 812 899 1072 1283 1683 1913 2051 2509 2552 2556 2836 2915 3133 3108 3039 3310 3513 3466 3658 3831 3843 3666 3417 3147 3037 3870 3706 3518 3371 3526 3271 3592 3826 3563
1300 1378 1239 1116 1046 976 886 779 800 841 785 888 1485 1613 1824 2044 2287 2504 2746 2791 2726 3012 2923 3204 3574 3474 3573 3709 3835 3858 3854 3799 3590 3843 3686 3389 3436 3445 3267 3529 3824 3787
1138 1106 1157 1107 980 943 880 792 789 794 789 913 996 1293 1573 1548 2012 2073 2343 2585 2605 2872 3089 3280 3606 3716 3472 3382 3651 3701 3755 3483 3614 3869 3786 3524 3563 3616 3708 3409 3713 3931
1107 1130 1092 1068 943 869 805 693 716 691 729 700 475 606 1225 1268 1647 1599 2183 2502 2425 2738 3231 3135 3580 3484 3333 3426 3429 3640 3614 3309 3116 3430 3550 3362 3412 3516 3384 3539 3522 3674
1240 1120 946 912 826 802 773 723 642 605 707 533 468 413 698 1126 1315 1472 2005 2322 2316 2533 2954 2890 3204 3118 3226 3290 3480 3512 3533 3641 3576 3518 3396 3295 3112 3109 3142 3369 3315 3446
1121 1077 979 887 785 731 739 704 668 616 573 468 420 371 448 775 1242 1424 1784 2083 1835 2107 2403 2677 2816 3010 3183 3001 3121 3252 3387 3248 3324 3528 3465 3413 3263 3327 3266 3375 3353 3170
1106 1042 971 927 822 744 696 676 658 632 592 518 436 462 521 567 986 1124 1383 1852 1857 1872 2086 2404 2607 2896 3105 3034 2740 2858 3119 3076 3133 3359 3237 3354 3342 3282 3387 3409 3186 3240
1053 1044 1088 957 949 840 590 633 640 604 585 571 509 462 506 527 683 1062 1356 1488 1889 1881 1769 2139 2436 2465 2859 3064 2865 2754 2988 3058 2724 2981 3061 3088 3150 3024 2911 3062 3201 3122
994 1102 1157 1147 1096 1110 994 810 482 639 641 613 656 551 442 431 506 805 1183 1207 1471 1667 1779 2024 2370 2334 2667 2827 2809 2661 2734 2846 2820 2648 2567 2776 2832 2878 2748 2653 2893 2982
1169 1066 1173 1294 1297 1358 1245 1031 825 532 720 683 786 707 528 432 418 488 794 1009 1090 1416 1562 1674 1714 1893 1933 2328 2514 2661 2618 2349 2516 2553 2470 2506 2690 2508 2661 2898 2734 2756
1426 1334 1311 1440 1372 1516 1618 1344 1149 1014 591 607 697 687 677 668 528 465 469 736 900 1206 1300 1338 1424 1475 1636 1328 1635 2189 2416 2030 2111 2435 2421 2280 2543 2655 2457 2603 2628 2651
1679 1566 1510 1547 1591 1633 1619 1531 1376 1190 1084 1035 662 668 677 683 628 587 374 332 450 707 859 837 897 860 922 818 876 973 1649 2209 2160 2434 2635 2606 2285 2642 2554 2223 2476 2655
1534 1531 1627 1687 1730 1620 1543 1579 1453 1326 1302 1304 938 689 738 752 772 757 707 522 367 423 456 538 600 362 0 0 0 0 420 1462 1705 1735 1790 2131 2183 1961 2221 2324 2221 2402
1789 1775 1794 1724 1808 1773 1739 1668 1590 1441 1343 1167 741 757 773 795 838 849 861 865 830 763 681 430 485 166 0 0 0 0 0 275 917 1236 1290 1504 1731 2073 1973 2260 2536 2516
2043 1816 1829 1872 1980 1990 1913 1806 1602 1528 1286 906 794 897 828 891 920 932 925 943 938 942 926 922 881 798 469 216 0 0 0 60 692 775 1191 1322 1546 1826 1971 2113 2548 2686
1860 1990 1894 1870 1943 1944 2014 1958 1855 1787 1574 1330 1137 953 1203 1165 954 996 1018 1037 1040 1016 1018 1026 1058 1065 1065 1000 901 725 111 0 347 660 832 1330 1633 1878 2116 2033 2348 2758
1558 1691 1842 2005 2046 2076 2056 2033 1995 2103 2033 1754 1511 1244 1079 1128 991 1002 1075 1112 1120 1094 1092 1080 1104 1131 1158 1161 1160 1102 1008 822 608 823 973 1089 1551 1964 2060 2328 2347 2538
944 1497 1768 1859 1993 2034 2048 1981 2019 2139 2168 1982 1755 1451 1083 1191 1302 981 968 1043 1128 1162 1172 1184 1176 1179 1191 1232 1284 1294 1269 1174 1000 778 1101 1206 1325 1809 2119 2202 2407 2565
1025 1035 1058 1279 1940 1895 2029 1958 1866 1872 1884 1879 1846 1652 1449 1108 1122 1330 1238 945 1053 1144 1208 1258 1296 1301 1270 1236 1166 1384 1488 1460 1339 1161 969 1377 1422 1646 1996 2277 2425 2209
1129 1102 1095 1115 1152 1374 1651 1441 1820 1306 1818 1812 1665 1424 1588 1545 1249 1177 1250 1106 1108 1230 1316 1374 1435 1469 1455 1402 1296 1227 1443 1605 1656 1511 1195 1283 1324 1530 1914 2111 2365 2154
1092 1166 1174 1130 1087 1062 1029 1299 1214 1615 1548 1907 1940 1826 1367 1368 1369 1267 1276 1284 1244 1319 1432 1510 1576 1621 1624 1603 1582 1443 1323 1528 1786 1802 1595 1337 1350 1297 1632 1989 2088 2328

ECMWFNIL_con_mucape_078.txt.gz
CAPE
2574 2480 2420 2218 1886 1526 1626 1804 1669 1737 2037 2242 2310 2380 2380 2794 2575 2773 2775 2797 2957 2842 3148 3653 3648 3862 4027 4212 4926 3786 3854 3928 3592 3724 3166 2664 2288 1732 1317 1270 1266 1098
2473 2462 2260 2068 1979 1920 1832 1758 1913 1706 2008 2251 2162 2338 2835 3014 2968 2730 2746 2826 3072 2739 2970 3212 3551 3746 3885 3723 4395 3901 4127 3889 3863 3276 3294 3407 3036 2272 1898 1724 1479 1384
2429 2399 2237 1971 1709 1964 1518 1538 1718 1829 1649 1906 1877 1960 2655 2746 3210 3045 2930 2795 2780 2405 2765 3020 3287 3456 3643 3884 4776 4052 3763 4524 4094 3358 3598 3622 3479 2590 2642 1542 1504 1645
2580 2194 1999 1687 1346 1568 1598 1416 1586 1652 1524 1516 1669 1645 1730 1548 1986 2949 3035 3030 2570 2633 2711 2890 2712 2997 3349 3375 3852 3796 3852 4715 3628 3890 4020 3935 3655 3370 3065 2420 1925 1677
2481 2258 1880 1739 1426 1388 1595 1464 1280 1488 1418 1161 1451 1584 1860 2037 2261 2125 2494 2969 2670 2538 2584 2854 2929 2894 3186 3318 3581 3457 3414 3670 3757 4476 4206 4078 4155 3621 3368 3206 3154 2441
2666 2467 2210 1897 1703 1680 1596 1594 1520 1255 1371 965 1293 1360 1589 2405 2138 1726 1967 1954 2250 2019 1896 2208 2498 2541 2952 3247 3457 3343 3175 2849 2819 3938 3878 3812 3643 3257 3046 3279 3540 3273
2567 2606 2238 2012 1806 1656 1841 1693 1617 1470 1092 1100 1100 1401 1418 1707 2034 1831 1920 1774 1374 1420 1309 1703 2255 2198 2388 3054 3332 3507 3416 3212 3250 3585 3698 3508 3369 3403 3334 3387 3789 3815
2441 2401 2498 2165 1766 1637 1937 1784 1686 1658 1483 1373 1065 1342 1575 1359 1735 1641 1900 1981 1506 1465 1557 1526 2075 2529 1919 1992 2797 3186 3283 3120 3138 3346 3658 3381 3377 3400 3560 3525 3780 4045
2424 2398 2489 2278 1857 1558 1538 1432 1548 1665 1641 1575 1118 884 1481 1346 1190 1303 1562 2078 1947 1741 2240 2024 2340 2399 2017 1662 1957 2465 2581 1863 1664 2408 3083 3148 2873 2903 2991 3455 3588 3676
2481 2354 2179 2206 1805 1516 1339 1255 986 1324 1626 1553 1331 722 742 1321 1182 1126 1473 2210 2532 2274 2625 2638 2661 2599 2310 1982 2275 2380 2467 2594 2212 2056 2111 2345 2360 2445 2575 2657 2784 3290
2152 2182 2041 2005 1771 1398 1285 1177 1021 814 1270 1425 1268 820 531 745 1410 1354 1432 2140 2496 2248 2440 2718 2559 2802 2618 1986 1874 2003 2191 1937 1984 2312 2492 2438 2213 2351 2453 2518 2643 2743
2019 2027 1903 1887 1837 1582 1291 1176 1075 922 867 1321 1277 975 754 531 1062 1503 1420 1915 2454 2078 2056 2518 2619 2664 2775 2438 1532 1451 1707 1762 1630 1986 2066 2313 2232 2008 2161 2495 2377 2527
1808 1925 1979 1820 1886 1770 1465 1244 1115 1007 966 1071 1352 1118 867 635 649 1359 1607 1686 2213 2152 1611 2018 2618 2570 2732 2946 2158 1394 1496 1950 1554 1550 1792 1929 2093 1777 1450 1656 2102 2285
1511 1732 1960 1991 1923 2010 1910 1553 1346 1220 1180 1140 1417 1439 1104 871 664 925 1502 1579 1624 1632 1671 1626 2297 2687 2857 3075 2851 1957 1520 1780 2046 1690 1321 1612 1717 1752 1487 1052 1171 1622
1428 1338 1608 2049 2077 2135 2138 1941 1725 1643 1608 1567 1596 1586 1374 1223 1035 812 1073 1345 1259 1239 1214 1212 1186 1838 1954 2365 2690 2596 1978 1493 1827 2106 1756 1322 1425 1378 1550 1599 1134 810
1691 1693 1665 1877 2072 2339 2453 2296 2011 1910 1755 1800 1741 1745 1736 1587 1392 1235 1002 1206 1367 1442 1337 1075 890 846 1344 1251 1725 1999 2145 1292 1172 1774 2020 1707 1707 1850 1507 1236 1299 1187
1970 2085 2055 1908 2247 2569 2611 2660 2385 2059 1963 2048 1997 1895 1925 1938 1759 1484 1187 1059 1120 1335 1396 1164 910 596 616 1079 1255 1429 1485 1819 1748 1598 2192 2462 2067 2090 2258 1593 1173 1118
2002 2375 2478 2228 2255 2543 2784 2880 2694 2339 2182 2188 2077 1884 2082 1932 1818 1737 1635 1278 1036 1101 1213 1266 1267 828 116 725 990 1005 1123 1218 1134 1561 1623 1973 2276 1911 1774 1904 1674 1124
1939 2155 2326 2371 2516 2633 2674 2692 2864 2693 2362 2186 2018 2080 1839 2039 2016 1794 1848 1689 1350 1217 1078 1110 1172 862 815 160 499 764 744 756 707 672 961 1372 1514 2020 2078 1986 1918 1900
2269 1883 1937 2019 2350 2509 2586 2572 2559 2676 2399 2048 1897 1968 2108 2059 1905 1904 1782 1896 1754 1530 1411 1232 1151 879 787 682 371 0 0 230 1053 615 584 784 1174 1512 1762 2034 2270 2202
2146 2199 2093 2052 2008 2226 2224 2282 2320 2285 2352 2087 1682 1732 1952 2118 1996 1909 1854 1817 1658 1579 1594 1386 1225 845 852 824 812 778 731 652 924 767 669 728 852 1160 1571 1813 2235 2533
1589 1819 1631 1892 2248 2135 2106 2176 2190 2354 2319 2308 2027 1603 1673 1763 1991 1978 1882 1853 1732 1666 1568 1545 1478 949 961 977 952 959 929 897 836 814 849 786 830 930 1234 1789 2159 2350
784 1258 1717 2144 1877 1878 1949 1934 1947 2131 2111 2437 2426 2344 1701 1670 1902 1983 2117 1984 1896 1888 1773 1724 1652 1270 1033 1042 1060 1056 1047 1040 1020 987 928 832 706 1040 1200 1473 2007 2508
911 934 1065 1566 1838 1948 1853 1830 1746 1515 1595 2103 2503 2448 2256 2089 1959 2039 2145 2202 2167 2053 1858 1927 1865 1637 1190 1094 1105 1102 1080 1072 1085 1105 1094 1079 1042 1266 1256 1413 1826 2122
932 962 963 1317 1541 1602 1628 2032 1893 1575 1775 1686 1696 2106 2353 2282 2150 1881 2010 2235 2170 2106 1630 1577 1977 1841 1420 1211 1099 1140 1159 1156 1155 1143 1185 1193 1204 1362 1556 1626 1695 1998
420 656 857 943 1047 1352 1504 1915 1680 1604 1438 1782 2170 2076 1957 2062 2099 2154 2045 1902 2021 2103 2116 1817 1953 2118 2983 1472 1294 1140 1184 1227 1244 1215 1203 1419 1570 1315 1813 1909 1950 2116

ECMWFNIL_con_mucape_081.txt.gz
CAPE
2389 2171 2212 2124 1665 1234 1156 1388 1328 1623 1942 2218 2310 2247 2463 2312 2811 2870 3047 3110 2864 3169 3607 4423 4255 4408 4253 4641 4271 3820 3959 4165 3523 3308 3099 2198 1926 1612 1263 1257 1375 1268
2595 2287 2179 1776 1815 1540 1295 1215 1369 1310 1732 2546 2414 2554 2564 2536 2459 2949 3211 3275 3276 2641 3453 3458 4288 4228 4439 3821 4134 3859 4716 4084 4074 3294 3451 2756 2346 1580 1212 1358 1048 1246
2504 2355 2274 1858 1460 1695 1103 1302 1462 1461 1524 1824 2417 2697 2856 2910 2326 2467 2622 2891 2825 2443 2580 3345 2706 3823 3824 4204 4730 4075 4072 4691 3883 3008 3032 3719 3183 2224 2317 1014 1270 1291
2659 2256 1964 1700 871 1195 997 990 1317 1494 1314 1624 1769 2130 2573 2421 2685 2469 2646 2598 2587 2719 2794 2660 2993 3344 3418 4034 5286 3784 3870 4678 3433 4040 4078 4235 3562 3152 2725 2033 1510 1113
2707 2312 1860 1624 977 902 1121 784 772 1144 920 999 1335 1449 1720 1920 2096 2647 2490 2516 2551 2526 2641 2733 2726 2987 3280 3344 4150 3637 3725 4123 3752 3672 4839 3915 4412 3203 3096 2899 2576 1686
2908 2630 2121 1787 1303 1056 1018 924 890 762 798 610 989 966 1440 1824 1981 2015 2184 2314 2155 2048 1921 2302 2561 2321 2549 3140 3292 3197 3054 3196 3131 3940 3562 3520 3318 3167 2702 2619 2935 3049
2822 2764 2223 1731 1491 1399 1347 1014 1058 875 673 602 877 779 939 1494 2062 2003 1812 1915 1866 1490 1344 1821 2197 2063 2190 2824 3131 3340 3208 3045 2964 4073 3897 3640 3382 3288 3112 3234 3458 3647
2400 2599 2388 1887 1451 1211 1415 1237 1188 1199 807 686 615 922 993 1028 1819 1981 1715 1673 1549 1516 1350 1364 2043 2323 2017 2087 2818 3201 3201 2759 2772 3889 4568 3436 3305 3182 2907 3172 3569 3767
2266 2280 2291 1844 1328 908 1042 858 1172 1245 1192 917 614 538 972 1033 1100 1302 1427 1745 1617 1512 1704 1590 2119 2236 2108 1962 2324 2643 3059 2854 2184 2394 2729 2995 3024 3024 3001 3045 3021 3681
2412 1969 1774 1694 1207 807 666 578 386 713 1255 1113 778 249 462 1057 1051 1025 1110 1702 1810 1606 1659 1788 1939 1991 2010 1839 1852 2187 2520 2544 2118 1936 2248 2636 2620 2495 2422 2455 2607 2971
2313 2024 1518 1557 1274 860 534 386 170 160 513 980 828 349 93 461 939 1082 1336 1702 1821 1950 1774 1945 1837 1963 2039 1712 1546 1661 2004 1873 1611 1657 1745 1898 1856 1953 1960 2193 2322 2406
2357 2123 1784 1504 1273 810 687 498 180 98 147 508 565 426 143 40 684 867 905 1555 1976 2186 2124 2174 2203 2090 2090 1895 1442 1178 1289 1380 1400 1475 1567 1741 1746 1590 1795 1943 1977 2282
2105 2004 1983 1716 1496 1340 890 511 506 244 72 152 330 431 250 78 98 850 964 1114 1743 2138 2065 2158 2222 2111 2336 2242 1720 1050 899 1087 919 1082 1271 1486 1668 1555 1318 1406 1568 1540
1915 2033 1966 2073 1841 1728 1342 688 655 562 294 129 293 288 245 170 75 285 981 1004 1261 1757 1887 1793 2014 2234 2353 2342 2135 1144 655 825 876 774 805 970 1046 1254 1184 864 958 1250
2082 2032 1993 2141 2083 2170 2113 1611 1164 911 966 700 605 487 392 182 97 54 441 1064 1115 1427 1485 1161 1052 1646 1872 2080 2255 2204 941 459 660 910 797 747 805 872 989 968 704 612
1899 1964 2079 2316 2329 2438 2522 2298 1978 1692 870 946 774 528 810 766 543 243 111 554 1019 1212 1191 868 458 481 1348 1344 1783 1990 1662 611 383 688 1058 861 855 805 601 656 764 605
1910 2137 2096 2249 2401 2724 2870 2947 2555 2070 1793 2097 1504 1084 1421 1855 1302 644 356 265 478 801 972 618 238 104 342 993 1336 1554 1548 1317 788 707 1092 1264 1178 1496 1293 681 334 357
1862 1498 1573 1642 2089 2130 2789 3004 2908 2764 2306 1922 1714 1593 2112 1192 1132 1357 1323 664 500 432 430 556 384 83 0 7 1024 1254 1526 1571 888 750 518 642 1177 1272 1173 1114 847 365
1402 1921 2224 1833 2323 3223 2917 2765 3042 3066 2820 2053 1567 1973 1782 1947 2167 1587 1662 1684 1234 982 554 457 434 291 0 0 0 939 1115 1118 431 299 319 357 486 1006 1233 1111 1014 884
1002 1337 1827 2036 2260 2620 2794 2822 2634 2893 2725 2422 1925 1808 2229 2115 2053 2100 1958 2158 2020 1742 1537 936 709 439 0 0 0 0 779 968 844 313 144 119 356 412 693 1120 1524 1376
1163 1717 1911 1905 2055 1922 1468 1552 1836 1860 2191 2629 2592 2131 1846 2477 2411 2232 2258 2275 2137 2055 1993 1566 983 805 596 393 598 724 732 702 1118 858 777 671 532 477 929 810 1641 1739
555 695 1302 1648 1636 1358 1468 1788 2050 2068 1813 1923 1837 1985 1976 1584 1807 2453 2537 2358 2243 2138 1922 1851 1472 1000 915 834 792 777 783 772 1290 1390 1275 1245 1224 1081 909 1272 1198 1625
553 542 602 1114 1748 1500 1222 1355 1549 1592 1720 2013 2211 1950 1893 1520 1426 1919 2537 2352 2134 2276 2169 2068 1903 1641 1209 1005 864 822 785 887 1305 1368 1465 1503 1486 1578 1528 1318 1241 1601
529 576 590 589 1001 971 897 1325 1643 1705 1536 2094 1416 1442 1710 1952 2002 1920 1958 2027 2341 2292 1888 2224 2172 2000 1553 1345 1130 1004 919 1060 1480 1410 1511 1610 1692 1828 1765 1732 1719 1628
569 576 642 672 574 723 1418 909 1100 1607 1843 2281 1823 1947 2057 2116 1984 1947 2019 2301 1994 1826 2026 2090 2029 2130 1826 1692 1492 1302 1138 1215 1485 1458 1496 1615 1666 1899 2018 1978 1920 1938
292 354 445 517 593 670 756 1726 1444 1267 1611 2189 2187 2221 1594 1747 1759 2190 2387 2233 1856 2236 2310 1828 2022 2301 2619 1797 1752 1661 1491 1367 1669 1607 1605 1668 1884 1912 2226 2251 2212 2187

ECMWFNIL_con_mucape_084.txt.gz
CAPE
2830 2681 2463 2472 2322 2236 2348 2263 1780 2203 2988 2503 2536 2496 2916 3102 2679 2945 3044 3156 3222 3601 3951 4227 4050 4130 3989 4013 4252 4230 5656 3595 3749 3840 3439 2919 2803 2091 1309 1440 1475 1926
2886 2710 2766 2392 3000 2962 2866 2154 2262 2384 3225 3464 3119 2838 2916 3037 2679 2895 3156 3109 3353 3005 3920 3662 3897 3829 4080 3828 4301 4024 4055 4273 4429 2921 3259 2858 3067 1926 1341 1512 1354 1620
2633 2734 2434 2255 1825 1742 1024 1434 2099 2177 2585 2433 2705 3233 2762 2436 2875 3286 3415 3217 2713 2457 3674 3857 4054 4041 3883 4302 4277 4549 4398 4563 4521 3298 3547 3442 2758 2661 2029 1031 1367 1372
2864 2545 2105 1731 1747 1500 1184 1494 2056 2076 1773 2229 2374 2241 1717 1558 2492 2881 3526 3326 3293 3112 2926 3172 3358 3403 3752 3879 4160 4021 3975 4684 4234 3924 3853 4008 3628 2817 2242 2263 1553 1568
2518 2436 2201 1912 1526 1666 1471 1315 1076 1345 1347 1744 1702 2358 3020 3411 2614 2372 2968 3216 3647 2941 3354 3391 3189 3282 3730 3847 3979 4527 3868 3977 4050 4595 4946 4523 4174 3598 3300 2686 2526 2093
2848 2674 2490 2232 1814 1858 1175 1031 1067 1275 1284 1240 1657 1785 1973 2488 2632 2443 2491 2452 2187 2023 2108 2481 2786 2870 2957 3642 4191 4316 3466 3766 3425 3956 4168 4003 3509 3250 2046 3150 3105 2646
2354 2510 1987 1828 1317 1192 1192 1039 967 1219 908 815 1540 1384 1700 1815 2528 2638 2591 2657 2203 2460 2122 2618 3149 2941 3002 3410 3830 4206 4107 3860 3580 4232 4035 3931 3968 3681 2598 2840 3360 3317
2653 2244 2092 1784 1290 822 962 1054 876 978 1173 969 965 1475 1405 1339 2036 1563 2349 2441 2208 2134 2160 2438 3388 3345 2396 2704 3488 3797 3675 2726 3131 4190 4272 4149 3906 3874 3774 3192 3700 3824
2424 2614 2174 1742 1262 778 670 737 916 811 1197 927 499 711 1092 1256 1842 1698 2270 2589 2253 2363 2494 2284 3182 2837 2514 2624 3137 3665 3490 2849 2265 3413 4347 4170 3830 3841 3525 3391 3419 3856
2200 2218 2088 1491 1025 738 783 702 760 658 1016 760 464 504 648 1153 1492 1772 2362 2688 2553 2712 2882 2116 3204 2503 2545 2586 3282 3366 3426 3603 3650 3366 3396 3349 3336 3321 3134 3330 3218 3496
1038 1254 1698 1825 1088 665 630 597 626 747 801 609 430 304 619 840 1350 1879 2332 2686 2084 2344 2670 2504 2769 2751 2833 2379 2268 2546 3134 2993 3068 3254 3218 3221 3127 3307 3347 3340 3233 3015
1274 1177 1226 1257 1388 806 424 465 426 394 658 796 648 521 521 701 1184 1268 1878 2378 2142 2167 2247 2529 2525 2749 2835 2587 1969 1993 2472 2656 2955 2871 2482 2785 2825 2927 3010 2881 2595 2907
1953 1189 1170 622 1096 532 230 370 202 84 179 528 765 713 460 200 901 1286 1501 2083 2278 2248 2059 2370 2539 2485 2808 2827 2541 2176 2153 2146 1984 2140 1963 2000 2007 1984 1796 2024 2191 2261
1445 2053 1406 857 1410 1589 1391 438 211 201 192 343 756 781 550 270 145 1148 1514 1418 2115 2025 2248 2493 2774 2546 2904 3099 2602 2283 2051 2188 1754 1584 1456 1567 1505 1797 1537 1284 1609 1710
1694 1823 2024 1570 1229 843 1541 1893 1233 1108 1212 1004 1294 701 422 394 172 68 941 1041 1190 1813 2140 2260 2179 2210 2179 2562 2668 2506 2187 1549 1724 1435 1413 1490 1588 1341 1536 1554 1287 1060
2316 1761 2163 2581 1889 1544 1491 1613 2499 2479 1799 2282 1723 1263 984 944 690 598 500 1020 1128 1566 1895 1780 1753 1785 2119 1713 1917 2256 2127 1276 912 1226 1214 1147 1594 1581 1296 1460 1053 813
2267 2471 2382 1934 2102 1816 2044 2327 2604 1768 1584 1390 1678 2422 2300 2202 1603 1025 397 125 919 931 1203 1086 1218 1094 1278 1648 1623 1782 2100 1995 1361 1433 1576 1539 1490 1777 1681 1086 813 924
1692 1764 2255 2544 2302 2675 2193 2837 2136 2278 1992 1574 1474 1144 1228 1729 1186 1549 1639 1138 331 545 728 961 1145 821 30 1007 1462 1524 1627 2116 1783 1258 932 1278 1331 1059 1285 1279 1019 713
1066 1635 1677 1866 2300 2484 2547 2446 2349 2072 1972 1690 1436 1348 1607 1266 999 1669 1726 1536 1149 1322 707 736 967 651 8 0 698 1255 1367 1550 1652 1314 747 450 561 1071 1012 1171 1394 1320
761 946 1009 1765 1850 2297 2390 2487 2493 2296 2183 2154 2028 1941 1966 1819 1573 1598 1277 1992 1935 1496 1793 1723 978 470 1 0 0 379 1101 1252 1560 1037 847 627 518 621 845 1142 1396 1518
549 687 841 885 1683 2032 1994 1855 2002 2289 2292 2266 2370 2471 2320 2465 2256 2202 2117 1635 1861 1881 1758 1513 1241 1091 291 0 0 0 146 991 1352 1077 491 395 467 651 1001 876 1426 1714
664 648 747 828 1250 1703 1785 1755 1720 2135 2512 2657 2746 2607 2682 2444 1913 1663 1509 1621 1889 2095 1917 1800 1482 1290 1099 880 0 0 0 16 989 1356 915 537 488 562 602 874 1036 1388
335 463 556 572 677 1094 864 858 1381 1665 2036 2326 2223 2222 2449 2288 2154 1875 1682 1586 1741 2226 2454 2168 1770 1803 1520 1178 918 724 76 249 810 1234 1305 1030 818 956 1166 1159 1103 1014
222 149 331 502 436 544 817 1161 1349 1461 1674 1997 1618 1692 1717 1658 1835 1894 1855 1759 1768 2128 2186 2287 2160 2133 1842 1579 1328 1002 319 199 594 1162 1308 1372 1296 1423 1603 1835 1943 1913
380 340 342 467 545 457 562 957 851 988 976 1508 1665 1908 1965 2005 1849 1756 1834 2296 1978 1717 2022 2346 2281 1829 1802 1777 1690 1450 1148 848 782 1098 1322 1458 1478 1660 1857 1874 1981 2209
264 348 385 439 457 484 504 1206 1683 1101 992 1580 1836 2171 1968 1786 1998 2092 1735 1672 1838 2297 1988 1858 1605 1854 1944 1505 1660 1631 1571 1375 1223 1587 1539 1584 1725 1751 1954 2000 2034 2068

ECMWFNIL_con_mucape_087.txt.gz
CAPE
2210 2429 1885 2340 2199 2314 2539 2594 2789 3044 2531 2306 2335 2376 2384 2487 2626 2619 2547 2863 2470 3400 3366 3630 2971 2830 3135 3500 4332 3406 5025 3487 3102 2750 2663 2794 2592 2411 2228 1649 1231 1085
2160 2359 2565 2256 2281 2344 2321 2410 2547 2805 2786 2396 2374 2208 2057 2484 2664 2387 2583 2785 2884 3057 3564 3732 3405 3170 3642 3566 4075 3646 3462 3967 4029 3384 2658 2895 2318 2095 1907 1482 1225 1226
2150 2273 2260 2052 2264 2159 2246 2072 2144 2428 2623 2507 2516 2302 2236 2596 2485 2456 2358 2805 2816 3122 3362 3502 3652 3473 3640 3933 3885 3908 3402 3938 3801 3330 2752 2761 2328 2257 1968 1506 1087 1051
2320 2210 2047 1969 2073 2008 2017 1862 1721 2100 2271 2530 2256 2994 2481 2497 2141 2450 2285 3662 2482 2794 3246 3435 3375 3512 3630 3915 3746 3969 3633 3426 3810 3839 3143 2769 3082 2526 2257 1773 1873 1073
2433 2248 2045 1954 1799 1876 1582 1547 1703 1808 2189 2286 2177 2062 2372 2199 2189 2316 2752 3061 2463 2686 3019 3261 3325 3261 3553 3492 3473 3419 3406 3422 3586 3660 3683 3258 2712 2957 2912 2504 1962 1886
2350 2327 2068 1925 1813 1709 1362 1052 1346 1433 1871 1932 2060 2015 2096 2147 2379 2418 3082 2835 2614 2830 2660 2982 3019 3229 3332 3432 3405 3542 3556 3400 3198 3788 3734 3835 3585 3192 3042 2590 2470 2276
2223 2348 2189 1882 1744 1558 1369 1187 1129 1122 1043 1697 1759 1804 1915 2608 2203 2263 2677 2734 2535 2680 2549 2599 2744 2813 3126 3137 3288 3303 3485 3168 3127 3549 3277 3458 3533 3288 2960 2580 2260 2394
2215 2256 2229 1849 1766 1651 1153 1130 1029 1179 924 1065 1511 1670 1806 2056 2253 2267 2192 2411 2302 2381 2166 2422 2462 2275 2892 2725 3190 3418 3518 3752 3384 3274 3250 3377 3346 3106 3020 3438 2216 2443
2210 2247 2178 2044 1830 1637 1340 1016 940 1104 998 924 1302 1416 1687 1803 2042 2264 2213 2360 2195 2008 2001 2018 2392 2355 2685 2738 2938 3118 3128 3161 3063 3434 3370 3231 3457 3181 3063 3010 3189 2897
2254 2358 2197 1938 1670 1573 1205 828 791 790 1057 889 850 1149 1228 1564 1813 1909 2111 2169 2043 1990 1936 1902 2508 2386 2495 2529 2793 2827 3028 2980 2858 2950 3341 3394 3434 3480 3319 3179 2806 2962
2075 2328 2252 2066 1710 1459 1131 766 632 554 835 839 617 751 1001 1164 1572 1643 1658 2177 2016 1914 2228 1611 2466 2418 2160 2105 2508 2818 2871 2819 2730 2864 3162 3448 3511 3429 3514 2865 2813 2748
1746 1731 1908 2036 1819 1413 1094 761 548 453 648 769 704 364 566 852 1132 1507 1500 1952 2050 1951 2311 1986 2285 2369 2074 1872 1927 2457 2887 2847 2732 2647 2769 3144 3244 3114 2878 2952 2751 2633
2002 1365 1439 1615 1672 1380 1005 711 724 542 630 623 645 537 245 565 616 1323 1663 1717 1800 1732 1782 2103 2072 2333 2181 2022 1934 1902 2187 2663 2650 2590 2492 2388 2543 2601 2570 2516 2467 2463
1702 1758 1530 1065 1148 1140 836 725 864 1271 143 543 546 403 297 219 532 815 1444 1751 1748 1677 1593 1704 1908 2016 2255 2278 2059 1960 1908 2040 2222 2292 2332 2237 1984 1832 2015 2124 2158 2104
1427 1139 1390 1257 1327 969 965 966 1310 1717 1372 1446 491 540 454 331 222 626 866 1515 1729 1626 1578 1538 1751 1836 1855 2246 2220 1942 1852 2000 1912 1832 1950 2002 1799 1442 1289 1329 1345 1425
2028 1876 2166 2388 1920 1559 1284 1456 1896 1876 1408 1539 1164 1840 829 438 140 374 632 924 1414 1529 1441 1518 1574 1782 1966 1796 2144 2078 1744 1603 1710 1659 1508 1458 1422 1308 1160 1175 1164 1111
1721 1852 2232 1801 2173 2049 2103 2298 2356 2182 1590 1427 1398 1476 979 898 1233 1260 293 740 868 1307 1419 1388 1515 1717 1902 1801 1803 2098 2006 1685 1488 1478 1480 1276 1004 1044 1075 1035 1118 1164
1538 1632 1842 1699 1906 2189 2796 2357 2257 2292 2127 1581 1730 1660 1318 1293 1223 1095 1099 1242 942 827 1159 1386 1442 1536 1767 1905 1818 1825 2012 1955 1701 1443 1278 1165 989 787 864 981 1004 992
1162 1412 1528 1399 1393 1518 2524 2264 2265 2323 2207 2059 1879 1651 1511 1558 1493 1235 1291 1302 1280 1518 1011 992 1229 1384 1485 1554 1731 1815 1792 1862 1789 1676 1410 1107 918 848 491 516 793 842
1066 1039 1126 1301 1418 1681 1866 2196 2101 2117 2258 2372 2284 1987 1939 1899 1882 1717 1571 1412 1339 1485 1547 1662 1345 1041 1134 1208 1233 1403 1686 1766 1712 1657 1580 1363 1022 646 534 510 403 495
877 984 1042 1064 1240 1884 1702 1797 1722 2004 2225 2429 2409 2553 2372 2197 1989 1941 1697 1619 1496 1333 1238 1380 1580 1635 1441 1125 891 920 942 1436 1560 1544 1486 1413 1277 1006 646 276 385 481
424 712 867 1045 1104 1335 1165 1244 1384 1684 1965 2272 2090 2182 2333 2526 2453 2208 1984 1713 1641 1574 1420 1426 1598 1620 1777 1689 1492 1422 1360 1207 1061 1276 1320 1256 1144 1075 950 754 407 413
341 436 617 748 882 1053 965 1008 1043 1311 1387 1722 1741 1753 1643 1772 1961 1922 1882 1862 1719 1650 1573 1525 1796 1547 1514 1840 1933 1756 1569 1553 1560 1379 1079 978 1035 887 768 97 233 432
399 456 422 394 436 693 909 978 1375 1180 1239 1679 1684 1642 1591 1497 1513 1549 1596 1724 1804 1799 1894 1893 1779 1808 1927 2078 2120 1905 1736 1786 1754 1492 1217 957 842 738 782 548 489 1083
326 369 381 420 462 503 583 775 822 902 874 1010 1352 1472 1612 1736 1910 1938 1913 1904 1873 1873 2131 2012 2060 2010 1989 1931 1874 1892 1848 1722 1582 1423 1216 1083 849 699 702 739 691 1222
216 272 343 340 280 272 382 544 724 851 809 828 1430 1715 1724 1756 1846 1779 1734 1684 1704 1748 1686 1650 1683 1827 1925 1940 1854 1690 1510 1450 1454 1545 1618 1569 1204 818 666 601 809 880

ECMWFNIL_con_mucape_090.txt.gz
CAPE
1521 1210 1486 1350 1288 1540 1762 1953 1965 1929 2338 2287 2127 1955 2181 2521 2481 2626 2646 2722 2751 2720 2735 2622 2706 2931 2835 3240 4129 3620 2699 2418 2546 2844 2636 2650 2678 2501 2367 2250 2195 1783
1580 1704 1600 1499 1715 2032 2034 2121 2158 2098 2168 2367 2288 2128 2141 2154 2327 2422 2427 2458 2579 2719 2732 2617 2660 2550 2597 2869 3841 3158 3544 3227 2988 3312 2688 2468 2513 2472 2347 2196 2112 1892
1437 1820 1758 1746 1869 2047 2128 2264 2367 2317 2156 2225 2270 2248 2162 2144 2333 2396 2355 2412 2444 2416 3052 3152 2981 2594 2838 3100 3551 3390 3217 3426 3398 3601 2972 2478 2533 2478 2315 2019 1784 1803
1464 1683 1853 1803 1876 2042 2111 2215 2414 2498 2286 2109 2034 2019 1996 2072 2199 2370 2283 3415 2461 2373 2808 3209 3251 3147 3006 3432 3537 3608 3285 3066 3470 3719 3592 2993 2634 2506 2316 2067 2080 1980
1588 1665 1824 1750 1844 1942 2060 2068 2121 2398 2439 2336 2106 2058 1889 2039 2075 2248 2206 2646 2548 2466 2695 3074 3166 3248 3221 3418 3647 3601 3553 3257 3218 3449 3567 3379 2918 2613 2614 2636 2549 2442
1741 1703 1792 1737 1725 1793 1936 1954 1936 2017 2174 2319 2346 2256 2185 2034 2072 2055 2162 2227 2491 2469 2728 2942 3145 3115 3243 3328 3472 3425 3254 3227 3062 3188 3308 3319 3079 2800 2676 2649 2639 2567
1937 1878 1844 1749 1624 1703 1759 1816 1832 1802 1884 1991 2192 2273 2330 2301 2223 2053 2021 2151 2398 2375 2538 2844 3030 3118 3098 3203 3266 3187 3016 3149 3116 3022 3186 3260 3368 3420 3247 3048 2852 2784
1994 2059 1986 1836 1658 1580 1633 1653 1645 1664 1562 1756 1907 2044 2045 2217 2286 2190 1964 2227 2364 2366 2478 2580 2764 2902 3051 3093 3162 3129 3006 3258 3265 3144 3027 3056 3110 3116 3141 3136 3216 3155
2036 2087 2122 2024 1769 1640 1608 1590 1565 1438 1388 1495 1781 1837 1849 1920 2026 2046 2052 2343 2397 2402 2367 2524 2568 2644 2744 2936 2974 3015 2988 3172 3412 3314 3062 3046 3024 3056 3042 3004 2929 2857
2102 2054 2120 2190 2017 1780 1721 1678 1660 1528 1258 1143 1288 1541 1628 1680 2068 2054 2084 2372 2471 2462 2381 2357 2407 2410 2460 2600 2673 2756 2821 2842 3057 3207 3248 3186 3011 2941 2996 2981 2950 2858
2107 1947 2078 2132 2115 2028 1838 1841 1796 1627 1280 1124 1010 1113 1404 1551 1814 2043 2076 2210 2366 2371 2282 2173 2146 2223 2284 2284 2402 2507 2571 2644 2708 2729 2735 2868 2998 2904 3368 3034 3036 2969
1934 1894 1924 1954 2089 2101 2022 1880 1791 1667 1244 1044 990 837 1108 1380 1550 1878 2040 2056 2080 2087 2064 2047 2017 2009 2142 2168 2253 2414 2480 2532 2558 2528 2488 2594 2816 2987 2982 3098 3070 3049
1822 1797 1622 1756 2033 2098 2046 1900 1706 1492 1188 890 866 882 764 1048 1372 1593 1748 1880 1994 2028 2047 2060 2042 1970 1982 2072 2115 2237 2423 2442 2403 2395 2378 2366 2602 2866 2983 3000 3052 3053
1612 1262 1205 1382 1441 1911 2066 1899 1686 1374 1138 1177 949 730 292 184 877 1176 1431 1554 1697 1838 1898 1898 1867 1832 1858 1947 1959 1977 2054 2313 2383 2396 2368 2298 2285 2464 2697 2854 2915 2873
1188 1336 1440 1497 1872 1965 1964 1902 1666 1486 1340 1168 1213 900 605 638 523 457 1026 1328 1444 1548 1662 1702 1725 1760 1822 1880 1869 1831 1723 1662 1998 2267 2321 2312 2242 2142 2107 2200 2340 2406
1140 1210 1223 1213 1441 1770 1896 1884 1741 1601 1426 1252 1267 1133 1054 623 644 311 412 947 1240 1322 1400 1482 1536 1562 1703 1835 1864 1788 1679 1575 1560 1660 1855 2000 2043 2002 1932 1870 1820 1732
1504 1588 1681 1573 1221 1285 1353 1434 1766 1721 1280 1251 1332 1349 1103 1176 630 655 548 354 956 1228 1294 1315 1326 1338 1362 1467 1741 1873 1768 1658 1587 1580 1614 1676 1720 1732 1698 1702 1714 1650
1502 1577 1682 1877 2220 2330 2189 2030 1973 1759 1527 1315 1335 1337 1453 1372 1055 858 785 683 551 861 1203 1327 1322 1297 1281 1313 1359 1482 1698 1735 1602 1546 1483 1410 1375 1394 1447 1479 1388 1345
1620 1580 1543 1694 1797 1818 2100 2198 2137 2052 1859 1678 1578 1562 1535 1565 1530 1472 1183 1072 1070 1141 889 891 1162 1293 1273 1270 1280 1311 1309 1397 1463 1443 1380 1322 1272 1217 1162 1124 1126 1111
1506 1488 1414 1420 1550 1672 1543 1597 1687 2036 2201 2245 2183 2008 1879 1800 1810 1659 1503 1421 1341 1299 1210 1284 1256 1164 1094 1153 1230 1318 1372 1336 1324 1368 1388 1341 1293 1242 1153 1028 912 823
1273 1401 1420 1388 1296 1285 1286 1250 1203 1457 1842 2167 2260 2306 2246 2163 2180 2068 1909 1638 1516 1381 1298 1186 1144 1234 1261 1110 1049 1114 1279 1411 1480 1487 1475 1469 1456 1411 1327 1215 978 446
901 1036 1104 1223 1308 1370 1323 1279 1255 1195 1128 1482 1914 1598 1546 1906 2213 2041 1856 1790 1696 1567 1396 1347 1284 1203 1212 1242 1205 1050 976 986 1054 1091 1089 1097 1280 1460 1499 1470 1390 1212
754 677 816 976 972 988 1144 1257 1252 1242 1206 1367 1306 1378 1478 1478 1448 1572 1655 1667 1667 1650 1593 1528 1390 1319 1247 1182 1205 1314 1385 1304 1163 1055 974 923 891 859 1070 1242 1293 1279
577 606 582 586 693 878 934 1018 1072 1101 1127 1133 1093 1090 1297 1372 1490 1464 1392 1445 1204 1166 1878 1971 1836 1624 1517 1493 1497 1484 1554 1639 1655 1596 1495 1416 1418 1407 1368 1282 1166 1036
454 512 554 511 428 485 679 764 870 899 916 925 978 994 1316 1230 1140 885 1049 1268 1518 1615 1643 1793 1835 1709 1692 1808 1754 1695 1642 1602 1557 1530 1515 1541 1529 1516 1471 1352 1274 1164
361 398 391 374 328 300 362 513 614 703 834 840 833 858 830 882 1215 1285 1129 1098 1363 1512 1517 1678 1671 1577 1484 1535 1602 1596 1639 1639 1635 1544 1484 1430 1369 1307 1278 1291 1342 1361

ECMWFNIL_con_mucape_096.txt.gz
CAPE
1160 1113 1042 1055 1061 941 826 1063 1264 1410 1516 1636 1702 1656 1599 1559 1558 1810 2139 2500 2642 2687 2676 2696 2775 2860 2838 2744 2852 2438 2767 2506 2656 2527 2536 2547 2506 2508 2418 2392 2382 2297
1130 1084 1196 1013 1027 1072 890 852 1144 1256 1337 1497 1626 1653 1599 1621 1713 1951 2113 2355 2747 2861 2691 2697 2750 2835 2898 2856 2619 2722 2754 2615 2515 2788 2546 2566 2525 2422 2396 2323 2283 2248
1002 966 1049 974 950 943 965 963 1096 1190 1263 1385 1543 1570 1559 1671 1675 2010 2130 2242 2447 2703 2656 2666 2684 2769 2832 2767 2590 3024 3118 2743 2655 2878 2964 2652 2428 2538 2650 2588 2434 2384
940 913 1021 1021 910 870 1022 1124 1230 1350 1377 1548 1695 1777 1714 1850 1872 2011 2077 2825 2318 2443 2547 2586 2636 2706 2694 2634 2553 2979 2939 2882 2888 2877 3310 3112 3068 3031 3045 2959 2800 2495
869 875 977 1094 1016 1003 1164 1266 1334 1400 1475 1547 1726 1890 2070 2033 2011 2002 2050 2311 2330 2376 2415 2652 2645 2635 2596 2535 2653 2923 2999 3024 3065 3153 3330 3422 3293 3175 3159 3048 2900 2590
849 1015 1053 1116 1184 1215 1253 1341 1380 1486 1565 1544 1677 1942 1980 1921 1958 2024 2070 2070 2226 2287 2314 2374 2671 2735 2693 2620 2805 2969 3146 3322 3160 3098 3156 3266 3200 2940 2983 2903 2813 2673
826 953 1103 1164 1143 1156 1277 1350 1426 1645 1618 1698 1714 1768 1870 1873 1921 1942 2007 2023 2191 2325 2188 2248 2464 2686 2765 2816 2828 2981 2951 3128 3123 3101 2973 2882 2923 3007 2998 3250 3232 3002
801 845 1016 1196 1268 1277 1352 1348 1399 1580 1709 1781 1779 1760 1752 1776 1819 1901 1954 1972 2043 2223 2225 2183 2298 2466 2526 2740 2848 2860 2908 2983 3031 3062 3004 2827 2570 2800 2814 2882 3183 3162
880 893 864 1026 1168 1246 1340 1388 1422 1462 1568 1774 1807 1841 1811 1840 1803 1828 1868 1880 1944 2107 2126 2144 2245 2350 2468 2678 2792 2821 2865 2896 3036 2991 2900 2823 2662 2742 2714 2694 2774 2946
1099 1092 1049 1063 1117 1121 1214 1329 1414 1489 1546 1624 1720 1811 1880 1942 1958 1958 1953 1943 1957 2013 1996 2078 2114 2247 2409 2534 2704 2767 2811 2850 2909 2966 2921 2821 2754 2769 2842 2865 2811 2787
1320 1301 1286 1225 1219 1167 1160 1230 1331 1428 1540 1642 1697 1758 1828 1889 1961 1989 2014 2006 1998 1999 2030 2040 2035 2125 2260 2374 2543 2643 2726 2739 2774 2822 2907 2927 2873 2820 3074 2946 2839 2844
1408 1430 1445 1449 1386 1333 1293 1282 1300 1345 1416 1506 1585 1649 1633 1647 1644 1693 1817 1872 1919 1957 1980 2015 2006 1997 2117 2253 2310 2448 2534 2633 2677 2687 2693 2783 2831 2795 2829 2990 3018 2955
1407 1461 1534 1615 1611 1547 1486 1432 1383 1355 1350 1370 1390 1361 1342 1350 1361 1348 1649 1727 1774 1867 1912 1935 1898 1863 1981 2093 2143 2221 2335 2457 2499 2497 2550 2518 2536 2577 2657 2730 2763 2837
1611 1577 1578 1635 1668 1689 1660 1606 1553 1484 1459 1501 1504 1503 1517 1442 1371 1385 1386 1586 1650 1696 1865 1932 1884 1820 1842 1942 2029 2062 2134 2182 2256 2358 2357 2375 2376 2417 2393 2463 2645 2702
1870 1818 1810 1790 1730 1750 1823 1809 1775 1742 1757 1771 1778 1770 1779 1707 1593 1539 1526 1482 1494 1618 1734 1834 1781 1783 1804 1848 1917 1991 2043 2050 2053 2136 2232 2274 2264 2244 2235 2259 2342 2505
1780 1871 1731 1481 1304 1514 1822 1821 1964 1960 1949 1954 1933 1887 1828 1621 1421 1333 1228 1077 1127 1399 1533 1600 1721 1730 1826 1818 1860 1918 1895 1877 1879 2005 2104 2189 2270 2249 2096 2010 2034 2074
1683 1615 1706 1700 1531 1350 1436 1649 1741 1921 1982 1959 1875 1791 1636 1399 1257 1187 1105 897 799 1026 1258 1399 1574 1597 1655 1719 1756 1786 1863 1791 1776 1828 1824 1992 2040 2165 2196 2118 1980 1819
1344 1282 1399 1531 1680 1723 1298 1239 1363 1689 1776 1783 1866 1878 1717 1430 1178 1097 1020 938 855 734 891 1108 1288 1333 1458 1539 1587 1607 1627 1840 1701 1687 1652 1614 1701 1788 1882 1903 1866 1713
971 992 1066 1242 1500 1565 1575 1244 1078 1210 1202 1259 1433 1106 1328 1385 1498 1402 1217 1093 940 866 900 840 948 904 1040 1165 1234 1275 1315 1376 1598 1603 1536 1529 1514 1521 1522 1561 1576 1555
904 838 922 1170 1440 1544 1447 1329 1115 889 846 1129 1155 1244 1302 1916 1700 1444 1402 1207 1045 884 858 834 787 711 681 795 887 945 989 1035 1114 1412 1531 1553 1514 1464 1386 1401 1380 1347
808 798 947 1147 1379 1496 1441 1302 1152 1178 1167 1147 1185 1260 1140 1682 1980 1757 1489 1426 1242 1104 1210 953 834 765 720 655 686 795 884 961 1034 1068 1253 1453 1492 1441 1430 1341 1334 1282
666 746 937 1111 1213 1313 1280 1217 1232 1273 1238 1106 1164 1263 1338 1555 1856 1786 1569 1380 1303 1432 1408 1291 1190 1078 1046 1028 998 969 937 919 929 972 1004 1025 1059 1078 1106 1137 1157 1252
821 866 984 1056 1130 1180 1189 1176 1200 1233 1237 1234 1209 1323 1354 1362 1588 1610 1566 1524 1431 1386 1550 1586 1445 1312 1208 1144 1102 1127 1110 1136 1103 1064 1037 1026 1018 1014 1016 1023 1030 1076
662 799 896 977 1099 1185 1165 1123 1105 1092 820 874 1074 1223 1234 1399 1440 1498 1504 1505 1442 1361 1575 1436 1620 1473 1368 1314 1311 1297 1262 1269 1264 1254 1272 1269 1324 1348 1380 1413 1440 1448
200 198 258 532 704 912 937 957 903 832 885 978 1016 1118 1190 1125 1056 1044 996 1127 1249 1359 1098 1229 1379 1476 1525 1501 1428 1357 1325 1309 1288 1284 1294 1308 1309 1335 1331 1332 1340 1309
285 231 0 0 146 219 350 518 518 607 720 712 748 878 946 932 835 761 687 790 840 893 988 1065 1090 1141 1153 1122 1218 1239 1238 1184 1118 1043 1003 966 939 939 960 1004 1041 1106

ECMWFNIL_con_mucape_099.txt.gz
CAPE
2433 2416 2432 2396 2438 2283 2413 2514 2373 2553 2984 2714 2578 2638 2876 2993 2968 2784 2797 2988 3068 3029 3246 3507 3625 3626 3471 3711 4051 3836 3784 3756 3847 3915 3849 3541 3293 2959 2730 3018 3150 3052
2370 2472 2618 2436 2796 2776 2586 2342 2551 2639 3082 3313 2936 3064 3224 3190 3032 2926 2946 2943 3046 2971 3313 3393 3587 3750 3850 3774 4212 3910 3937 3750 3810 3429 3838 3596 3283 3043 2887 3110 3028 3210
2271 2399 2408 2399 2214 2447 2025 2194 2444 2650 2607 2659 2884 3209 2956 2944 2991 3334 3261 3017 2832 2820 3343 3560 3552 3713 3734 3974 4307 3867 3456 3871 3684 3432 3752 3655 3479 3161 3248 2890 2887 3014
2376 2281 2095 1998 2023 2158 2238 2421 2526 2536 2484 2711 2592 2509 2656 2524 2848 3189 3459 3325 3178 3192 3212 3392 3424 3448 3649 3967 4224 3760 3507 3890 3552 3942 3802 3795 3580 3301 3366 3251 3149 3003
2152 2190 2112 2108 2113 2316 2376 2335 2086 2324 2362 2476 2550 2885 3078 3106 3167 2884 3250 3328 3563 3261 3426 3552 3677 3517 3961 4020 4086 3734 3462 3322 3746 4065 3962 3842 3948 3745 3504 3470 3532 3332
2198 2295 2358 2256 2403 2416 2178 2192 2300 2318 2459 2467 2718 2756 2810 3176 3054 2915 3048 2907 2904 2864 2824 3002 3224 3409 3579 3852 3923 3606 3147 2955 3411 4018 3922 3860 3740 3651 3457 3517 3664 3560
1950 2139 2012 2050 2050 2163 2204 2304 2415 2543 2421 2351 2855 2880 2920 2940 3119 3175 3247 3130 2844 2963 2785 3054 3429 3336 3546 3844 3867 3669 3585 3475 3731 4091 3970 3814 3817 3819 3545 3507 3643 3597
1677 1795 1939 2016 1924 2039 2132 2239 2481 2666 2815 2947 2696 2816 2952 2776 3046 2977 3141 3201 3035 3217 3300 3199 3602 3865 3309 3417 3520 3467 3388 3315 3471 3867 4022 3781 4110 4024 3977 3591 3251 3654
1659 1791 1903 1963 1738 1744 1753 1620 2081 2426 2772 2674 2224 2298 2943 2766 2922 2750 3323 3494 3225 3361 3755 3502 3839 3444 3295 3473 3444 3478 3314 3150 3257 3737 3836 3703 3746 3879 3731 3554 3483 3586
1781 1687 1482 1627 1574 1627 1580 1569 1514 1854 2538 2221 2113 1890 2505 2969 2946 2947 3410 3694 3482 3644 3801 3630 3748 3491 3386 3414 3628 3437 3406 3456 3399 3670 3698 3688 3602 3542 3386 3625 3594 3739
1609 1539 1512 1537 1457 1391 1502 1520 1559 1580 1928 1821 1690 1718 2152 2669 3265 3356 3523 3622 3207 3444 3652 3768 3688 3677 3714 3406 3239 3128 3362 3101 3224 3618 3640 3681 3677 3712 3536 3674 3716 3591
1700 1663 1574 1594 1485 1371 1363 1359 1421 1470 1610 1852 1693 1861 2372 2368 2867 3126 3267 3593 3522 3383 3427 3660 3774 3842 3869 3766 3215 3087 3305 3230 3304 3538 3554 3690 3685 3617 3666 3612 3501 3677
2187 2256 2100 1980 1861 1562 1488 1523 1486 1516 1587 1601 1780 1814 1962 1965 2224 2847 3243 3295 3605 3478 3225 3432 3701 3588 3903 3987 3739 3390 3449 3544 3202 3370 3513 3611 3668 3550 3383 3461 3459 3397
2492 2607 2806 2645 2501 2406 2202 1932 1763 1738 1827 1746 1894 1898 1750 1722 1805 2103 2629 2736 2873 3084 3189 3284 3642 3573 3820 3953 3738 3532 3459 3543 3559 3463 3241 3226 3174 3406 3282 3056 3223 3272
2836 2942 2998 3011 2883 2829 2641 2470 2293 2236 2244 2204 2176 1965 1652 1704 1759 1690 1918 2171 2255 2621 2826 2924 2805 3016 3018 3368 3534 3673 3518 3324 3485 3527 3447 3327 3350 2957 2990 3384 3256 2862
1971 2326 2568 2739 2685 2714 2837 2490 2295 2303 2220 2292 2186 2121 2117 2141 2101 2074 1980 2021 2169 2591 2738 2584 2575 2528 2807 2433 2691 3124 3498 3147 3232 3579 3580 3441 3615 3579 3179 3131 2918 2701
1404 1474 1609 1745 1923 2393 2239 2105 2056 1908 2088 2237 2264 2392 2388 2424 2278 2100 1911 1791 1789 1887 2078 2126 2140 2100 2152 1948 1807 1832 2726 3392 3445 3720 3850 3804 3553 3839 3678 3003 2909 3059
978 1155 1246 1288 1390 1600 1512 1672 1718 1854 2046 2019 1831 1836 2058 1941 1998 1948 1889 1529 1346 1485 1547 1667 1769 1837 1779 1643 1539 1553 1674 2646 3082 3143 3112 3329 3301 3068 3165 3076 2933 2748
843 941 1009 1018 1150 1287 1568 1584 1370 1589 1644 1780 1695 1837 1870 2138 2283 2040 2155 1956 1571 1667 1475 1496 1590 1567 1449 1346 1339 1367 1447 1588 2317 2668 2643 2623 2716 2990 2899 2978 3151 3099
905 960 1057 1072 1056 1172 1403 1506 1530 1485 1393 1709 1867 1765 1824 1977 1869 2065 2147 2329 2086 1901 1946 1598 1590 1161 858 843 902 1012 1131 1222 1864 2170 2464 2470 2571 2636 2507 2568 2894 2977
836 826 944 1011 1056 1088 1036 1122 1348 1497 1379 1356 1766 1937 1906 2158 2154 2214 2227 2222 2072 1988 1864 1444 988 785 735 746 741 694 726 831 1362 1758 1958 2334 2608 2711 2848 2686 2743 2708
794 785 744 735 866 893 875 1036 1416 1320 1359 1113 967 1242 1399 1572 1810 1979 2236 1622 1633 1893 1992 1198 1234 1126 929 850 844 814 760 767 1414 1950 1958 2033 2189 2232 2131 2269 2131 2162
703 833 798 678 677 662 770 926 1120 1312 1323 1169 1057 1269 1383 1500 1636 1269 1247 1295 1288 1352 1379 1153 1161 1160 1075 1025 1013 1035 1010 1404 1353 1426 1586 1468 1385 1362 1390 1304 1304 1488
352 531 604 685 788 758 736 809 955 1102 1112 1199 1096 1230 1616 1886 1693 1351 1433 1420 1302 1169 1251 1204 1169 1186 1178 1173 1190 1145 1270 1978 2174 2104 2084 2084 2020 2008 1938 1842 1549 1398
309 195 360 306 361 572 712 779 888 1030 1172 1168 1139 1093 1125 1198 1245 1307 1312 1230 1252 1162 1195 1157 1254 1255 1255 1250 1262 1271 1258 1615 1719 1746 1758 1841 1764 1765 1790 1744 1787 1365
247 196 151 176 139 208 372 639 712 933 1074 1038 1031 980 1068 1058 849 1022 934 1014 1068 1114 1078 1169 1090 1041 1061 1254 1330 1358 1382 1366 1441 1827 1704 1482 1664 1738 1835 1626 1474 1645

ECMWFNIL_con_mucape_105.txt.gz
CAPE
3304 2976 2999 3000 2812 2464 2455 2771 2364 2254 2154 1699 1743 2021 2263 2191 2067 2142 1958 2317 2259 2573 2839 3450 3447 3384 3080 3117 3253 3170 3674 2980 3243 3547 2871 2983 3585 2678 2500 2068 2251 1923
3445 3168 2745 2643 2882 3204 3311 2807 2502 2414 2565 3073 2092 2875 2315 2703 2285 2256 2446 2583 2552 2568 2880 3210 3272 3667 3490 3263 3356 3231 3509 3505 2916 2921 3384 3455 2837 2625 2398 2226 2052 2326
3151 3162 3234 2820 2582 3144 2599 2622 2823 2715 2239 2119 2219 2720 2482 2677 2878 2508 2527 2577 2592 2376 2727 3198 3538 3615 3514 3927 5052 3852 3724 3588 3354 2820 3640 4203 3640 3299 3152 2744 2448 1874
2614 2678 2268 2182 2112 1643 1965 2362 2744 2786 2372 2488 2720 2229 2292 1980 2427 2672 2939 2533 2845 2859 2889 3074 3310 3311 3647 3852 5197 3759 3727 4405 3612 3380 4382 4193 3466 3336 3235 2762 2533 2666
2226 2126 2228 2170 1954 2181 1718 1818 1964 2102 2230 2139 2231 2397 1974 2880 2572 2958 2990 2523 3236 3099 3473 3762 3622 3267 3640 3798 4172 3612 3229 3753 3462 4180 4133 3873 4095 3407 2739 2876 3232 2970
2103 2114 1960 1841 2115 2037 2268 2002 2059 1588 1720 1986 1972 2064 2292 2475 2658 2499 2658 2929 2266 2473 2639 2776 3484 2934 3464 3822 4064 3392 2682 2421 3543 4243 3604 3644 3485 3358 2866 2762 3252 2826
1849 1833 1706 1675 1676 1800 2017 1965 2128 1928 1694 1787 2151 1918 1636 2391 2266 2483 2730 2598 2576 2116 2209 2476 3110 2711 2785 3249 3617 3541 3496 3736 3255 3699 4127 3666 3786 3455 3265 3184 3847 3685
1466 1417 1529 1704 1378 1412 1300 1497 2095 1949 1958 1823 1713 1782 2107 2257 2438 2317 2483 2632 2469 2471 2362 2616 3164 3660 2684 2029 3224 4018 3552 2796 3366 3939 4588 3786 3949 4493 4205 3713 3964 3690
1282 1260 1310 1148 1053 1054 972 804 1037 1503 1832 1900 1788 1921 2072 2229 2363 2165 2315 2652 2562 2392 2755 2814 3557 3245 2675 2864 3185 3767 3587 2869 2406 3059 3210 3149 2924 3265 3523 3491 3517 3338
1204 952 625 792 649 668 721 787 604 763 1171 1552 1568 1550 1734 1620 2112 2120 2503 3119 2841 2970 3358 2853 3388 3136 2967 2659 3201 3768 3667 3107 3124 2823 3404 3313 3361 3349 3313 3162 3198 3645
1166 924 793 780 566 386 298 571 518 472 807 1060 1179 1082 1057 1805 1840 2109 2670 3714 2982 3082 3450 3186 2958 2985 2840 2671 2823 2839 2965 3098 2948 3077 2781 3178 3120 3214 3224 3261 3522 3267
1621 1114 779 540 445 545 350 348 368 339 456 858 946 989 1002 1221 1879 1912 2404 3443 3031 2894 3012 3295 3227 3277 3107 2862 2645 2604 2618 2597 2486 2862 2775 3204 2838 2800 2814 2707 2381 2419
2675 2152 1333 780 564 420 371 408 408 364 322 426 717 835 826 361 1243 1958 2166 2886 2972 2836 2969 3212 3383 3263 3541 3192 2856 2543 2539 2499 2208 2377 2365 2666 2642 2568 2705 2813 2439 2254
2898 2458 2039 1474 963 745 568 565 500 485 523 486 572 739 372 647 622 1427 2041 2301 2801 2584 2652 2916 3547 2640 2833 3115 2466 2504 2544 2850 2890 2668 2459 2472 2393 2500 2370 2370 2468 2443
2486 2656 2600 2368 1766 1347 909 743 813 840 910 873 787 845 617 641 558 614 1463 1962 2246 2520 2314 2342 2674 2936 2659 2986 3272 2852 2461 2344 2674 2651 2406 2637 2839 2661 2391 2239 2217 2327
2460 2699 3076 3398 2607 2252 2026 1480 1221 1131 937 1171 1261 1172 1270 1182 907 564 731 1459 1891 2219 2328 2102 2077 1889 2007 2045 2336 1714 1345 1680 2146 2534 2604 2589 2846 2787 2304 2469 2117 1881
2895 3118 3071 3306 3474 3327 3009 2998 2922 2427 1853 2010 1672 1661 1771 1846 1190 795 579 787 1330 1762 1970 1608 1302 1573 1455 1805 1749 2153 2442 2826 2058 2730 3097 3019 3226 3521 3079 2422 2081 1621
1420 2292 3322 3083 3477 4535 4685 4650 4489 3532 2968 2629 2143 1689 2511 2234 1824 1275 1054 886 939 1187 1549 1452 1086 1936 1536 1892 1939 2027 2163 2328 2188 2514 2584 2826 2323 2164 2286 2061 1714 1407
1837 1366 1726 2462 3272 3554 3828 4175 4238 4183 4057 3276 2601 2671 2309 2548 2478 1877 1434 1287 1048 1210 1164 965 1105 794 1509 1735 1662 1593 1350 1880 1436 1614 1875 2047 2261 2354 2316 1965 1843 1357
1338 1517 1326 1586 2061 2308 2526 2278 2820 2743 2779 2864 2795 2947 2807 2953 2656 2446 1931 2359 1500 1076 1841 1413 800 1046 1433 1517 1223 1372 1434 1371 1312 1220 1120 1656 1865 2263 2096 1901 2575 2476
837 878 903 1340 1518 1535 1751 2100 2306 2336 2430 2423 2277 2331 2406 2716 2997 2534 1693 1888 1391 1147 1062 1159 1042 870 1177 1202 1133 976 998 1067 1560 1184 1004 1107 1383 1579 2338 2196 2430 3128
1030 1078 1018 1012 1652 1599 1684 1734 1839 1843 1884 2465 2344 2015 1966 2210 2076 2328 1631 1546 1291 750 380 878 836 1007 1031 1047 980 915 708 1066 1489 1696 1260 955 1081 1564 2142 2320 2693 2862
589 707 809 973 1148 1301 1316 1396 1638 1816 1850 1778 2100 2146 2071 1752 1496 1163 1026 1031 856 1089 946 608 818 915 918 875 864 818 708 1436 1737 1480 1441 1402 943 1601 1853 2625 2816 2716
477 554 592 713 770 968 1012 1031 1036 1352 1422 1158 1255 1780 1722 1554 1238 1420 1204 1003 941 883 783 645 974 1119 1218 1091 894 704 693 2166 2580 2092 1947 2299 2061 1920 2718 2604 1579 2862
355 443 541 573 665 757 725 892 898 926 1040 915 846 955 1125 1244 1007 1172 1083 1177 971 646 582 707 917 1136 1179 1016 850 832 834 2309 3578 2782 2660 1676 1265 1024 1345 1888 2030 1898
332 389 463 489 390 605 603 588 662 715 683 646 528 714 1002 991 628 804 942 996 1072 1131 851 747 948 1026 978 979 1012 1010 979 1316 3400 3456 2669 2097 1211 1382 1073 1009 1149 1465

ECMWFNIL_con_mucape_108.txt.gz
CAPE
3378 2950 3178 2617 2544 2698 2972 2958 2917 2613 2986 2568 2275 2364 3419 2916 2568 2274 2165 2888 2908 3033 3480 3658 3839 3792 3148 3425 3319 3815 4939 4094 5098 3776 3888 3503 3265 2490 2225 2455 2809 2329
2878 3404 3543 2914 2226 2310 2847 2689 2979 3640 3341 3370 3248 5145 2752 2918 1668 2453 2424 2812 2910 2566 3558 3425 3831 3885 3843 3442 3779 3657 3620 4158 3888 2856 3861 3252 3211 2805 2327 2637 2132 2436
3071 3218 3060 2451 2254 2567 2558 2788 3365 2888 3401 2446 3361 4539 3126 2676 2012 2592 2835 2717 2535 2064 3196 3574 3786 3972 3749 3940 4946 4096 3487 4154 4152 2632 3879 4367 4047 3517 3372 2062 2493 2524
2841 2473 2300 2086 2483 1979 2112 2544 2995 2481 2643 2859 2637 2535 2468 2813 2509 2349 2810 2685 2947 2965 2815 2987 3219 3259 3582 3945 4956 4715 4024 4639 4095 3692 4881 4741 4436 3721 3255 3078 2723 2617
2149 2341 1720 1666 2115 2491 2218 2238 2232 2574 2309 3070 2749 2873 3283 2524 3068 2256 2588 2803 3361 2825 3343 3190 3245 3258 3796 3849 4346 4246 3661 4182 3924 4283 4403 4627 4766 4087 3074 3073 3054 3338
2432 2606 2530 2058 2890 2292 1791 1756 2109 2041 2058 1853 2573 1930 2048 2463 2536 2585 2555 2327 2098 2254 2541 2954 2995 2602 2718 3726 3893 4015 3180 2880 3548 4243 4202 4072 3645 3224 2475 2770 2863 2982
1736 2073 1652 1435 1662 2362 2154 1920 2216 2235 1698 2039 2246 2001 2086 2380 2727 2472 2463 2529 1956 2350 1634 2519 3594 2760 2849 3578 4166 4286 3983 3690 4054 4058 4438 4061 4528 3865 2963 3236 3877 3818
1316 1363 1386 1574 1124 1120 1905 1868 1689 2285 2191 1795 1641 1851 1925 1844 2099 1701 2476 2449 1994 2112 2600 2153 3391 3732 2737 2902 3647 3822 3384 2684 3763 4506 4373 4094 4258 4287 3904 3126 3502 4130
999 1341 1214 1190 918 785 836 796 1382 1741 1854 1633 1439 1418 1743 1738 1954 1612 2640 2706 2239 2708 3002 3322 3499 3191 3169 3012 3117 3684 3617 2784 2610 3720 3985 3804 3430 3722 4003 4031 3567 3585
972 818 912 965 802 720 627 662 534 768 1201 939 1390 1228 1145 1812 1917 1856 1885 2809 2694 2923 3269 3088 3257 3360 3444 2917 3108 3372 3342 3514 3266 3585 3591 3568 3326 3071 2814 3284 3116 3459
545 511 459 561 505 430 396 418 368 304 618 870 985 1017 916 1479 2151 2176 2364 3474 2172 2500 3112 3183 3152 3407 3313 2684 2822 3156 3533 3540 3011 3387 3301 3680 3542 3391 3127 3645 3506 2976
971 512 364 283 321 338 260 195 225 224 232 402 651 731 1275 1430 1495 1663 2610 3185 3293 2701 3217 3565 3342 3382 3306 3078 1920 2156 2958 2980 3229 3321 3067 3237 2952 2863 2969 3041 2867 3370
2162 2345 2705 731 293 273 250 190 170 142 143 190 482 712 802 748 1250 1661 2393 3143 3657 2758 2387 3316 3517 2839 3777 3701 2983 2390 2470 2626 2196 2514 2619 2685 2686 2448 1991 2221 2436 2392
2813 2840 2799 2762 2129 1666 1275 239 176 256 262 415 618 816 545 562 400 1408 1766 2404 2900 2940 2935 2867 3677 3443 3592 3752 3664 3093 2717 2421 2562 2154 2107 2302 2106 2257 1819 1442 1969 1959
3283 2998 2059 2436 2389 2801 2649 1816 1321 1053 1142 1443 1037 594 342 453 446 352 1123 1590 2006 2782 2606 2264 2226 2376 2477 2972 3399 3386 3104 2328 2385 2388 2081 2212 2055 1829 2089 2616 2215 1486
3044 2789 2352 2703 2384 2292 2204 2310 1865 1508 1253 1478 1349 1155 1278 1159 1388 858 310 950 1921 2148 2455 1972 1399 1795 2575 2834 2903 3284 3256 2410 1962 2893 2935 2569 2804 2974 2712 2534 2150 1958
2817 2367 2112 2276 2376 1981 1370 1314 1035 1050 1328 1848 2344 2012 2300 3052 2137 1188 391 285 744 1778 1931 1626 1486 1579 1383 1896 2128 2364 2839 2579 2209 2857 3046 3176 2648 3205 3756 2930 2217 2166
2051 1852 1904 2241 2437 2385 1964 1704 1534 935 1178 1119 1131 1054 2260 1774 1570 1784 2008 1208 493 526 1261 1380 936 898 799 778 1084 1441 2250 2571 2750 2548 2264 2568 2718 2455 2814 2568 2412 1432
2071 2145 2090 1583 1662 2017 2259 2254 2280 2113 2239 1743 1496 1640 1603 2516 2118 1568 1689 1814 1010 950 1040 1136 782 800 730 588 884 1241 1544 3485 2284 1970 1641 1934 1539 2491 2511 2799 3131 2646
1706 1863 2044 1516 1172 1339 1784 1775 1899 2510 2530 2250 2074 2782 2564 2096 2228 2164 2033 1753 1381 1316 919 764 552 646 749 1020 1089 1186 1499 1888 1971 1444 1224 1202 1806 1813 1624 2694 1549 1556
1115 1325 1513 1554 1667 1605 1666 1931 1586 1608 1920 2346 2407 2498 2461 2781 2592 2299 1656 1410 1183 1286 1090 916 996 897 894 1211 1534 1676 1765 1632 2061 1241 1083 1205 1384 1352 1230 1140 1231 1667
1082 1031 1178 1195 1409 1522 1633 1694 1495 2000 1761 2478 2362 2389 2229 1774 1669 1766 1891 1351 1294 1240 1280 993 704 760 923 1219 1384 1345 1162 1018 1577 2155 1708 1378 1125 712 1330 2156 1844 1374
869 877 901 913 869 897 985 1156 1008 1386 1376 1387 1806 1909 1596 1250 1288 1145 1266 1325 1327 1345 1334 1309 1070 673 861 904 1046 1126 970 1643 1944 2152 2353 1499 978 1013 1949 1958 1929 2041
610 600 675 771 934 956 886 814 820 943 1001 1324 1393 1712 1546 1035 803 922 1084 1165 1296 1249 1113 1130 893 791 842 864 969 1018 1017 1614 2782 2900 1428 1397 1758 1119 1233 1006 1523 1918
597 571 545 518 548 621 765 733 744 726 738 882 870 1286 1408 1342 993 1067 1176 1156 1000 904 874 770 760 745 725 848 959 975 965 1784 3283 1949 1586 1464 1420 1344 1273 1117 1418 1972
415 408 398 424 438 456 529 521 520 590 666 802 856 857 700 1078 629 698 722 859 957 1076 1052 897 715 642 650 876 1025 1071 1049 1882 1756 1718 1535 1376 1476 1467 1349 1174 1197 1400

ECMWFNIL_con_mucape_111.txt.gz
CAPE
2243 2319 2359 2570 2980 2908 2778 2879 3154 2832 2604 2466 2564 2751 2477 2162 2459 1706 2820 2735 2699 3055 3729 3428 3590 3193 3860 3372 4448 3780 4477 3126 4168 3756 2913 3750 3328 2729 2616 2648 2410 2312
2327 2568 2716 2315 2499 3000 2844 2889 2809 2680 2775 3180 2421 2884 3077 3269 2746 2378 2478 2415 2816 2685 3245 3412 3718 3369 3488 3467 3062 3214 3854 4084 3943 3799 3604 3421 3627 3363 2678 2666 2197 2045
2757 2837 2542 2379 2077 2110 2278 2569 2930 3143 3131 2850 3214 3501 3367 2862 2552 1762 2590 2373 2448 2419 3053 3120 3307 3693 3609 4293 4282 3593 3407 3558 3445 3147 2769 3174 3915 3987 3425 3018 2589 2270
2799 3230 2696 2370 1908 1744 2272 2248 2572 2844 2824 2714 2990 3440 3214 2466 2257 2357 2859 3745 2070 2089 2744 3204 3279 3364 3554 3853 4342 4301 4003 3498 3753 3931 4324 4225 3853 4084 4136 3648 2894 2964
2430 2926 2918 2150 1935 1772 1905 1915 1968 1919 2122 2502 2664 2356 2843 2375 2504 2342 2667 2357 2819 3011 2795 2763 3002 3249 3218 3594 4238 3954 3726 4010 3888 4110 3310 3059 3596 4241 3743 3235 3102 2868
2670 2578 2593 2303 2201 2076 1778 2041 1848 1880 2080 2902 2530 2821 2570 2460 2131 2234 2385 2495 2722 2921 2923 2758 2946 3081 3475 3506 4169 3845 3646 3698 3618 3691 3858 3687 3878 3765 3262 2900 3254 2591
2313 2381 2074 2017 1904 2155 1980 1911 1823 2180 2248 2292 2156 2080 2305 2248 2314 2000 2515 2468 2164 2223 2336 2759 2834 2705 3130 3244 3498 3712 3568 3195 4132 3752 3946 3985 4231 4015 3763 3577 3559 3455
2218 2054 1749 1413 1900 1894 1947 1740 1768 2078 2029 1939 1788 2034 1986 2424 2378 2366 2497 2379 2339 2002 2188 2437 2806 2985 2913 3436 3506 3679 3946 3254 3736 3425 3795 3952 3608 3513 3654 3372 3306 3344
2108 2104 1794 1548 1926 1887 1838 1741 1863 1928 2078 1772 1672 1936 1927 2151 2312 2364 2328 2339 2343 2244 2730 2478 3234 3041 2665 2688 3235 3452 3403 3230 2977 3352 3488 3348 3523 3486 3420 3880 3830 3545
1734 1806 1685 1595 1464 1789 1550 1613 1638 1734 1889 1754 1581 1597 1787 1820 1850 1913 2427 2494 2500 2392 2843 2527 3384 3221 3143 2999 2882 3136 3458 3362 3177 3612 3676 3658 3545 3449 3204 3194 3461 3404
1328 1542 1590 1476 1241 1214 1538 1509 1473 1446 1750 1724 1355 1220 1635 1680 1817 2153 1949 2366 2558 2091 2764 2738 2638 3048 3152 3159 2747 2888 2915 3007 3069 3284 3354 3460 3513 3316 3938 3209 3081 2978
1107 981 1142 1213 1147 1016 850 781 962 1154 1516 1613 1510 1403 1364 1386 1538 1964 1948 1908 2632 2550 2754 2953 2477 2859 3091 3159 3008 2791 2813 2903 3019 3241 2984 3023 3158 3331 3136 3179 2974 3185
1937 2147 1143 1076 1010 854 523 516 476 482 882 1224 1228 1347 1309 1164 1309 1783 2002 2196 2684 2935 3079 3214 3184 3083 3056 3080 2931 2600 2661 2930 3074 3165 3078 2926 3000 2937 2810 2714 2707 2623
3098 2744 2293 2647 3198 3155 1403 767 642 366 208 127 972 1101 1164 1024 1232 1535 2296 2140 2547 2792 2717 2856 2989 3080 3123 3474 3256 2821 2710 2616 2683 2658 2632 2610 2488 2428 2357 2249 2212 2212
1930 1944 2044 2658 2776 2246 1538 1393 1061 900 934 983 1246 968 689 929 1108 1143 1791 2176 2656 2874 2826 2782 3019 3340 3310 3326 3532 3535 3392 3175 2612 2302 2233 2110 2140 2166 2188 1950 2067 2026
2909 2670 2392 2144 1927 1757 1689 1458 1037 1017 779 800 864 696 908 789 812 829 806 1778 2137 2694 2631 2515 2481 2646 2750 2830 2935 3389 3165 3060 2836 2441 2327 2149 2453 2193 1614 1361 1234 1176
2431 2087 2045 1956 1682 1573 1671 1459 1109 1125 1025 948 803 786 666 672 711 893 1264 1186 930 2022 2458 2336 2068 1959 1740 2037 2142 2475 2824 3165 2904 2567 2311 2432 2618 2219 2469 1890 1520 1502
2235 2062 1881 1817 1820 1924 1867 1583 1318 1125 926 963 1246 1475 1110 1183 956 807 703 851 809 1118 1730 1732 1655 1587 1621 1479 1650 1882 2158 2382 2507 2426 2271 2360 2355 1910 1614 1889 1702 1495
2033 2177 2158 2070 2058 2219 2268 2132 1840 1752 1486 1100 1566 1712 1930 2138 1204 1120 944 736 635 1067 1209 1064 1267 1479 1442 1234 1039 908 1016 1479 1798 2148 1694 1289 1692 1477 1550 1527 1445 1799
1812 1960 1918 2032 2045 2078 2129 1985 2020 2107 2121 1896 1773 2153 1994 2081 2094 1698 1385 1102 1134 1028 989 922 1007 1050 975 834 794 664 657 756 919 1374 1405 887 1664 1613 1690 1065 1357 1494
1326 1470 1609 1706 1705 1696 1615 1402 1560 1654 1821 2314 2066 1862 1928 1806 1638 1666 1614 1524 1368 1072 956 805 788 711 626 709 887 1003 1120 1040 1428 1348 1434 889 1247 1459 1328 1223 1410 1689
1158 1165 1147 918 1274 1630 1528 1745 1641 1525 1480 2162 1944 2037 2061 1943 1789 1716 1675 1579 1472 1306 1069 900 817 790 872 853 868 1162 1235 1339 1349 1216 1282 977 900 1491 1775 1689 1616 2109
1264 1259 1141 1053 1044 1244 1360 1494 1456 1577 1692 1699 1853 1640 1548 1768 1879 1780 1631 1570 1486 1281 1095 987 888 804 787 743 785 1150 1338 1519 1794 1494 1074 780 1424 1830 1852 1920 1737 1580
992 1001 1023 1046 1077 1059 1009 1100 1152 1237 1284 1245 1318 1304 1222 1280 1335 1367 1498 1501 1280 1229 1260 1286 1271 1262 1165 1004 787 958 1139 1646 2408 1559 1055 1151 1204 1250 1576 2032 2383 2330
724 731 718 676 660 703 852 966 956 934 1053 1062 1186 1294 1094 928 787 862 944 1035 1032 908 1032 1116 1184 1199 1178 1071 831 833 897 1492 2704 1967 1580 1209 1096 1078 1063 1072 1237 1363
539 511 509 488 464 465 556 696 853 971 988 883 937 933 964 904 720 535 590 626 581 589 698 823 868 906 937 907 830 715 1160 1953 1916 1730 1461 1290 1194 1130 1053 1022 1029 1299

ECMWFNIL_con_mucape_114.txt.gz
CAPE
1697 1994 1801 1887 2147 2276 2337 2158 2126 2173 2257 2022 2172 2121 2218 2160 2111 2138 2301 2375 2308 2757 3054 3057 3375 3248 3652 3485 3613 3484 3868 2635 3728 3114 2625 3120 2936 3075 2858 2841 2713 2158
1853 2127 2519 2013 2295 2508 2423 2497 2330 2194 2006 1944 1880 2034 2150 2233 2062 1978 2012 2295 2366 2538 3008 2773 2849 2652 2876 2932 3255 3040 3357 3634 3129 4199 3264 2795 2869 3270 3108 3049 2924 2820
1869 2094 2304 2057 2237 2484 2286 2452 2489 2470 2246 2261 2237 1994 2074 2571 2288 2036 1753 2159 2223 2267 2881 2856 3035 2839 2783 3022 3010 2693 2635 2873 2989 2979 2768 2499 3449 3196 3256 3351 3196 2888
1782 1970 2082 2031 2120 2367 2347 2394 2459 2570 2609 2539 2487 2578 2729 2580 2281 2137 1843 2856 2153 2118 2346 2735 2828 3029 3039 3240 3676 3118 2969 2677 2586 3084 3132 3678 3450 3608 3440 3352 3310 2878
1892 2048 1980 1833 1841 2062 2135 2241 2187 2405 2453 2603 2399 2239 2910 2751 2228 1881 2162 2406 2049 1970 2100 2628 2592 2784 2949 3004 3508 3472 3560 3405 3362 3389 3182 2792 2702 3493 3375 3369 3073 2862
2236 2238 2242 1929 1738 1576 1687 1862 1931 1781 2030 2216 2387 2202 2394 2565 2177 1869 2256 2308 2003 1746 2020 2458 2640 2720 2813 2812 3290 3250 3075 3209 3372 3444 3334 3079 2832 3161 3405 3229 3015 2969
2286 2396 2524 2159 1843 1669 1624 1536 1498 1537 1614 1922 2163 2257 2205 2310 2096 1936 2091 2066 2086 2296 2430 2220 2546 2702 2872 2808 3218 3303 3178 3071 3139 3238 3321 3260 3282 3242 3423 3498 3329 3154
2095 2324 2488 2383 1936 1752 1515 1436 1506 1537 1547 1616 1954 2183 2155 2191 2065 1900 1867 1979 1956 2105 2348 2330 2233 2292 2712 2878 3114 3320 3200 3131 3056 3303 3371 3379 3498 3425 3338 3155 3276 3282
1989 2210 2261 2308 2094 1899 1711 1621 1605 1574 1654 1696 1806 2078 2103 2062 1940 1770 1712 2030 2002 1888 1794 2001 2293 2259 2272 2664 2843 2993 3116 3239 3094 2950 2894 2909 3008 3156 3113 3035 3160 3278
1858 2040 2064 2030 2017 1882 1817 1800 1722 1600 1712 1802 1919 2029 1867 1894 1870 1966 1857 1963 2092 2081 1996 1917 2085 2333 2413 2478 2745 2861 2872 2954 3042 2932 2757 2647 2679 2713 2760 2800 2710 2645
2053 1954 1944 1878 1766 1661 1686 1740 1700 1679 1674 1864 2025 1941 1642 1750 1828 1940 2007 1968 2002 2019 2163 2155 2237 2520 2484 2431 2379 2609 2832 2900 2910 2845 2926 3038 3088 3024 3545 2908 2806 2674
2266 1972 2013 1961 1824 1562 1597 1676 1667 1635 1634 1805 1825 1752 1509 1612 1712 1834 1961 1980 2029 2065 2095 2224 2268 2622 2649 2561 2499 2452 2585 2721 2806 2766 2731 2941 3098 3145 3088 3193 3048 2955
2085 1690 1158 1556 1827 1730 1626 1640 1597 1528 1495 1609 1692 1589 1470 1470 1556 1692 1846 1870 2050 2119 2085 2156 2145 2240 2446 2578 2666 2603 2542 2480 2418 2338 2435 2569 2688 2764 2885 2893 2859 2818
1638 1617 1294 1432 1744 1779 1684 1594 1539 1451 1369 1398 1495 1425 1358 1307 1365 1533 1655 1634 1695 1977 2144 2326 2252 2141 2230 2368 2562 2672 2620 2600 2532 2414 2464 2619 2664 2656 2588 2576 2493 2383
1102 1129 1154 2020 2121 1612 1520 1330 1119 1123 1289 1322 1399 1464 1426 1370 1304 1436 1496 1593 1635 1840 2266 2634 2578 2442 2401 2430 2555 2604 2580 2549 2515 2342 2422 2530 2624 2557 2353 1971 2033 2043
1095 1256 1450 1955 1734 1442 1279 1073 919 734 652 825 879 1150 1307 1341 1313 1300 1370 1700 1844 2156 2318 2480 2618 2737 3161 3242 3156 3102 2831 2854 2785 2790 2188 1791 1589 1666 1922 1839 1564 1342
1868 1486 1519 1786 1720 1593 1213 959 743 718 698 729 659 735 932 1108 1163 1166 1085 1455 1776 1956 2321 2476 2435 2471 2472 2554 2622 2732 2979 3110 2917 2496 1979 1713 1320 1538 1647 1598 1189 1168
1848 1842 1757 1788 1840 1578 1563 1400 1014 789 851 856 822 807 811 712 835 853 937 1012 1363 1667 2029 2360 2386 2349 2317 2275 2286 2350 2372 2406 2510 2666 2425 2140 1635 1057 1232 1246 1364 1405
2233 2119 1996 1974 1960 1757 1734 1762 1568 1247 1018 1275 1266 1377 1423 617 527 530 588 669 830 1206 1639 1932 2206 2232 2154 2049 1814 1898 2008 2121 2066 2139 2278 2090 1592 1076 1087 1282 1426 1416
2066 2020 1975 1940 1830 1759 1594 1768 1940 1912 1614 1817 1916 1822 1438 996 679 604 624 605 700 1021 1385 1600 1989 2189 2201 1911 1567 1498 1449 1444 1387 1298 1384 1472 1464 1188 812 903 1015 1452
1650 1971 2186 2284 2050 1729 1432 1564 1715 1873 1891 1892 1785 1638 1572 1268 1182 912 842 889 1026 731 736 813 978 1020 972 1101 1280 1308 1216 1007 808 733 770 858 1169 1133 1097 864 1166 1366
1219 1362 1545 1543 1771 1838 1740 1714 1732 1699 1717 1847 1920 1789 1579 1447 1365 1258 1259 1148 959 871 740 769 719 681 731 827 795 694 775 947 850 764 654 927 1040 1301 1186 994 1127 1394
985 1044 1061 979 1035 1453 1671 1635 1719 1930 1695 1821 1837 1891 1867 1702 1569 1426 1391 1336 1243 1166 1111 1063 1016 1006 950 817 648 707 781 879 976 1034 1004 1014 1066 1572 1562 1463 1507 1791
1154 1138 1081 972 940 713 747 840 1298 1776 1809 1804 1719 1596 1687 1791 1727 1714 1584 1492 1435 1344 1340 1230 1182 1049 922 789 789 767 911 992 1093 1260 1400 1330 1389 1639 1701 1629 1597 2516
988 966 995 901 1110 1030 1007 1126 1215 1301 1318 1470 1588 1544 1460 1208 1161 1186 1240 1372 1341 1312 1322 1322 1244 1017 824 720 721 736 933 1332 1247 1116 1158 1240 1260 1177 1329 1709 1958 2290
517 394 510 686 963 1065 1113 1129 1109 1078 1071 1192 1236 1226 1100 950 881 851 864 877 895 1066 1000 944 994 1217 1223 1171 1121 1096 1007 1690 1995 1531 1121 992 933 978 1292 1798 2023 1743

ECMWFNIL_con_mucape_117.txt.gz
CAPE
1526 1469 1263 1289 1314 1434 1468 1394 1434 1609 1928 1952 1892 1906 1954 2070 2241 2381 2306 2383 2413 2320 2297 2358 2765 2889 3000 2744 3239 2578 3395 2437 3111 2862 2679 2615 2672 2673 2696 2731 2698 2678
1471 1628 1664 1268 1351 1956 1654 1403 1536 1569 1779 1893 1754 1810 1879 1937 1999 2188 2219 2154 2298 2313 2272 2420 2732 2609 2744 2860 3077 2858 2809 3217 2674 4211 3196 2558 2686 2677 2788 2979 2873 2692
1387 1609 1693 1472 1433 1734 1854 1752 1675 1710 1765 1854 1803 1761 1918 2134 2000 2013 2069 2060 2076 2161 2248 2473 2609 2516 2650 2736 2642 2741 2552 2401 2420 2610 2778 2730 3087 2907 2982 3146 2925 2823
1368 1474 1723 1637 1561 1770 1957 2007 2033 1948 1852 1895 1926 1855 1846 2015 2142 2049 1974 2406 1933 1988 2098 2412 2530 2486 2489 2577 2796 2710 2603 2461 2340 2547 2889 3052 2990 3101 2880 3013 3034 2764
1590 1518 1668 1736 1649 1854 1991 2088 2196 2184 2140 2063 2053 2115 2304 2193 2194 2123 2070 1952 1868 1840 1916 2244 2553 2678 2681 2619 2903 3022 2988 2838 2978 3015 2987 2897 2848 2868 3154 3208 2982 2858
1699 1729 1634 1721 1732 1814 1950 1998 2090 2193 2233 2243 2231 2226 2232 2318 2296 2146 1998 1936 1866 1813 1822 1965 2282 2506 2610 2672 2806 2984 3050 3101 3024 3119 3032 3029 2982 2828 3009 3096 3078 3034
1722 1688 1640 1668 1680 1723 1798 1881 1952 2007 2070 2082 2089 2162 2158 2082 2158 2134 1960 1794 1840 1805 1820 1866 2009 2217 2356 2532 2597 2773 2870 2837 2786 2803 3001 3084 3088 3036 2949 3214 3198 3028
1852 1709 1698 1726 1669 1611 1620 1664 1766 1854 1896 1871 1823 1912 2069 2106 2012 2001 1956 1832 1873 1792 1790 1778 1836 2068 2257 2442 2518 2590 2739 2865 2814 2755 2913 3016 3060 3110 3044 3058 3074 3024
1974 1874 1865 1941 1773 1612 1511 1468 1482 1535 1562 1601 1590 1605 1858 2054 2059 1963 1904 1844 1897 1877 1815 1848 1812 1914 2118 2417 2497 2583 2680 2809 2893 2857 2798 2883 2984 3000 2947 2953 2918 2870
2033 1957 1995 2094 2010 1795 1645 1571 1550 1527 1458 1379 1358 1392 1580 1801 1952 1967 1888 1820 1781 1810 1808 1896 2025 2050 2055 2151 2369 2505 2632 2713 2864 2907 2848 2801 2724 2629 2426 2366 2464 2454
2068 2011 1965 2070 2084 1979 1814 1706 1584 1470 1428 1454 1467 1477 1487 1589 1794 1933 1930 1801 1687 1718 1771 1778 1756 1888 2018 2046 2141 2309 2444 2550 2630 2692 2739 2762 2755 2697 3125 2760 2745 2617
2034 2008 1905 1975 2024 1989 1880 1740 1664 1588 1512 1504 1556 1553 1508 1581 1733 1926 1873 1753 1611 1610 1720 1812 1839 1849 1893 2022 2120 2198 2343 2474 2548 2591 2623 2687 2740 2700 2749 2876 2925 2815
2008 1972 1890 1892 1921 1895 1778 1690 1657 1643 1580 1553 1601 1610 1596 1646 1829 1921 1764 1702 1704 1675 1643 1781 1880 1920 1985 2059 2100 2142 2234 2341 2449 2517 2565 2632 2681 2641 2708 2784 2840 2896
2103 2066 1984 1946 1923 1826 1752 1718 1651 1576 1563 1566 1574 1620 1644 1690 1822 1854 1666 1624 1699 1760 1781 1776 1833 1914 2035 2171 2215 2246 2213 2186 2221 2294 2378 2380 2334 2333 2346 2456 2557 2607
2197 2191 2137 2099 2084 1994 1911 1908 1805 1645 1538 1516 1511 1550 1577 1597 1605 1675 1637 1501 1622 1702 1782 1842 1858 1919 1973 2010 2118 2226 2266 2257 2261 2295 2325 2333 2251 1989 1894 1976 2292 2432
2100 1919 1903 2137 2223 2067 1839 1748 1725 1739 1651 1575 1570 1520 1474 1505 1512 1507 1438 1388 1490 1580 1658 1842 2048 2018 2354 2531 2406 2163 2140 2199 2231 2212 2286 2354 2228 1916 1734 1659 1676 1843
1846 1659 1689 1648 1544 1642 1259 1358 1599 1679 1680 1624 1563 1506 1452 1383 1398 1399 1313 1294 1362 1485 1558 1804 2164 2449 2758 2575 2413 2726 2810 2208 2289 2344 2412 2382 2212 1929 1742 1515 1486 1621
1717 1600 1383 1121 988 1212 1014 1321 1525 1594 1571 1490 1356 1103 1093 1234 1322 1371 1374 1339 1313 1422 1557 1853 2040 2363 2441 2499 2514 2504 2996 2759 2706 2658 2628 2522 2362 2126 1937 1617 1371 1407
1378 1463 1224 818 987 1316 1264 1013 1114 1228 1262 1137 902 742 728 848 1040 1191 1284 1287 1270 1322 1552 1870 1934 1950 2160 2276 2339 2355 2395 2665 2603 2622 2526 2402 2342 2264 2066 1786 1347 1101
888 876 749 848 899 1082 1280 1214 935 890 817 808 635 1018 888 664 768 921 1033 1116 1152 1194 1506 1800 1875 1906 1986 2092 2181 2200 2216 2185 2196 2197 2204 2220 2201 2103 1997 1827 1273 996
1180 969 978 1140 1247 1427 1467 1298 1297 1230 1096 1009 693 550 642 633 628 723 792 914 899 912 1160 1471 1658 1769 1879 1972 2064 2127 2105 2020 1853 1838 1858 1922 1849 1741 1729 1718 1363 903
1631 1627 1699 1748 1725 1793 1780 1759 1735 1590 1403 1238 1178 957 737 460 541 519 924 789 735 710 762 892 1042 1191 1410 1648 1852 1953 2049 2071 1809 1534 1422 1347 1219 1120 1178 1264 1141 862
1534 1604 1631 1490 1492 1527 1668 1762 1808 1719 1610 1492 1435 1454 1396 976 816 671 875 916 709 571 542 643 818 898 1048 1266 1488 1667 1676 1396 1119 1136 1039 873 748 671 704 944 938 833
1337 1474 1437 1104 964 866 842 884 970 1113 1374 1482 1505 1406 1416 1355 1270 1007 1070 1050 962 865 764 728 652 585 581 586 590 610 608 640 662 655 825 802 763 857 1014 999 1037 2200
924 1226 1133 938 911 878 796 732 712 652 618 757 971 1139 1065 1000 1165 1359 1333 1248 1185 1083 988 961 938 921 880 895 902 914 908 868 847 772 889 952 983 1101 1168 1232 1280 2288
773 924 991 1032 1085 1008 916 805 684 620 740 825 986 966 949 976 1088 1226 1322 1253 1240 1256 1149 1042 1033 1055 1012 956 951 931 894 920 838 720 894 979 1054 1201 1252 1172 1094 1690

ECMWFNIL_con_mucape_120.txt.gz
CAPE
924 1073 1052 1094 1067 1068 1142 1351 1539 1648 1697 1834 1996 1936 1768 2086 2198 2298 2297 2451 2409 2411 2320 2260 2442 2796 3230 3031 3076 2368 2899 2589 2968 2890 2730 2862 2942 2771 2930 2946 2751 2516
1106 1316 1520 1148 1193 1655 1327 1198 1355 1540 1660 1798 1862 1787 1685 1912 2015 2203 2244 2314 2485 2530 2379 2324 2419 2647 2700 2937 3000 2893 2685 3572 2974 4431 3294 2573 2931 2784 2986 3222 3002 2737
1158 1458 1428 1204 1153 1438 1589 1406 1348 1417 1589 1782 1841 1824 1786 2092 1914 2007 2137 2234 2299 2292 2264 2299 2440 2660 2625 2706 2728 3050 3025 2587 2717 2589 2683 2731 3007 3062 3123 3267 3154 2903
1136 1428 1496 1358 1184 1329 1661 1708 1613 1630 1630 1769 1776 1825 1866 2176 2184 1931 1934 2648 2123 2152 2120 2203 2467 2575 2552 2536 2636 2618 2601 2538 2490 2611 3017 3230 3030 3120 3052 3182 3308 2825
1177 1307 1522 1530 1368 1458 1718 1788 1828 1769 1818 1797 1818 1886 2134 2118 2248 2112 1982 1933 2054 2019 2015 2125 2327 2506 2590 2471 2622 2836 2733 2731 2624 2714 2926 2941 2816 2981 3243 3282 2943 3108
1270 1296 1531 1600 1542 1593 1750 1846 1899 1980 1992 1968 1952 2193 2159 2082 2050 2141 2090 1937 1888 1903 1942 1956 2178 2423 2596 2680 2627 2846 2939 3168 3072 2928 3033 3009 3006 2806 2994 3270 3163 3211
1398 1345 1412 1619 1614 1634 1787 1863 1964 2212 2106 2170 2210 2200 2219 2200 2242 2214 2035 1959 1907 2045 1936 1924 2037 2317 2449 2704 2669 2817 2788 2807 2831 2816 2989 3019 3033 3179 2994 3410 3596 3154
1545 1492 1480 1580 1650 1623 1771 1786 1830 2058 2067 2091 2116 2127 2145 2158 2192 2190 2189 2158 2088 2001 1990 1877 1949 2141 2256 2493 2630 2648 2752 2714 2798 2644 2701 2796 2739 2957 3041 3003 3223 3237
1635 1592 1551 1551 1641 1604 1612 1635 1699 1755 1836 1924 1967 1996 2005 2093 2130 2084 2044 2019 2010 2056 1914 1858 1869 1981 2141 2417 2546 2596 2668 2766 2982 2882 2797 2850 2771 2966 3018 2855 2896 3096
1710 1661 1610 1618 1654 1641 1599 1532 1555 1598 1674 1736 1797 1819 1840 1969 2076 2102 2064 2016 1929 2088 1943 1936 1928 1924 2014 2220 2479 2584 2679 2764 2869 2931 2875 2836 2852 2877 2722 2683 2739 2650
1768 1746 1721 1745 1774 1712 1635 1522 1479 1463 1488 1520 1546 1598 1624 1629 1936 2054 1982 2021 1969 1944 1973 1906 1990 2030 2038 2035 2231 2483 2624 2707 2776 2874 2883 2849 2816 2730 3028 2838 2634 2730
1843 1844 1841 1847 1912 1885 1814 1701 1617 1525 1480 1544 1532 1527 1504 1428 1577 1795 2003 1885 1905 1926 1926 1910 1851 1962 2100 2157 2138 2272 2426 2554 2686 2784 2725 2747 2701 2662 2732 3009 3091 3053
1914 1911 1896 1907 1979 1989 1895 1842 1798 1724 1637 1554 1554 1603 1540 1508 1465 1617 1911 1973 1900 1911 1950 1900 1883 1805 1962 2080 2142 2199 2294 2497 2538 2636 2696 2653 2668 2691 2769 2850 2922 2996
1988 1970 1965 1960 1952 1945 1918 1914 1894 1856 1777 1647 1590 1594 1578 1551 1506 1559 1585 1821 1887 1889 1966 1968 1929 1943 2010 2096 2214 2215 2270 2335 2421 2561 2649 2608 2608 2675 2626 2624 2786 2878
1955 1948 1939 1942 1937 1901 1839 1826 1818 1798 1723 1605 1551 1559 1511 1576 1555 1604 1623 1632 1723 1840 1904 1968 1926 1972 2056 2152 2305 2379 2345 2298 2289 2389 2438 2537 2532 2558 2312 2299 2348 2549
1903 1875 1846 1842 1815 1766 1732 1774 1842 1832 1728 1696 1691 1656 1619 1538 1498 1551 1588 1598 1616 1635 1712 1836 2001 2085 2260 2476 2369 2526 2456 2385 2350 2337 2464 2427 2378 2256 2295 2260 2024 1742
1879 1831 1818 1775 1751 1749 1722 1752 1698 1578 1617 1698 1689 1643 1602 1604 1584 1576 1538 1528 1512 1474 1496 1683 1948 2111 2173 1987 2060 2224 2913 2442 2382 2398 2200 2184 2153 2212 2281 2313 2085 1718
1870 1848 1854 1863 1859 1816 1698 1619 1641 1610 1590 1608 1522 1430 1460 1523 1555 1518 1440 1454 1456 1442 1464 1607 1753 1997 1898 1988 2014 2012 2516 2859 2428 2240 2018 2182 2279 2316 2353 2344 2250 2124
1922 1929 1929 1937 1908 1762 1500 1420 1375 1340 1341 1180 1171 1133 1230 1430 1500 1454 1240 1084 1099 1189 1369 1517 1740 1525 1677 1976 2153 2230 2240 3088 2785 2363 2161 2261 2360 2404 2423 2445 2386 2220
1821 1882 1871 1871 1848 1780 1676 1486 1174 968 976 954 823 951 1067 1003 1169 1145 899 774 881 1019 1151 1413 1462 1465 1527 1599 1743 1946 2186 2459 2634 2554 2520 2520 2503 2488 2483 2448 2346 2219
1671 1669 1663 1669 1655 1594 1509 1292 979 922 808 770 867 926 966 1006 956 821 736 927 830 834 1019 1012 1145 1303 1390 1458 1553 1704 1943 2152 2263 2315 2398 2459 2464 2423 2371 2298 2228 2113
1536 1448 1341 1280 1204 1009 766 845 949 968 849 844 916 920 870 800 850 715 648 511 501 591 665 797 956 1131 1278 1397 1520 1643 1777 1912 2019 2097 2155 2185 2150 2070 1981 1980 1966 1862
1162 1063 1008 950 836 676 726 968 1132 1132 1203 1228 1244 1188 1144 1151 1110 942 655 590 449 484 531 603 716 799 964 1116 1269 1397 1535 1671 1786 1892 1960 1982 2036 1989 1798 1529 1373 1295
1220 1353 1281 1064 974 1112 1234 1375 1424 1378 1316 1374 1524 1688 1687 1644 1506 1375 1261 1086 860 662 670 696 682 657 585 707 748 860 1030 1226 1424 1592 1741 1864 1909 1675 1294 1161 1109 1575
887 930 1167 1257 1239 1257 1286 1354 1308 1225 1156 1165 1272 1259 1279 1330 1419 1473 1409 1293 1180 1046 896 851 830 767 742 729 675 639 574 726 823 976 1073 1091 955 845 991 1113 1261 1666
891 850 823 838 903 939 982 968 979 919 842 756 720 685 680 653 667 735 865 982 1028 995 938 955 994 982 933 866 772 794 755 728 700 675 674 581 527 793 943 880 903 985

ECMWFNIL_con_mucape_123.txt.gz
CAPE
1966 1889 1947 2083 2285 2057 2360 2603 2314 2300 2810 2438 2300 2366 2747 3005 3106 3106 3163 3260 3402 3238 3366 3591 3591 3671 3361 3698 4162 3911 3759 3759 3654 3573 3778 3719 3226 2965 2713 3121 3386 3477
2025 1973 2122 1988 2514 2771 2767 2388 2508 2534 3017 3231 2650 2772 3041 3156 2941 2948 2979 3175 3238 3184 3539 3395 3376 3424 3513 3245 3925 3666 3793 3708 3625 3450 3740 3782 3428 3093 2896 3204 3215 3520
2005 2103 2044 1983 1899 2320 2033 2257 2401 2793 2516 2432 2692 3275 2991 2886 2620 3088 3314 3205 2904 2957 3321 3739 3397 3513 3349 3546 4015 3670 3378 3883 3465 3226 3558 3547 3578 3412 3360 2942 2888 3188
2210 2120 1849 1755 1706 1941 2154 2572 2798 2673 2332 2768 2732 2628 2722 2568 2663 2823 3309 3513 3294 3297 3143 3115 3134 2895 3203 3422 3999 3591 3507 3831 3408 3556 3458 3608 3555 3443 3412 3381 3090 2934
2074 2216 2105 2056 1953 2221 2388 2454 2175 2236 2255 2316 2413 2819 3168 3286 3188 2666 2970 3188 3551 3178 3129 3333 3320 2991 3425 3513 3753 3517 3471 3419 3504 3767 3632 3489 3410 3352 3160 3384 3545 3131
2302 2430 2575 2370 2424 2439 2213 2229 2205 2209 2264 2236 2515 2504 2614 2935 2862 2610 2670 2649 2536 2506 2329 2438 2646 2598 2632 3033 3595 3395 3152 3213 3265 3708 3554 3550 3001 3158 3027 3405 3633 3425
2078 2434 2274 2328 2311 2223 2181 2201 2284 2428 2202 2161 2531 2536 2525 2566 2710 2655 2786 2684 2441 2578 2394 2593 3192 3007 2867 3390 3752 3938 3752 3618 3484 3614 3538 3403 3501 3420 3426 3613 3833 3895
1786 2118 2240 2382 2260 2251 2358 2238 2362 2481 2572 2612 2504 2555 2582 2396 2563 2420 2621 2714 2627 2615 2750 2597 3063 3604 3010 2958 3394 3667 3523 2876 3171 3679 3605 3498 3574 3516 3392 3321 3538 3956
1922 2217 2271 2348 2229 2225 2193 2080 2292 2406 2553 2569 2246 2258 2667 2478 2516 2440 2866 3030 2708 2674 3012 2890 3312 3048 2999 3241 3412 3612 3404 2658 2657 3058 3478 3483 3433 3562 3248 3118 3235 3458
2374 2302 2146 2196 2158 2224 2186 2142 2114 2313 2583 2434 2229 2126 2278 2695 2701 2596 2862 3225 2974 2940 3117 3148 3130 3094 2978 3152 3494 3462 3254 3340 3149 3207 3202 3334 3395 3447 3243 3120 2976 2924
2344 2320 2252 2260 2199 2152 2232 2191 2182 2170 2388 2350 2160 2024 2104 2232 2684 2796 2900 3182 2686 2762 2989 3095 3024 3078 3263 2974 2956 2949 3208 2855 2796 3175 3274 3398 3377 3441 3493 3600 3474 3236
2512 2417 2336 2372 2314 2269 2266 2186 2096 2097 2175 2266 2138 2104 2236 2094 2186 2411 2500 2952 2898 2820 2865 3005 3124 3228 3290 3211 2750 2719 2901 2819 2834 3190 3090 3253 3359 3348 3494 3568 3464 3465
2564 2790 2821 2607 2542 2430 2324 2247 2103 2004 1986 2014 2081 2097 2095 1915 1866 2242 2487 2576 2894 2856 2685 2869 3112 2967 3224 3340 3051 2837 2870 2900 2712 2997 3107 3125 3343 3234 3205 3207 3286 3258
2620 2727 2706 2823 2746 2783 2734 2504 2298 2139 2162 2112 2210 2223 2106 1834 1662 1810 2249 2359 2592 2732 2792 2907 3198 3092 3299 3357 3071 2917 2905 2947 2936 2989 2902 2429 2047 2234 2348 2593 3070 3152
3042 2842 2534 2584 2779 2790 2526 2487 2618 2635 2590 2604 2589 2474 2175 2063 2001 1844 2018 2266 2368 2670 2778 2798 2702 2841 2836 2973 3091 3158 3005 2670 2572 2617 1841 1825 2420 2292 2267 2600 2693 3006
2904 2816 2682 2588 2307 2415 2645 2684 2546 2460 2364 2463 2516 2523 2496 2441 2406 2405 2315 2327 2472 2720 2828 2757 2577 2568 2769 2531 2648 2869 2590 2004 2064 2361 2688 2747 3024 2693 2572 2794 2507 3096
3053 2898 2524 2412 2420 2688 2979 2716 2435 2251 2221 2321 2399 2462 2513 2636 2530 2462 2346 2283 2280 2451 2682 2596 2190 2164 2458 2045 1738 1736 2549 2212 2121 2348 2853 3181 2885 2971 3227 2972 3139 3135
2294 2211 2254 2287 2287 2438 2588 2740 2450 2140 2200 2280 2179 2224 2529 2201 2205 2305 2440 2294 2257 2252 2306 2320 2205 1985 1727 1462 1134 1122 1870 2360 2467 2340 1883 2311 2755 3123 3299 3177 3190 3012
1589 1632 1804 1945 2009 2309 2229 2274 2229 2214 2231 2185 2089 2364 2579 2498 2498 2224 2306 2431 2128 2251 2119 2129 2118 1884 1548 1284 1235 1402 1547 1808 2414 2430 2789 3035 2947 3239 3158 3418 3455 3234
1188 1202 1445 1605 1696 1775 2012 2103 2114 2156 2223 2122 1986 2157 2128 2107 2015 2052 2021 2249 2046 2162 2286 2050 2192 1613 1410 1236 1222 1274 1369 1529 2354 2981 3409 3258 3148 3124 3129 3167 3356 3325
895 1262 1546 1580 1486 1652 1859 2035 2037 2099 1742 1732 1913 2022 1916 2072 1961 1885 1944 1904 1788 1780 1985 1949 1402 1124 1018 1051 1127 1224 1278 1359 1730 2752 3486 3488 3357 3296 3477 3393 3476 3519
834 1080 986 1289 1324 1382 1583 1663 1632 1620 1547 1548 2016 2198 2145 1983 1836 1842 1839 1707 1667 1598 1686 683 668 743 808 897 963 1040 1134 1211 1579 2272 2856 3053 3183 3359 3481 3574 3491 3331
841 766 932 908 1058 1173 1251 1253 1282 1278 1196 1046 1270 1427 1482 1844 1888 1717 1667 1714 1608 1606 1283 525 452 520 554 615 704 816 932 1066 1419 1631 2002 2248 2376 2624 2842 2960 2880 2825
693 840 801 766 924 900 911 884 762 808 625 542 1056 1160 1338 1690 1604 1178 1060 1054 1045 995 838 654 483 402 357 423 476 509 540 923 1387 1573 1849 2002 2034 2133 2249 2279 2185 1752
612 627 620 669 590 598 524 527 491 588 768 903 886 1071 980 1009 1385 1375 1489 1496 1463 1406 1340 1255 1153 1019 836 641 506 547 560 783 859 1246 1383 1604 1733 1841 1868 1911 1619 1654
620 658 720 782 726 736 730 597 614 754 895 1021 962 950 961 914 1024 1072 1131 1128 1168 1237 1216 1210 1143 1086 989 876 711 621 625 622 643 897 1074 1199 1286 1061 1000 1386 1190 1144

ECMWFNIL_con_mucape_126.txt.gz
CAPE
1843 1788 1952 1994 1953 1633 1776 1884 1959 1936 2110 1832 1579 1418 1638 2241 2484 2386 2703 3011 3446 3515 3746 3892 3862 3792 3419 3818 4576 4135 3612 3940 3746 3343 3467 3371 3106 2636 2436 2777 3046 2839
2061 1879 1880 1844 2043 2153 2124 2096 2369 2215 2169 2460 2123 1802 1765 1934 2299 2360 2169 2384 3285 3214 3611 3700 3850 3668 3611 3260 4170 3716 4002 3956 3717 2983 3366 3860 3118 2706 2481 2590 2544 3139
2027 1856 1818 1888 1868 2174 1987 2009 2109 2256 2223 2277 2286 2100 1990 1914 2072 2148 2066 2038 2375 2847 3311 3953 3688 3783 3538 3409 4192 3653 3331 4010 3641 2958 3483 3761 3419 3354 3341 2584 2549 2787
2056 1737 1553 1497 1592 1836 1856 2067 2159 2172 2333 2259 2259 2262 2111 2229 2313 2511 2386 2392 2652 3154 3197 3332 3381 3232 3379 3382 4322 3524 3198 4360 3444 3894 3800 3853 3542 3300 3257 3288 2909 2602
1986 1827 1657 1582 1535 1806 2017 2049 2140 2196 2102 2250 2270 2460 2715 2692 2895 2618 2660 2804 2883 2831 3071 3031 3333 2887 3174 3413 3937 3461 3230 3447 3469 4086 3642 3557 3531 3282 3084 2911 3212 3367
1994 2032 1970 1651 1652 1945 1947 2044 2192 2164 2201 2028 2129 2184 2354 2888 2860 2785 2649 2641 2737 2353 2322 2439 2624 2439 2517 2892 3027 3058 2995 2672 2563 3627 4040 3975 3336 2801 2588 2773 3435 3507
1761 1916 1795 1639 1605 1750 2105 2120 2154 2254 2143 2089 2226 2197 2332 2556 2686 2684 2782 2796 2642 2566 2264 2192 2589 2718 2544 2814 3135 3667 3402 3259 3266 3760 4131 3503 3453 3345 2820 2766 3077 3410
1681 1643 1691 1559 1454 1591 2116 2081 2084 2215 2318 2293 2200 2331 2425 2384 2594 2558 2551 2607 2586 2430 2558 2440 2737 3137 2854 2526 2824 3074 3289 2818 3012 3536 3673 3327 3450 3601 3461 2644 2707 3643
1811 1632 1696 1484 1280 1393 1800 1898 1977 2158 2270 2316 2122 2165 2430 2213 2355 2356 2437 2642 2427 2512 2820 2767 2850 2768 2820 2633 2593 2953 3154 2789 2392 2756 3218 3503 3446 3500 2994 2803 2770 3143
1875 1740 1409 1330 1158 1287 1568 1871 1764 1983 2236 2186 2061 1938 2036 2310 2129 2370 2555 2873 2801 2641 2653 2644 2519 2557 2375 2501 2788 3110 3024 3068 3021 2908 2975 3130 3205 3047 2974 3188 3076 2987
1760 1686 1375 1294 1132 1120 1308 1705 1712 1764 2016 2132 1973 1840 1870 2164 2414 2470 2646 3223 2850 2627 2622 2651 2541 2596 2645 2462 2570 2718 2801 2820 2831 2840 3073 3230 3145 3168 3272 3525 3467 3312
1762 1817 1626 1387 1182 1040 1212 1492 1572 1619 1769 2013 1988 1954 1969 2023 2297 2505 2471 3065 3046 2640 2550 2831 2868 3018 2880 2970 2640 2534 2449 2571 2600 2746 2673 2712 2838 2859 3126 3127 3024 3178
2308 2345 2317 1893 1603 1359 1244 1554 1547 1481 1520 1732 1904 1918 2052 1979 1919 2312 2441 2471 2840 2479 2413 2766 3133 3001 3069 3198 3070 2792 2598 2562 2292 2212 2219 2266 2367 2467 2679 2937 2952 2840
2434 2387 2854 2572 2342 2030 1781 1656 1708 1534 1613 1593 1840 1922 1891 1861 1779 1797 2018 2223 2312 2420 2471 2666 3125 3221 3361 3508 3296 2973 2663 2568 2519 2271 2380 2313 2409 2927 3046 2663 2492 2120
1830 1971 2071 3055 2916 2555 2474 2164 2103 1929 1718 1772 1870 1970 1792 1717 1711 1638 1806 1964 2052 2258 2467 2449 2499 2742 2742 3036 3246 2865 2886 2687 2914 3002 2958 2944 2778 2446 2278 2720 2583 2301
1715 1696 1610 2182 2208 2314 2185 2875 2628 2439 2159 2249 2212 1978 1798 1750 1858 1841 1766 1915 2004 2230 2483 2524 2392 2370 2626 2586 2535 3174 2939 2565 3171 2502 2611 2840 2960 2748 2428 2447 2562 2473
1635 1788 1687 1668 1847 1950 2399 2442 2741 2745 2816 2880 2485 2299 2076 2008 1927 2049 1974 2036 2120 2203 2444 2517 2302 2198 2787 2240 2176 2361 3370 3516 3040 3038 2996 3079 2864 2877 2773 2472 2390 2273
2023 1735 1453 1542 1669 1833 1694 1886 2336 3327 3278 3272 2667 2374 2805 2557 2502 2105 2570 2338 2165 2215 2144 2328 2439 2390 2066 2232 2168 1950 2353 2600 2820 2528 2302 2368 2662 2619 2793 2721 2800 2477
2250 2220 1768 1612 1461 1701 1829 1741 2078 3012 3953 3740 3129 2720 3159 3351 2943 2680 2100 3017 2368 2442 2162 2036 1931 1377 1522 1894 1863 1687 1331 2148 2343 2850 2859 2764 2590 2699 2897 2772 2906 2963
2480 1956 1802 1578 1520 1424 1280 1276 1608 1938 2796 3617 3454 3261 3493 3654 3196 2993 2912 2458 2591 2137 2752 2566 2334 1337 1686 1666 1480 1279 1105 1213 2225 2340 2609 2726 2749 2755 2528 2591 2846 2339
1653 1474 1420 1331 1177 1107 993 1128 1470 1570 1852 2259 2660 3170 3596 3668 3260 2975 2827 2869 2189 2150 1979 2501 1604 1681 1874 1654 1391 1244 1066 1101 2164 2160 2918 2940 2930 2821 2326 2248 2057 2010
1359 1251 1163 1044 989 1025 1121 1205 1316 1451 1602 1513 1610 1684 1642 1752 2050 2819 2325 2663 2760 2221 2128 1229 1202 1623 1572 1337 1075 943 941 959 1930 2493 3065 3170 3137 2835 2306 2365 2065 2074
1169 1214 821 790 795 964 1134 1206 1119 1232 1414 1033 912 1035 994 1294 1490 1544 1343 1758 1908 1962 2275 1655 1370 937 618 562 678 577 792 1441 2009 2434 2904 3145 3140 2053 1844 2121 2460 2970
602 635 668 717 751 749 879 882 868 972 997 766 859 1044 1299 1098 1004 928 978 919 955 918 950 758 693 452 576 494 407 375 338 1049 2363 2703 2817 2819 2944 3117 3419 3455 3199 2273
334 462 611 676 763 675 713 701 688 776 674 653 798 995 1021 958 728 791 719 672 688 669 579 544 450 380 514 676 663 660 596 1168 1533 1909 2053 2196 2443 2540 2517 2438 2315 1948
322 369 408 335 368 472 523 523 519 639 675 652 846 812 694 730 729 680 584 714 774 825 770 816 931 964 1006 1096 1130 1040 941 807 1327 1556 1636 1818 1932 2134 2039 2098 1966 1920

ECMWFNIL_con_mucape_129.txt.gz
CAPE
1516 1361 1485 1623 1676 1448 1326 1387 1351 1330 1397 1284 1278 1393 1250 1564 1637 2096 1907 2246 2888 3102 3591 3964 3865 3390 2846 2924 4165 3561 2862 3689 4192 3119 2980 2804 2184 2239 1451 1907 2113 2273
1599 1424 1300 1512 1818 1734 1589 1449 1392 1523 1402 1552 1558 1339 1093 1374 1446 1778 2021 2540 3269 3049 3603 4164 3371 3146 3516 3194 3976 3395 3644 3654 3348 2310 2310 3038 3170 2006 1778 1487 1715 1533
1698 1478 1243 1452 1624 1786 1586 1471 1771 1621 1456 1561 1521 1773 1532 1218 1628 1838 1775 1944 2113 2271 2561 3123 3316 3471 3196 2750 3706 4058 3563 3834 2953 2400 2675 3292 3176 2578 2598 2176 1659 1495
1966 1686 1321 1400 1707 1686 1607 1760 1933 2065 2008 2038 1480 1625 1470 1535 1270 1607 1841 1861 1647 1826 2540 3009 2867 3074 2967 2830 3435 3325 2536 3627 4039 3733 3827 3815 3599 3313 2897 2440 2354 2303
1795 1705 1354 1350 1565 1702 1844 1775 1818 1751 1828 1858 1990 2033 1800 1546 1691 1515 1772 1823 1960 1848 2058 2916 3380 2872 3213 3352 3791 3553 2684 2757 3158 3508 3078 2820 2827 2824 2396 1920 2044 2093
1615 1635 1544 1336 1359 1767 1746 1856 1827 1772 1842 1696 1959 1969 1947 1902 1905 2151 2142 2007 2093 1686 1478 1851 2363 2394 2249 2515 2895 3073 2426 1982 2063 3157 3764 3952 3445 2466 2116 2138 2442 2724
1459 1552 1477 1260 1298 1536 1586 1710 1816 1828 1839 1791 1837 1922 1957 2165 2147 2088 1977 2256 2209 2144 1320 1591 2096 2137 1828 2185 2614 2736 2470 2417 2486 2913 3980 3996 3592 2862 2340 1931 1860 2248
1214 1232 1409 1313 1176 1139 1427 1506 1652 1902 1980 2003 1893 1928 1916 1948 2461 2244 1995 2103 2384 2282 2238 1760 2244 2192 2076 1981 2609 2998 2930 2276 2026 2363 2810 2782 2649 2498 2719 2328 1956 2271
1251 1276 1336 1202 1095 908 832 1254 1498 1748 1936 2054 1941 1951 2053 1978 2094 2260 2216 2309 2309 2215 2299 2310 2517 2579 2440 2146 1989 2219 2691 2348 1838 2029 2329 2455 2656 2833 2316 2135 2070 2163
1564 1406 1235 1096 1023 848 572 1149 1180 1412 1806 1920 1890 1740 1780 2012 2030 2151 2101 2531 2654 2327 2364 2455 2490 2522 2664 2403 1931 1984 2134 2639 2417 2093 2300 2567 2728 2672 2753 2894 2762 2736
1184 1504 1258 1199 1254 785 881 943 1032 1274 1563 1677 1716 1685 1615 1588 1848 2071 1877 2335 2408 2590 2610 2700 2794 2613 2558 1970 1877 1847 1948 2192 2164 2069 2092 2128 2336 2530 2676 2756 2868 2855
1446 1333 1173 902 889 785 954 815 925 1286 1322 1462 1751 1868 1799 1492 1452 1653 1779 2072 2394 2476 2551 2658 2752 2614 2498 2609 2124 1945 1981 2265 2362 2402 2542 2743 2655 2482 2624 2778 2645 2742
2312 1926 3024 1867 1293 1502 1331 754 1026 1142 892 972 1488 1735 1734 1563 1335 1371 1439 1846 2165 2479 2484 2502 2578 2642 2721 2794 2716 2319 2057 2143 2186 2208 2378 2414 2403 2316 2288 2254 2262 2263
2814 2659 3324 2578 2608 2193 1599 1139 1677 1323 902 1168 1377 1490 1603 1616 1570 1349 1515 1868 2040 2297 2578 2414 2402 2527 2989 3267 2856 2781 2424 2178 2178 2088 2068 2082 1951 1736 2058 1982 2323 2609
3859 3994 3792 3512 2848 2651 2527 2118 1866 1196 709 679 1257 998 1460 1575 1645 1544 1483 1449 1725 2100 2265 2216 1946 1978 2239 2603 3450 2958 2789 2332 1956 2063 2199 2405 2473 2412 2328 2686 2669 1994
3999 4048 4186 3908 3354 3228 3114 3086 2632 2339 1486 1574 981 1599 1233 1772 1197 1369 1220 1276 1326 1905 1889 1967 1829 1697 1925 1646 2015 2550 2970 2379 1955 1770 2706 2986 2692 2287 2743 2588 2280 2148
4186 3895 3746 3513 3328 2970 2712 2785 2709 2133 1885 1225 1104 968 1261 1817 1936 1985 1571 1305 941 1321 1650 1692 1741 1665 1193 1334 1420 1620 2577 2684 3105 3365 3341 3023 2412 2317 2921 2614 2567 2387
3998 3514 3497 3404 2904 2787 2742 2569 2253 2240 2123 1687 1509 1170 1093 1183 1292 1299 1855 1459 1199 1262 1189 935 1033 1033 1087 1119 1180 1495 2205 2684 2922 3050 3014 3156 2648 2745 2745 2814 2763 2740
3331 3462 3280 2959 2859 2901 2604 2308 2073 1861 1896 1848 1266 1032 1357 1260 971 904 1202 1475 2054 2001 874 1039 1092 960 1000 1235 1091 1339 1799 2696 2295 2528 2228 2021 1712 2356 2599 2735 3059 3148
3322 3047 2941 2714 2528 2678 2611 2059 1803 1671 1494 1296 1148 1260 1181 1087 1128 1287 1506 1180 1474 1421 1032 1023 843 846 835 926 1124 1378 1617 1785 1596 1621 1490 1673 1982 2187 2679 2840 3187 3380
3658 2739 2841 2444 2411 2826 2388 1869 1892 1671 1330 1301 1363 1351 985 884 880 1097 1263 1382 1353 1209 1493 1087 994 1073 1331 1236 1180 1446 1665 1499 1718 1786 1613 1768 2307 2517 2996 3081 3347 3743
1940 1847 1601 2140 2336 2125 1844 1932 1716 1304 1226 1272 1171 1110 1029 840 1177 1527 1488 1336 1608 1562 1151 1108 1092 844 1066 1266 1289 1509 1555 1394 1644 2022 2297 2168 2880 3246 2795 3542 3752 3926
1846 1327 1282 1612 2592 2383 2249 1906 1381 1196 873 942 1353 1381 1525 1728 2179 1500 1304 1206 1238 1499 1378 942 798 631 603 702 1232 1582 1646 1425 1271 1062 1299 1628 3080 2798 2775 3614 3832 3318
1857 1984 2076 1389 1155 1074 1814 1758 1461 1345 1013 1013 1320 1380 1595 1658 1629 1157 1150 1206 1632 1446 1093 940 937 796 647 575 791 1015 950 571 1044 1240 1577 1268 2178 1509 2074 2340 2481 1761
1104 930 776 651 819 1461 1846 1592 1328 1594 1291 1372 1187 1112 1119 1162 1235 1087 1137 1132 1036 956 876 773 630 564 550 537 476 388 284 285 485 1160 1474 1622 1019 1181 1116 1494 1424 1467
506 450 413 611 495 658 650 597 788 791 704 838 986 906 757 876 738 854 910 890 824 784 692 626 565 492 429 382 404 439 504 601 618 406 833 1111 1347 1229 1614 1376 914 1134